GEFSSGP_prec_meanprecacc_006.txt.gz
Total_Precipitation_Accumulation
0.00 0.00 0.00 0.00 0.00 0.00 0.00 0.00 0.00 0.00 0.00 0.00 0.00 0.01 0.01 0.00 0.01 0.01 0.01 0.03 0.03 0.01 0.00 0.00 0.00 0.00 0.00 0.00 0.00 0.00 0.00 0.00 0.00 0.00 0.00 0.00 0.00 0.00 0.01 0.01 0.00 0.00 0.00 0.00 0.00 0.00 0.00 0.00 0.00
0.00 0.00 0.00 0.00 0.00 0.00 0.00 0.00 0.00 0.00 0.00 0.00 0.00 0.00 0.00 0.00 0.00 0.00 0.01 0.02 0.03 0.01 0.00 0.00 0.00 0.00 0.00 0.00 0.00 0.00 0.00 0.00 0.00 0.00 0.00 0.00 0.00 0.00 0.00 0.00 0.00 0.01 0.01 0.01 0.00 0.00 0.00 0.00 0.00
0.00 0.00 0.00 0.00 0.00 0.00 0.01 0.00 0.00 0.00 0.00 0.00 0.00 0.00 0.00 0.00 0.00 0.00 0.01 0.02 0.02 0.00 0.00 0.00 0.00 0.00 0.00 0.00 0.00 0.00 0.00 0.00 0.00 0.00 0.00 0.01 0.01 0.00 0.00 0.01 0.02 0.02 0.02 0.03 0.04 0.02 0.01 0.00 0.00
0.00 0.00 0.00 0.00 0.00 0.00 0.01 0.00 0.00 0.00 0.00 0.00 0.00 0.00 0.00 0.00 0.00 0.00 0.01 0.01 0.01 0.01 0.00 0.00 0.00 0.01 0.00 0.00 0.00 0.00 0.00 0.00 0.00 0.00 0.01 0.01 0.01 0.01 0.01 0.04 0.05 0.04 0.03 0.05 0.05 0.05 0.03 0.01 0.00
0.00 0.00 0.00 0.00 0.00 0.00 0.00 0.00 0.01 0.00 0.00 0.00 0.00 0.00 0.00 0.00 0.00 0.00 0.01 0.01 0.01 0.01 0.00 0.00 0.01 0.01 0.00 0.00 0.00 0.00 0.00 0.00 0.00 0.00 0.00 0.00 0.01 0.01 0.03 0.06 0.06 0.05 0.04 0.04 0.03 0.02 0.01 0.00 0.00
0.00 0.00 0.00 0.00 0.00 0.00 0.00 0.00 0.00 0.00 0.00 0.00 0.00 0.00 0.00 0.00 0.00 0.01 0.01 0.01 0.01 0.01 0.00 0.00 0.01 0.02 0.01 0.00 0.00 0.00 0.00 0.00 0.00 0.00 0.00 0.00 0.00 0.01 0.03 0.05 0.06 0.08 0.05 0.02 0.01 0.01 0.01 0.00 0.01
0.00 0.00 0.00 0.00 0.00 0.00 0.00 0.00 0.00 0.00 0.00 0.00 0.00 0.00 0.00 0.00 0.01 0.01 0.01 0.02 0.02 0.02 0.01 0.01 0.02 0.01 0.00 0.00 0.00 0.00 0.00 0.00 0.00 0.00 0.00 0.00 0.01 0.02 0.04 0.06 0.10 0.10 0.04 0.02 0.04 0.04 0.02 0.02 0.02
0.00 0.00 0.00 0.00 0.00 0.00 0.00 0.00 0.00 0.00 0.00 0.00 0.00 0.00 0.00 0.00 0.00 0.01 0.03 0.07 0.09 0.07 0.04 0.04 0.05 0.02 0.00 0.00 0.00 0.00 0.00 0.00 0.00 0.00 0.00 0.02 0.04 0.04 0.06 0.05 0.06 0.06 0.02 0.01 0.01 0.01 0.00 0.00 0.00
0.00 0.00 0.00 0.00 0.00 0.00 0.00 0.00 0.00 0.00 0.00 0.00 0.00 0.00 0.00 0.00 0.00 0.01 0.03 0.07 0.13 0.18 0.17 0.15 0.10 0.02 0.00 0.00 0.00 0.00 0.00 0.00 0.00 0.00 0.01 0.03 0.04 0.03 0.06 0.04 0.04 0.02 0.00 0.00 0.00 0.00 0.00 0.00 0.00
0.00 0.00 0.00 0.00 0.00 0.00 0.00 0.00 0.00 0.00 0.00 0.00 0.00 0.00 0.00 0.00 0.00 0.02 0.05 0.07 0.09 0.24 0.25 0.08 0.05 0.01 0.00 0.00 0.00 0.00 0.00 0.00 0.00 0.00 0.01 0.03 0.03 0.04 0.04 0.03 0.02 0.00 0.00 0.00 0.00 0.00 0.00 0.00 0.00
0.00 0.00 0.00 0.00 0.00 0.00 0.00 0.00 0.00 0.00 0.00 0.00 0.00 0.00 0.00 0.00 0.01 0.03 0.07 0.06 0.05 0.05 0.04 0.03 0.01 0.00 0.00 0.00 0.00 0.00 0.00 0.01 0.01 0.00 0.01 0.01 0.02 0.01 0.01 0.00 0.00 0.00 0.00 0.00 0.00 0.00 0.00 0.00 0.00
0.00 0.00 0.00 0.00 0.00 0.00 0.00 0.00 0.00 0.00 0.00 0.00 0.00 0.00 0.00 0.00 0.01 0.04 0.08 0.07 0.08 0.04 0.01 0.01 0.01 0.01 0.00 0.00 0.00 0.00 0.00 0.01 0.01 0.00 0.00 0.01 0.02 0.02 0.01 0.00 0.00 0.00 0.00 0.00 0.00 0.00 0.00 0.00 0.00
0.00 0.00 0.00 0.00 0.00 0.00 0.00 0.00 0.00 0.00 0.00 0.00 0.00 0.00 0.00 0.00 0.02 0.04 0.07 0.09 0.11 0.07 0.03 0.01 0.01 0.00 0.00 0.00 0.00 0.00 0.00 0.00 0.00 0.00 0.00 0.00 0.00 0.00 0.00 0.00 0.00 0.00 0.00 0.00 0.00 0.00 0.00 0.00 0.00
0.00 0.00 0.00 0.00 0.00 0.00 0.00 0.00 0.00 0.00 0.00 0.00 0.00 0.00 0.00 0.00 0.01 0.03 0.04 0.06 0.10 0.09 0.03 0.02 0.01 0.00 0.00 0.00 0.00 0.00 0.00 0.00 0.00 0.00 0.00 0.00 0.00 0.00 0.00 0.00 0.00 0.00 0.00 0.00 0.00 0.00 0.00 0.00 0.00
0.00 0.00 0.00 0.00 0.00 0.00 0.00 0.00 0.00 0.00 0.00 0.00 0.00 0.00 0.00 0.01 0.01 0.02 0.05 0.08 0.17 0.12 0.06 0.05 0.01 0.00 0.00 0.01 0.00 0.00 0.01 0.01 0.01 0.00 0.00 0.00 0.00 0.00 0.00 0.00 0.00 0.00 0.00 0.00 0.00 0.00 0.00 0.00 0.00
0.00 0.00 0.00 0.00 0.00 0.00 0.00 0.00 0.00 0.00 0.00 0.00 0.00 0.00 0.00 0.01 0.02 0.02 0.04 0.13 0.22 0.16 0.15 0.08 0.01 0.01 0.01 0.01 0.00 0.00 0.00 0.00 0.00 0.00 0.00 0.00 0.00 0.00 0.00 0.00 0.00 0.00 0.00 0.00 0.00 0.00 0.00 0.00 0.00
0.00 0.00 0.00 0.00 0.00 0.00 0.00 0.00 0.00 0.00 0.00 0.00 0.00 0.00 0.00 0.01 0.01 0.01 0.01 0.04 0.06 0.05 0.06 0.03 0.02 0.02 0.01 0.01 0.00 0.00 0.00 0.00 0.00 0.00 0.00 0.00 0.00 0.00 0.00 0.00 0.00 0.00 0.00 0.01 0.02 0.03 0.03 0.03 0.02
0.00 0.00 0.00 0.00 0.00 0.00 0.00 0.00 0.00 0.00 0.00 0.00 0.00 0.00 0.00 0.00 0.01 0.01 0.02 0.02 0.02 0.02 0.05 0.06 0.05 0.03 0.04 0.03 0.01 0.00 0.00 0.00 0.00 0.00 0.00 0.01 0.01 0.01 0.01 0.01 0.02 0.02 0.03 0.05 0.08 0.09 0.07 0.05 0.04
0.00 0.00 0.00 0.00 0.00 0.00 0.00 0.00 0.00 0.00 0.00 0.00 0.00 0.00 0.00 0.00 0.00 0.01 0.03 0.03 0.02 0.03 0.05 0.05 0.05 0.09 0.08 0.05 0.02 0.01 0.01 0.00 0.00 0.01 0.02 0.03 0.02 0.02 0.04 0.07 0.08 0.07 0.07 0.06 0.06 0.05 0.04 0.03 0.02
0.00 0.00 0.00 0.00 0.00 0.00 0.00 0.00 0.00 0.00 0.00 0.00 0.00 0.00 0.00 0.00 0.00 0.00 0.01 0.01 0.02 0.03 0.02 0.04 0.09 0.09 0.05 0.04 0.04 0.02 0.01 0.01 0.02 0.02 0.02 0.01 0.02 0.03 0.04 0.05 0.05 0.04 0.03 0.03 0.03 0.02 0.01 0.01 0.02
0.00 0.00 0.00 0.00 0.00 0.00 0.00 0.00 0.00 0.00 0.00 0.00 0.00 0.00 0.00 0.00 0.00 0.00 0.00 0.00 0.01 0.01 0.02 0.05 0.10 0.09 0.05 0.05 0.04 0.02 0.02 0.03 0.03 0.02 0.02 0.01 0.03 0.05 0.06 0.04 0.02 0.01 0.01 0.00 0.00 0.00 0.01 0.01 0.01
0.00 0.00 0.00 0.00 0.00 0.00 0.00 0.00 0.00 0.00 0.00 0.00 0.00 0.00 0.00 0.00 0.00 0.00 0.00 0.00 0.00 0.00 0.00 0.01 0.04 0.05 0.05 0.04 0.02 0.02 0.02 0.02 0.01 0.02 0.02 0.02 0.03 0.03 0.02 0.01 0.00 0.00 0.00 0.00 0.00 0.00 0.00 0.01 0.01
0.00 0.00 0.00 0.00 0.00 0.00 0.00 0.00 0.00 0.00 0.00 0.00 0.00 0.00 0.00 0.00 0.00 0.00 0.00 0.00 0.00 0.00 0.00 0.01 0.01 0.01 0.02 0.02 0.02 0.03 0.03 0.02 0.01 0.01 0.00 0.00 0.00 0.00 0.00 0.00 0.00 0.00 0.00 0.00 0.00 0.00 0.01 0.01 0.01
0.00 0.00 0.00 0.00 0.00 0.00 0.00 0.00 0.00 0.00 0.00 0.00 0.00 0.00 0.00 0.00 0.00 0.00 0.00 0.00 0.00 0.00 0.00 0.00 0.00 0.00 0.00 0.00 0.00 0.00 0.00 0.00 0.00 0.00 0.00 0.00 0.00 0.00 0.00 0.00 0.00 0.00 0.00 0.00 0.00 0.00 0.01 0.01 0.01
0.00 0.00 0.00 0.00 0.00 0.00 0.00 0.00 0.00 0.00 0.00 0.00 0.00 0.00 0.00 0.00 0.00 0.00 0.00 0.00 0.00 0.00 0.00 0.00 0.00 0.00 0.00 0.00 0.00 0.00 0.00 0.00 0.00 0.00 0.00 0.00 0.00 0.00 0.00 0.00 0.00 0.00 0.00 0.00 0.00 0.00 0.00 0.00 0.01
0.00 0.00 0.00 0.00 0.00 0.00 0.00 0.00 0.00 0.00 0.00 0.00 0.00 0.00 0.00 0.00 0.00 0.00 0.00 0.00 0.00 0.00 0.00 0.00 0.00 0.00 0.00 0.00 0.00 0.00 0.00 0.00 0.00 0.00 0.00 0.00 0.00 0.00 0.00 0.00 0.00 0.00 0.00 0.00 0.00 0.00 0.00 0.00 0.01
0.00 0.00 0.00 0.00 0.00 0.00 0.00 0.00 0.01 0.00 0.00 0.00 0.00 0.00 0.00 0.00 0.00 0.00 0.00 0.00 0.00 0.00 0.00 0.00 0.00 0.00 0.00 0.00 0.00 0.00 0.00 0.00 0.00 0.00 0.00 0.00 0.00 0.00 0.00 0.00 0.00 0.00 0.00 0.00 0.00 0.00 0.00 0.01 0.01
0.00 0.00 0.00 0.00 0.00 0.00 0.00 0.01 0.00 0.01 0.01 0.01 0.00 0.00 0.00 0.00 0.00 0.00 0.00 0.00 0.00 0.00 0.00 0.00 0.00 0.00 0.00 0.00 0.00 0.00 0.00 0.00 0.00 0.00 0.00 0.00 0.00 0.00 0.00 0.00 0.00 0.00 0.00 0.00 0.00 0.00 0.00 0.01 0.01
0.00 0.00 0.00 0.00 0.00 0.00 0.00 0.00 0.00 0.00 0.00 0.01 0.01 0.01 0.01 0.01 0.00 0.00 0.00 0.00 0.00 0.00 0.00 0.00 0.00 0.00 0.00 0.00 0.00 0.00 0.00 0.00 0.00 0.00 0.00 0.00 0.00 0.00 0.00 0.00 0.00 0.00 0.00 0.00 0.00 0.00 0.01 0.01 0.01
0.00 0.00 0.00 0.00 0.00 0.00 0.00 0.00 0.00 0.00 0.02 0.04 0.04 0.03 0.02 0.01 0.00 0.00 0.00 0.00 0.00 0.00 0.00 0.00 0.00 0.00 0.00 0.00 0.00 0.00 0.00 0.00 0.00 0.00 0.00 0.00 0.00 0.00 0.00 0.00 0.00 0.00 0.00 0.00 0.00 0.00 0.00 0.00 0.00

GEFSSGP_prec_meanprecacc_012.txt.gz
Total_Precipitation_Accumulation
0.00 0.00 0.00 0.00 0.00 0.00 0.00 0.00 0.00 0.00 0.00 0.01 0.01 0.02 0.01 0.00 0.01 0.01 0.01 0.03 0.03 0.01 0.00 0.00 0.00 0.00 0.00 0.00 0.00 0.00 0.00 0.00 0.00 0.00 0.00 0.00 0.00 0.01 0.01 0.01 0.01 0.02 0.02 0.02 0.01 0.01 0.01 0.01 0.00
0.00 0.00 0.00 0.00 0.00 0.00 0.00 0.00 0.00 0.00 0.00 0.01 0.01 0.00 0.00 0.00 0.00 0.00 0.01 0.02 0.03 0.01 0.00 0.00 0.00 0.00 0.00 0.00 0.00 0.00 0.00 0.00 0.00 0.00 0.00 0.00 0.01 0.01 0.02 0.02 0.02 0.04 0.04 0.03 0.01 0.01 0.01 0.00 0.00
0.00 0.00 0.00 0.00 0.00 0.00 0.01 0.00 0.00 0.00 0.01 0.01 0.01 0.01 0.01 0.00 0.00 0.00 0.01 0.02 0.02 0.00 0.00 0.00 0.00 0.00 0.00 0.00 0.00 0.00 0.00 0.00 0.00 0.01 0.01 0.01 0.02 0.01 0.02 0.04 0.07 0.07 0.07 0.07 0.06 0.04 0.03 0.01 0.00
0.00 0.00 0.00 0.00 0.00 0.00 0.01 0.00 0.00 0.01 0.01 0.01 0.00 0.00 0.01 0.00 0.00 0.00 0.01 0.01 0.01 0.01 0.00 0.00 0.00 0.01 0.00 0.00 0.00 0.00 0.01 0.01 0.01 0.01 0.02 0.02 0.02 0.02 0.04 0.11 0.15 0.13 0.11 0.13 0.12 0.09 0.06 0.02 0.01
0.00 0.00 0.00 0.00 0.00 0.00 0.00 0.00 0.01 0.00 0.00 0.00 0.00 0.00 0.00 0.00 0.00 0.00 0.01 0.01 0.01 0.01 0.00 0.00 0.01 0.01 0.01 0.00 0.00 0.00 0.01 0.01 0.02 0.02 0.02 0.01 0.02 0.04 0.08 0.15 0.17 0.15 0.14 0.15 0.11 0.06 0.03 0.01 0.01
0.00 0.00 0.00 0.00 0.00 0.00 0.00 0.00 0.00 0.00 0.00 0.00 0.00 0.00 0.00 0.00 0.00 0.01 0.01 0.01 0.01 0.01 0.00 0.00 0.01 0.02 0.01 0.00 0.00 0.00 0.00 0.01 0.01 0.01 0.01 0.01 0.02 0.04 0.09 0.12 0.15 0.16 0.13 0.09 0.07 0.05 0.03 0.02 0.02
0.00 0.00 0.00 0.00 0.00 0.00 0.00 0.00 0.00 0.00 0.00 0.00 0.00 0.00 0.00 0.00 0.01 0.01 0.01 0.02 0.02 0.02 0.01 0.01 0.02 0.01 0.00 0.00 0.00 0.00 0.00 0.00 0.00 0.00 0.00 0.01 0.03 0.05 0.08 0.11 0.16 0.17 0.10 0.06 0.06 0.05 0.03 0.03 0.02
0.00 0.00 0.00 0.00 0.00 0.00 0.00 0.00 0.00 0.00 0.00 0.00 0.00 0.00 0.00 0.00 0.00 0.01 0.03 0.08 0.10 0.07 0.04 0.04 0.05 0.02 0.00 0.00 0.00 0.00 0.00 0.00 0.00 0.00 0.00 0.03 0.06 0.07 0.10 0.08 0.09 0.10 0.05 0.02 0.01 0.01 0.00 0.00 0.00
0.00 0.00 0.00 0.00 0.00 0.00 0.00 0.00 0.00 0.00 0.00 0.00 0.00 0.00 0.00 0.00 0.00 0.01 0.04 0.08 0.14 0.19 0.17 0.15 0.10 0.02 0.00 0.00 0.00 0.00 0.00 0.00 0.00 0.00 0.01 0.04 0.05 0.04 0.07 0.05 0.06 0.04 0.02 0.00 0.00 0.00 0.00 0.00 0.00
0.00 0.00 0.00 0.00 0.00 0.00 0.00 0.00 0.00 0.00 0.00 0.00 0.00 0.00 0.00 0.00 0.00 0.02 0.06 0.07 0.09 0.25 0.25 0.08 0.05 0.01 0.00 0.00 0.00 0.00 0.00 0.00 0.00 0.00 0.01 0.03 0.03 0.04 0.04 0.03 0.02 0.01 0.00 0.00 0.00 0.00 0.00 0.00 0.00
0.00 0.00 0.00 0.00 0.00 0.00 0.00 0.00 0.00 0.00 0.00 0.00 0.00 0.00 0.00 0.00 0.01 0.03 0.07 0.07 0.06 0.06 0.04 0.03 0.01 0.00 0.00 0.00 0.00 0.00 0.00 0.01 0.01 0.00 0.01 0.01 0.02 0.02 0.01 0.00 0.00 0.00 0.00 0.00 0.00 0.00 0.00 0.00 0.00
0.00 0.00 0.00 0.00 0.00 0.00 0.00 0.00 0.00 0.00 0.00 0.00 0.00 0.00 0.00 0.00 0.01 0.04 0.08 0.08 0.10 0.05 0.01 0.01 0.01 0.01 0.00 0.00 0.00 0.00 0.00 0.01 0.01 0.00 0.00 0.01 0.02 0.02 0.01 0.00 0.00 0.00 0.00 0.00 0.00 0.00 0.00 0.00 0.00
0.00 0.00 0.00 0.00 0.00 0.00 0.00 0.00 0.00 0.00 0.00 0.00 0.00 0.00 0.00 0.00 0.02 0.04 0.07 0.09 0.12 0.07 0.03 0.01 0.01 0.00 0.00 0.00 0.00 0.00 0.00 0.00 0.00 0.00 0.00 0.00 0.01 0.01 0.00 0.00 0.00 0.00 0.00 0.00 0.00 0.00 0.00 0.00 0.00
0.00 0.00 0.00 0.00 0.00 0.00 0.00 0.00 0.00 0.00 0.00 0.00 0.00 0.00 0.00 0.00 0.01 0.03 0.04 0.06 0.10 0.09 0.03 0.02 0.01 0.00 0.00 0.00 0.00 0.00 0.00 0.01 0.01 0.01 0.01 0.00 0.00 0.00 0.00 0.00 0.00 0.00 0.00 0.00 0.00 0.00 0.00 0.00 0.00
0.00 0.00 0.00 0.00 0.00 0.00 0.00 0.00 0.00 0.00 0.00 0.00 0.00 0.00 0.00 0.01 0.02 0.02 0.05 0.08 0.17 0.13 0.06 0.05 0.01 0.01 0.01 0.01 0.00 0.01 0.02 0.03 0.03 0.02 0.01 0.00 0.00 0.00 0.00 0.00 0.00 0.00 0.00 0.00 0.00 0.00 0.00 0.00 0.00
0.00 0.00 0.00 0.00 0.00 0.00 0.00 0.00 0.00 0.00 0.00 0.00 0.00 0.00 0.00 0.01 0.02 0.02 0.05 0.14 0.23 0.16 0.15 0.08 0.01 0.01 0.01 0.01 0.01 0.01 0.02 0.02 0.02 0.02 0.01 0.00 0.00 0.00 0.00 0.00 0.00 0.00 0.00 0.00 0.00 0.00 0.00 0.00 0.00
0.00 0.00 0.00 0.00 0.00 0.00 0.00 0.00 0.00 0.00 0.00 0.00 0.00 0.00 0.00 0.01 0.02 0.02 0.02 0.06 0.08 0.06 0.07 0.03 0.03 0.02 0.02 0.02 0.01 0.01 0.02 0.01 0.01 0.00 0.00 0.00 0.00 0.00 0.00 0.00 0.00 0.00 0.00 0.01 0.02 0.04 0.04 0.04 0.04
0.00 0.00 0.00 0.00 0.00 0.00 0.00 0.00 0.00 0.00 0.00 0.00 0.00 0.00 0.00 0.00 0.01 0.02 0.03 0.04 0.04 0.03 0.05 0.07 0.05 0.04 0.04 0.04 0.02 0.01 0.01 0.00 0.00 0.00 0.00 0.01 0.01 0.01 0.01 0.01 0.02 0.02 0.03 0.05 0.08 0.10 0.08 0.06 0.04
0.00 0.00 0.00 0.00 0.00 0.00 0.00 0.00 0.00 0.00 0.00 0.00 0.00 0.00 0.00 0.00 0.01 0.02 0.06 0.06 0.07 0.05 0.07 0.06 0.05 0.09 0.09 0.06 0.03 0.02 0.01 0.01 0.01 0.01 0.02 0.03 0.03 0.03 0.04 0.07 0.08 0.08 0.07 0.07 0.06 0.06 0.04 0.03 0.02
0.00 0.00 0.00 0.00 0.00 0.00 0.00 0.00 0.00 0.00 0.00 0.00 0.00 0.00 0.00 0.01 0.01 0.02 0.03 0.04 0.06 0.05 0.04 0.04 0.09 0.10 0.07 0.05 0.05 0.03 0.01 0.01 0.02 0.02 0.02 0.02 0.02 0.03 0.04 0.05 0.05 0.04 0.04 0.04 0.03 0.02 0.02 0.02 0.02
0.00 0.00 0.00 0.00 0.00 0.00 0.00 0.00 0.00 0.00 0.00 0.00 0.00 0.00 0.00 0.01 0.01 0.01 0.02 0.03 0.03 0.03 0.03 0.06 0.11 0.10 0.06 0.06 0.05 0.03 0.02 0.03 0.03 0.02 0.02 0.01 0.03 0.05 0.06 0.04 0.02 0.01 0.01 0.01 0.01 0.00 0.01 0.01 0.01
0.00 0.00 0.00 0.00 0.00 0.00 0.00 0.00 0.00 0.00 0.00 0.00 0.00 0.00 0.00 0.01 0.01 0.01 0.01 0.02 0.02 0.02 0.01 0.02 0.04 0.06 0.06 0.05 0.03 0.03 0.02 0.02 0.02 0.02 0.02 0.02 0.03 0.03 0.02 0.01 0.00 0.00 0.00 0.00 0.00 0.00 0.00 0.01 0.01
0.00 0.00 0.00 0.00 0.00 0.00 0.00 0.00 0.00 0.00 0.00 0.00 0.00 0.00 0.00 0.01 0.01 0.01 0.02 0.02 0.02 0.01 0.01 0.01 0.02 0.02 0.02 0.02 0.03 0.03 0.03 0.02 0.01 0.01 0.00 0.00 0.00 0.00 0.00 0.00 0.00 0.00 0.00 0.00 0.00 0.00 0.01 0.01 0.01
0.00 0.00 0.00 0.00 0.00 0.00 0.00 0.00 0.00 0.00 0.00 0.00 0.00 0.00 0.01 0.01 0.01 0.02 0.02 0.02 0.02 0.01 0.01 0.01 0.01 0.01 0.01 0.00 0.00 0.00 0.00 0.00 0.00 0.00 0.00 0.00 0.00 0.00 0.00 0.00 0.00 0.00 0.00 0.00 0.00 0.00 0.01 0.01 0.01
0.00 0.00 0.00 0.00 0.00 0.00 0.00 0.00 0.00 0.00 0.00 0.00 0.00 0.01 0.01 0.01 0.01 0.02 0.02 0.01 0.01 0.01 0.00 0.00 0.00 0.00 0.00 0.00 0.00 0.00 0.00 0.00 0.00 0.00 0.00 0.00 0.00 0.00 0.00 0.00 0.00 0.00 0.00 0.00 0.00 0.00 0.00 0.00 0.01
0.00 0.00 0.00 0.00 0.00 0.00 0.00 0.00 0.00 0.00 0.00 0.00 0.00 0.00 0.01 0.01 0.01 0.01 0.01 0.00 0.00 0.00 0.00 0.00 0.00 0.00 0.00 0.00 0.00 0.00 0.00 0.00 0.00 0.00 0.00 0.00 0.00 0.00 0.00 0.00 0.00 0.00 0.00 0.00 0.00 0.00 0.00 0.00 0.01
0.00 0.00 0.00 0.00 0.00 0.00 0.00 0.00 0.01 0.00 0.00 0.00 0.00 0.00 0.01 0.02 0.03 0.02 0.01 0.00 0.00 0.00 0.00 0.00 0.00 0.00 0.00 0.00 0.00 0.00 0.00 0.00 0.00 0.00 0.00 0.00 0.00 0.00 0.00 0.00 0.00 0.00 0.00 0.00 0.00 0.00 0.00 0.01 0.01
0.00 0.00 0.00 0.00 0.00 0.00 0.00 0.01 0.00 0.01 0.01 0.01 0.00 0.01 0.02 0.03 0.05 0.05 0.03 0.01 0.00 0.00 0.00 0.00 0.00 0.00 0.00 0.00 0.00 0.00 0.00 0.00 0.00 0.00 0.00 0.00 0.00 0.00 0.00 0.00 0.00 0.00 0.00 0.00 0.00 0.00 0.00 0.01 0.01
0.00 0.00 0.00 0.00 0.00 0.00 0.00 0.00 0.00 0.00 0.00 0.01 0.01 0.02 0.03 0.06 0.09 0.08 0.06 0.02 0.00 0.00 0.00 0.00 0.00 0.00 0.00 0.00 0.00 0.00 0.00 0.00 0.00 0.00 0.00 0.00 0.00 0.00 0.00 0.00 0.00 0.00 0.00 0.00 0.00 0.00 0.01 0.01 0.01
0.00 0.00 0.00 0.00 0.00 0.00 0.00 0.00 0.00 0.00 0.02 0.04 0.05 0.05 0.06 0.08 0.09 0.07 0.05 0.02 0.00 0.00 0.00 0.00 0.00 0.00 0.00 0.00 0.00 0.00 0.00 0.00 0.00 0.00 0.00 0.00 0.00 0.00 0.00 0.00 0.00 0.00 0.00 0.00 0.00 0.00 0.00 0.00 0.00

GEFSSGP_prec_meanprecacc_018.txt.gz
Total_Precipitation_Accumulation
0.00 0.00 0.00 0.00 0.00 0.00 0.00 0.00 0.00 0.00 0.00 0.01 0.01 0.02 0.01 0.00 0.01 0.02 0.01 0.03 0.03 0.01 0.00 0.00 0.00 0.00 0.00 0.00 0.00 0.00 0.00 0.00 0.00 0.00 0.00 0.00 0.00 0.01 0.01 0.02 0.03 0.05 0.07 0.06 0.05 0.05 0.04 0.03 0.01
0.00 0.00 0.00 0.00 0.00 0.00 0.00 0.00 0.00 0.00 0.00 0.01 0.01 0.00 0.00 0.00 0.00 0.00 0.01 0.02 0.03 0.01 0.00 0.00 0.00 0.00 0.00 0.00 0.00 0.00 0.00 0.00 0.00 0.00 0.00 0.01 0.01 0.02 0.03 0.04 0.05 0.09 0.11 0.10 0.06 0.04 0.02 0.01 0.00
0.00 0.00 0.00 0.00 0.00 0.00 0.01 0.00 0.00 0.00 0.01 0.01 0.01 0.01 0.01 0.00 0.00 0.00 0.01 0.02 0.02 0.00 0.00 0.00 0.00 0.01 0.00 0.00 0.00 0.00 0.00 0.00 0.00 0.01 0.01 0.02 0.02 0.03 0.04 0.08 0.11 0.13 0.13 0.14 0.11 0.07 0.04 0.01 0.00
0.00 0.00 0.00 0.00 0.00 0.00 0.01 0.00 0.00 0.01 0.01 0.01 0.00 0.00 0.01 0.00 0.00 0.00 0.01 0.01 0.01 0.01 0.00 0.00 0.01 0.01 0.01 0.00 0.00 0.01 0.01 0.01 0.01 0.01 0.02 0.03 0.03 0.04 0.07 0.15 0.21 0.19 0.17 0.20 0.20 0.16 0.10 0.04 0.02
0.00 0.00 0.00 0.00 0.00 0.00 0.00 0.00 0.01 0.00 0.00 0.00 0.00 0.00 0.00 0.00 0.00 0.00 0.01 0.01 0.01 0.01 0.00 0.00 0.01 0.02 0.01 0.00 0.00 0.01 0.01 0.02 0.03 0.04 0.04 0.04 0.05 0.06 0.12 0.19 0.22 0.21 0.21 0.22 0.19 0.13 0.06 0.03 0.02
0.00 0.00 0.00 0.00 0.00 0.00 0.00 0.00 0.00 0.00 0.00 0.00 0.00 0.00 0.00 0.00 0.00 0.01 0.01 0.01 0.01 0.02 0.00 0.00 0.01 0.03 0.02 0.01 0.01 0.02 0.02 0.03 0.04 0.05 0.05 0.04 0.04 0.06 0.11 0.16 0.19 0.20 0.17 0.14 0.11 0.09 0.06 0.06 0.07
0.00 0.00 0.00 0.00 0.00 0.00 0.00 0.00 0.00 0.00 0.00 0.00 0.00 0.00 0.00 0.00 0.01 0.01 0.01 0.02 0.02 0.02 0.01 0.01 0.02 0.02 0.01 0.01 0.01 0.02 0.02 0.02 0.03 0.03 0.03 0.03 0.04 0.07 0.10 0.13 0.18 0.19 0.12 0.08 0.08 0.07 0.05 0.05 0.05
0.00 0.00 0.00 0.00 0.00 0.00 0.00 0.00 0.00 0.00 0.00 0.00 0.00 0.00 0.00 0.00 0.00 0.01 0.03 0.08 0.10 0.07 0.04 0.04 0.05 0.02 0.00 0.01 0.01 0.01 0.01 0.01 0.01 0.01 0.02 0.04 0.08 0.09 0.12 0.09 0.10 0.11 0.07 0.03 0.02 0.01 0.01 0.01 0.00
0.00 0.00 0.00 0.00 0.00 0.00 0.00 0.00 0.00 0.00 0.00 0.00 0.00 0.00 0.00 0.00 0.00 0.01 0.04 0.08 0.14 0.19 0.17 0.16 0.10 0.02 0.00 0.00 0.00 0.00 0.00 0.00 0.00 0.01 0.03 0.06 0.07 0.07 0.09 0.06 0.07 0.05 0.02 0.01 0.00 0.00 0.00 0.00 0.00
0.00 0.00 0.00 0.00 0.00 0.00 0.00 0.00 0.00 0.00 0.00 0.00 0.00 0.00 0.00 0.00 0.00 0.02 0.06 0.07 0.09 0.25 0.25 0.08 0.06 0.01 0.00 0.00 0.00 0.00 0.00 0.00 0.00 0.01 0.03 0.05 0.05 0.06 0.05 0.04 0.03 0.01 0.00 0.00 0.00 0.00 0.00 0.00 0.00
0.00 0.00 0.00 0.00 0.00 0.00 0.00 0.00 0.00 0.00 0.00 0.00 0.00 0.00 0.00 0.00 0.01 0.03 0.07 0.07 0.06 0.06 0.04 0.03 0.02 0.00 0.00 0.00 0.00 0.00 0.00 0.01 0.01 0.00 0.01 0.02 0.03 0.03 0.02 0.01 0.00 0.00 0.00 0.00 0.00 0.00 0.00 0.00 0.00
0.00 0.00 0.00 0.00 0.00 0.00 0.00 0.00 0.00 0.00 0.00 0.00 0.00 0.00 0.00 0.00 0.01 0.04 0.08 0.08 0.10 0.05 0.02 0.01 0.01 0.01 0.00 0.00 0.00 0.00 0.00 0.01 0.01 0.00 0.01 0.01 0.03 0.02 0.01 0.01 0.00 0.00 0.00 0.00 0.00 0.00 0.00 0.00 0.00
0.00 0.00 0.00 0.00 0.00 0.00 0.00 0.00 0.00 0.00 0.00 0.00 0.00 0.00 0.00 0.00 0.02 0.04 0.07 0.09 0.12 0.07 0.03 0.01 0.01 0.00 0.00 0.00 0.00 0.00 0.00 0.00 0.00 0.00 0.00 0.00 0.01 0.01 0.00 0.00 0.00 0.00 0.00 0.00 0.00 0.00 0.00 0.00 0.00
0.00 0.00 0.00 0.00 0.00 0.00 0.00 0.00 0.00 0.00 0.00 0.00 0.00 0.00 0.00 0.00 0.01 0.03 0.04 0.06 0.10 0.09 0.03 0.02 0.01 0.00 0.00 0.00 0.00 0.00 0.00 0.01 0.01 0.01 0.01 0.01 0.00 0.00 0.00 0.00 0.00 0.00 0.00 0.00 0.00 0.00 0.00 0.00 0.00
0.00 0.00 0.00 0.00 0.00 0.00 0.00 0.00 0.00 0.00 0.00 0.00 0.00 0.00 0.00 0.01 0.02 0.02 0.05 0.08 0.17 0.13 0.06 0.05 0.01 0.01 0.01 0.01 0.00 0.01 0.02 0.03 0.03 0.03 0.01 0.01 0.01 0.00 0.00 0.00 0.00 0.00 0.00 0.00 0.00 0.00 0.00 0.00 0.00
0.00 0.00 0.00 0.00 0.00 0.00 0.00 0.00 0.00 0.00 0.00 0.00 0.00 0.00 0.00 0.01 0.02 0.02 0.05 0.14 0.23 0.16 0.15 0.08 0.01 0.01 0.01 0.01 0.01 0.01 0.02 0.03 0.04 0.03 0.01 0.01 0.00 0.00 0.00 0.00 0.00 0.00 0.00 0.00 0.00 0.00 0.00 0.01 0.01
0.00 0.00 0.00 0.00 0.00 0.00 0.00 0.00 0.00 0.00 0.00 0.00 0.00 0.00 0.00 0.01 0.02 0.02 0.03 0.06 0.09 0.07 0.07 0.04 0.03 0.02 0.02 0.02 0.01 0.01 0.03 0.03 0.03 0.02 0.01 0.01 0.00 0.00 0.00 0.00 0.00 0.00 0.00 0.01 0.02 0.04 0.04 0.04 0.04
0.00 0.00 0.00 0.00 0.00 0.00 0.00 0.00 0.00 0.00 0.00 0.00 0.00 0.00 0.00 0.00 0.01 0.02 0.04 0.05 0.06 0.05 0.07 0.08 0.05 0.04 0.04 0.04 0.03 0.02 0.02 0.02 0.01 0.01 0.01 0.01 0.01 0.01 0.01 0.01 0.02 0.02 0.03 0.05 0.08 0.10 0.08 0.06 0.04
0.00 0.00 0.00 0.00 0.00 0.00 0.00 0.00 0.00 0.00 0.00 0.00 0.00 0.00 0.00 0.00 0.01 0.03 0.07 0.09 0.12 0.12 0.13 0.11 0.09 0.11 0.10 0.08 0.05 0.03 0.02 0.01 0.01 0.02 0.02 0.03 0.03 0.03 0.04 0.07 0.08 0.08 0.07 0.07 0.07 0.06 0.04 0.03 0.02
0.00 0.00 0.00 0.00 0.00 0.00 0.00 0.00 0.00 0.00 0.00 0.00 0.00 0.00 0.00 0.01 0.02 0.04 0.08 0.12 0.17 0.20 0.18 0.16 0.17 0.16 0.11 0.09 0.09 0.05 0.02 0.02 0.02 0.02 0.02 0.02 0.02 0.03 0.04 0.05 0.05 0.04 0.04 0.04 0.03 0.02 0.02 0.02 0.02
0.00 0.00 0.00 0.00 0.00 0.00 0.00 0.00 0.00 0.00 0.00 0.00 0.00 0.00 0.00 0.01 0.03 0.05 0.09 0.14 0.19 0.22 0.23 0.21 0.22 0.20 0.13 0.11 0.10 0.06 0.04 0.04 0.04 0.02 0.02 0.01 0.03 0.05 0.06 0.04 0.02 0.01 0.01 0.01 0.01 0.00 0.01 0.01 0.01
0.00 0.00 0.00 0.00 0.00 0.00 0.00 0.00 0.00 0.00 0.00 0.00 0.00 0.00 0.00 0.01 0.02 0.04 0.07 0.12 0.18 0.24 0.22 0.16 0.15 0.17 0.17 0.15 0.09 0.07 0.05 0.03 0.02 0.02 0.02 0.02 0.03 0.03 0.02 0.01 0.00 0.00 0.00 0.00 0.00 0.00 0.00 0.01 0.01
0.00 0.00 0.00 0.00 0.00 0.00 0.00 0.00 0.00 0.00 0.00 0.00 0.00 0.00 0.00 0.01 0.02 0.04 0.07 0.11 0.18 0.20 0.21 0.19 0.16 0.16 0.17 0.15 0.10 0.08 0.05 0.03 0.01 0.01 0.01 0.00 0.00 0.00 0.00 0.00 0.00 0.00 0.00 0.00 0.00 0.00 0.01 0.01 0.01
0.00 0.00 0.00 0.00 0.00 0.00 0.00 0.00 0.00 0.00 0.00 0.00 0.00 0.00 0.01 0.01 0.02 0.03 0.05 0.08 0.12 0.17 0.20 0.19 0.16 0.15 0.13 0.09 0.05 0.03 0.02 0.01 0.00 0.00 0.00 0.00 0.00 0.00 0.00 0.00 0.00 0.00 0.00 0.00 0.00 0.00 0.01 0.01 0.01
0.00 0.00 0.00 0.00 0.00 0.00 0.00 0.00 0.00 0.00 0.00 0.00 0.00 0.01 0.01 0.01 0.02 0.03 0.04 0.06 0.09 0.13 0.14 0.13 0.11 0.10 0.08 0.05 0.02 0.01 0.01 0.00 0.00 0.00 0.00 0.00 0.00 0.00 0.00 0.00 0.00 0.00 0.00 0.00 0.00 0.00 0.00 0.00 0.01
0.00 0.00 0.00 0.00 0.00 0.00 0.00 0.00 0.00 0.00 0.00 0.00 0.00 0.00 0.01 0.02 0.02 0.02 0.03 0.05 0.07 0.07 0.08 0.08 0.07 0.06 0.04 0.02 0.01 0.00 0.00 0.00 0.00 0.00 0.00 0.00 0.00 0.00 0.00 0.00 0.00 0.00 0.00 0.00 0.00 0.00 0.00 0.00 0.01
0.00 0.00 0.00 0.00 0.00 0.00 0.00 0.00 0.01 0.00 0.00 0.00 0.00 0.00 0.01 0.03 0.03 0.03 0.04 0.05 0.06 0.06 0.06 0.05 0.04 0.03 0.02 0.01 0.00 0.00 0.00 0.00 0.00 0.00 0.00 0.00 0.00 0.00 0.00 0.00 0.00 0.00 0.00 0.00 0.00 0.00 0.00 0.01 0.02
0.00 0.00 0.00 0.00 0.00 0.00 0.00 0.01 0.00 0.01 0.01 0.01 0.00 0.01 0.02 0.04 0.06 0.06 0.06 0.04 0.03 0.04 0.03 0.03 0.02 0.01 0.00 0.00 0.00 0.00 0.00 0.00 0.00 0.00 0.00 0.00 0.00 0.00 0.00 0.00 0.00 0.00 0.00 0.00 0.00 0.00 0.00 0.01 0.01
0.00 0.00 0.00 0.00 0.00 0.00 0.00 0.00 0.00 0.00 0.00 0.01 0.01 0.02 0.03 0.06 0.09 0.09 0.07 0.03 0.02 0.02 0.02 0.01 0.01 0.00 0.00 0.00 0.00 0.00 0.00 0.00 0.00 0.00 0.00 0.00 0.00 0.00 0.00 0.00 0.00 0.00 0.00 0.00 0.00 0.01 0.01 0.01 0.01
0.00 0.00 0.00 0.00 0.00 0.00 0.00 0.00 0.00 0.00 0.02 0.04 0.05 0.05 0.06 0.08 0.09 0.08 0.06 0.03 0.02 0.02 0.02 0.01 0.01 0.01 0.00 0.00 0.00 0.00 0.00 0.00 0.00 0.00 0.00 0.00 0.00 0.00 0.00 0.00 0.00 0.00 0.00 0.01 0.01 0.01 0.01 0.01 0.01

GEFSSGP_prec_meanprecacc_024.txt.gz
Total_Precipitation_Accumulation
0.00 0.00 0.00 0.00 0.00 0.00 0.00 0.00 0.00 0.00 0.01 0.01 0.01 0.02 0.01 0.00 0.02 0.10 0.03 0.03 0.03 0.01 0.00 0.00 0.00 0.00 0.00 0.00 0.00 0.01 0.02 0.02 0.02 0.02 0.02 0.02 0.02 0.02 0.03 0.02 0.03 0.06 0.08 0.08 0.07 0.06 0.05 0.03 0.01
0.00 0.00 0.00 0.00 0.00 0.00 0.00 0.00 0.00 0.01 0.01 0.01 0.01 0.00 0.00 0.00 0.00 0.00 0.01 0.02 0.03 0.01 0.00 0.00 0.00 0.00 0.00 0.00 0.00 0.01 0.01 0.02 0.02 0.02 0.02 0.01 0.02 0.03 0.03 0.04 0.05 0.09 0.12 0.11 0.07 0.05 0.03 0.01 0.00
0.00 0.00 0.00 0.00 0.00 0.00 0.01 0.00 0.00 0.01 0.01 0.01 0.01 0.01 0.01 0.00 0.00 0.00 0.01 0.02 0.02 0.00 0.00 0.00 0.00 0.01 0.00 0.00 0.00 0.00 0.01 0.01 0.02 0.02 0.02 0.02 0.02 0.03 0.04 0.08 0.11 0.13 0.14 0.14 0.11 0.07 0.04 0.01 0.00
0.00 0.00 0.00 0.00 0.00 0.00 0.01 0.01 0.00 0.01 0.01 0.01 0.00 0.00 0.01 0.00 0.00 0.00 0.01 0.01 0.01 0.01 0.00 0.00 0.01 0.01 0.01 0.00 0.00 0.01 0.01 0.01 0.02 0.02 0.03 0.03 0.03 0.04 0.07 0.15 0.21 0.19 0.17 0.20 0.20 0.16 0.10 0.04 0.02
0.00 0.00 0.00 0.00 0.00 0.00 0.00 0.00 0.01 0.00 0.00 0.00 0.00 0.00 0.00 0.00 0.00 0.00 0.01 0.01 0.01 0.01 0.00 0.00 0.01 0.02 0.01 0.00 0.00 0.01 0.01 0.03 0.04 0.04 0.04 0.04 0.05 0.06 0.12 0.19 0.22 0.21 0.21 0.22 0.19 0.13 0.07 0.05 0.05
0.00 0.00 0.00 0.00 0.00 0.00 0.00 0.00 0.00 0.01 0.00 0.00 0.00 0.00 0.00 0.00 0.00 0.01 0.01 0.01 0.01 0.02 0.00 0.00 0.01 0.03 0.02 0.01 0.01 0.02 0.03 0.04 0.05 0.06 0.06 0.04 0.04 0.06 0.11 0.16 0.19 0.20 0.18 0.14 0.11 0.09 0.08 0.09 0.09
0.00 0.00 0.00 0.00 0.00 0.00 0.00 0.00 0.00 0.01 0.01 0.01 0.00 0.00 0.00 0.00 0.01 0.01 0.01 0.03 0.02 0.02 0.01 0.01 0.02 0.02 0.01 0.01 0.02 0.02 0.03 0.03 0.04 0.04 0.04 0.03 0.05 0.07 0.10 0.13 0.18 0.19 0.12 0.08 0.08 0.07 0.06 0.06 0.06
0.00 0.00 0.00 0.00 0.00 0.00 0.00 0.00 0.00 0.01 0.04 0.02 0.00 0.00 0.00 0.00 0.00 0.01 0.03 0.08 0.10 0.07 0.04 0.04 0.05 0.02 0.01 0.01 0.01 0.01 0.01 0.01 0.01 0.02 0.02 0.04 0.08 0.09 0.12 0.09 0.10 0.11 0.07 0.03 0.03 0.02 0.01 0.01 0.01
0.00 0.00 0.00 0.00 0.00 0.00 0.00 0.00 0.00 0.01 0.02 0.02 0.00 0.00 0.00 0.00 0.00 0.01 0.04 0.08 0.14 0.19 0.17 0.16 0.10 0.03 0.01 0.01 0.00 0.00 0.00 0.00 0.00 0.02 0.03 0.07 0.11 0.12 0.13 0.08 0.07 0.05 0.02 0.01 0.00 0.00 0.00 0.00 0.00
0.00 0.00 0.00 0.00 0.00 0.00 0.00 0.00 0.00 0.00 0.00 0.00 0.00 0.00 0.00 0.00 0.00 0.02 0.06 0.07 0.09 0.25 0.25 0.08 0.06 0.01 0.00 0.00 0.00 0.00 0.00 0.00 0.01 0.05 0.03 0.09 0.13 0.13 0.09 0.05 0.03 0.01 0.00 0.00 0.00 0.00 0.00 0.00 0.00
0.00 0.00 0.00 0.00 0.00 0.00 0.00 0.00 0.00 0.00 0.00 0.01 0.00 0.00 0.00 0.00 0.01 0.03 0.07 0.07 0.06 0.06 0.04 0.03 0.02 0.00 0.00 0.00 0.00 0.00 0.01 0.01 0.02 0.03 0.04 0.07 0.06 0.04 0.03 0.02 0.01 0.01 0.00 0.00 0.00 0.00 0.00 0.00 0.00
0.00 0.00 0.00 0.00 0.00 0.00 0.00 0.00 0.00 0.00 0.00 0.01 0.02 0.03 0.01 0.00 0.01 0.04 0.08 0.08 0.10 0.05 0.02 0.01 0.01 0.01 0.00 0.00 0.00 0.00 0.00 0.01 0.01 0.01 0.01 0.03 0.04 0.04 0.02 0.02 0.01 0.01 0.00 0.00 0.00 0.00 0.00 0.00 0.00
0.00 0.00 0.00 0.00 0.00 0.00 0.00 0.00 0.00 0.00 0.00 0.00 0.01 0.03 0.02 0.01 0.02 0.05 0.07 0.09 0.12 0.07 0.03 0.01 0.01 0.00 0.00 0.00 0.00 0.00 0.00 0.00 0.00 0.00 0.00 0.01 0.01 0.02 0.01 0.00 0.00 0.00 0.00 0.00 0.00 0.00 0.00 0.00 0.00
0.00 0.00 0.00 0.00 0.00 0.00 0.00 0.00 0.00 0.00 0.00 0.00 0.00 0.01 0.01 0.01 0.02 0.04 0.05 0.07 0.10 0.09 0.03 0.02 0.01 0.00 0.00 0.00 0.00 0.00 0.00 0.01 0.01 0.01 0.01 0.01 0.01 0.02 0.01 0.01 0.01 0.00 0.00 0.00 0.00 0.00 0.00 0.00 0.00
0.00 0.00 0.00 0.00 0.00 0.00 0.00 0.00 0.00 0.00 0.00 0.00 0.00 0.00 0.00 0.01 0.02 0.03 0.05 0.10 0.18 0.13 0.06 0.05 0.01 0.01 0.01 0.01 0.00 0.01 0.02 0.03 0.04 0.03 0.02 0.01 0.01 0.02 0.01 0.01 0.01 0.01 0.00 0.00 0.00 0.00 0.00 0.00 0.00
0.00 0.00 0.00 0.00 0.00 0.00 0.00 0.00 0.00 0.00 0.00 0.00 0.00 0.00 0.00 0.01 0.02 0.02 0.05 0.16 0.26 0.18 0.15 0.08 0.01 0.01 0.01 0.01 0.01 0.01 0.02 0.03 0.04 0.04 0.02 0.01 0.01 0.00 0.00 0.01 0.01 0.00 0.00 0.00 0.00 0.00 0.00 0.01 0.01
0.00 0.00 0.00 0.00 0.00 0.00 0.00 0.00 0.00 0.00 0.00 0.00 0.00 0.00 0.00 0.01 0.02 0.02 0.03 0.06 0.11 0.10 0.08 0.04 0.03 0.02 0.02 0.02 0.01 0.02 0.04 0.05 0.04 0.04 0.02 0.01 0.00 0.00 0.00 0.01 0.01 0.00 0.00 0.01 0.02 0.04 0.05 0.05 0.04
0.00 0.00 0.00 0.00 0.00 0.00 0.00 0.00 0.00 0.00 0.00 0.00 0.00 0.00 0.00 0.00 0.01 0.03 0.04 0.07 0.09 0.09 0.09 0.09 0.06 0.04 0.04 0.04 0.03 0.03 0.03 0.03 0.03 0.03 0.03 0.02 0.02 0.02 0.02 0.02 0.02 0.02 0.04 0.06 0.09 0.10 0.08 0.06 0.05
0.00 0.00 0.00 0.00 0.00 0.00 0.00 0.00 0.00 0.00 0.00 0.00 0.00 0.00 0.00 0.00 0.01 0.03 0.10 0.22 0.27 0.21 0.17 0.14 0.10 0.12 0.11 0.09 0.06 0.05 0.04 0.03 0.03 0.03 0.03 0.04 0.04 0.04 0.05 0.08 0.09 0.08 0.08 0.07 0.07 0.06 0.04 0.03 0.02
0.00 0.00 0.00 0.00 0.00 0.00 0.00 0.00 0.00 0.00 0.00 0.00 0.00 0.00 0.00 0.01 0.02 0.05 0.12 0.29 0.37 0.32 0.26 0.22 0.23 0.20 0.14 0.13 0.12 0.08 0.05 0.05 0.05 0.05 0.05 0.03 0.03 0.04 0.05 0.05 0.05 0.04 0.04 0.04 0.03 0.02 0.02 0.02 0.02
0.00 0.00 0.00 0.00 0.00 0.00 0.00 0.00 0.00 0.00 0.00 0.00 0.00 0.00 0.00 0.01 0.03 0.05 0.09 0.16 0.27 0.33 0.32 0.32 0.35 0.32 0.24 0.21 0.17 0.14 0.12 0.11 0.09 0.06 0.05 0.04 0.04 0.06 0.07 0.04 0.02 0.01 0.01 0.01 0.01 0.00 0.01 0.01 0.01
0.00 0.00 0.00 0.00 0.00 0.00 0.00 0.00 0.00 0.00 0.00 0.00 0.00 0.00 0.00 0.01 0.02 0.04 0.08 0.13 0.21 0.29 0.31 0.31 0.33 0.36 0.33 0.30 0.22 0.21 0.18 0.13 0.10 0.08 0.06 0.04 0.04 0.03 0.02 0.01 0.00 0.00 0.00 0.00 0.00 0.00 0.00 0.01 0.01
0.00 0.00 0.00 0.00 0.00 0.00 0.00 0.00 0.00 0.00 0.00 0.00 0.00 0.00 0.00 0.01 0.02 0.04 0.07 0.13 0.23 0.28 0.33 0.38 0.40 0.42 0.40 0.35 0.29 0.26 0.21 0.16 0.11 0.07 0.05 0.02 0.01 0.00 0.00 0.00 0.00 0.00 0.00 0.00 0.00 0.00 0.01 0.01 0.01
0.00 0.00 0.00 0.00 0.00 0.00 0.00 0.00 0.00 0.00 0.00 0.00 0.00 0.00 0.01 0.01 0.02 0.04 0.06 0.09 0.15 0.24 0.33 0.38 0.40 0.40 0.36 0.32 0.26 0.20 0.17 0.13 0.09 0.05 0.03 0.02 0.00 0.00 0.00 0.00 0.00 0.00 0.00 0.00 0.00 0.00 0.01 0.01 0.01
0.00 0.00 0.00 0.00 0.00 0.00 0.00 0.00 0.00 0.00 0.00 0.00 0.00 0.01 0.01 0.01 0.02 0.03 0.05 0.07 0.11 0.17 0.24 0.26 0.26 0.27 0.25 0.19 0.15 0.13 0.10 0.08 0.05 0.03 0.02 0.01 0.00 0.00 0.00 0.00 0.00 0.00 0.00 0.00 0.00 0.00 0.00 0.00 0.01
0.00 0.00 0.00 0.00 0.00 0.00 0.00 0.00 0.00 0.00 0.00 0.00 0.00 0.00 0.01 0.02 0.03 0.05 0.05 0.06 0.08 0.09 0.12 0.15 0.14 0.12 0.11 0.08 0.07 0.05 0.04 0.03 0.02 0.01 0.00 0.00 0.00 0.00 0.00 0.00 0.00 0.00 0.00 0.00 0.00 0.00 0.00 0.01 0.01
0.00 0.00 0.00 0.00 0.00 0.00 0.00 0.00 0.01 0.00 0.00 0.00 0.00 0.00 0.01 0.03 0.04 0.05 0.05 0.06 0.06 0.06 0.07 0.08 0.07 0.06 0.05 0.03 0.03 0.02 0.02 0.01 0.01 0.01 0.00 0.00 0.00 0.00 0.00 0.00 0.00 0.00 0.00 0.00 0.00 0.00 0.00 0.01 0.02
0.00 0.00 0.00 0.00 0.00 0.00 0.00 0.01 0.00 0.01 0.01 0.01 0.00 0.01 0.02 0.04 0.07 0.08 0.07 0.04 0.03 0.04 0.05 0.05 0.05 0.04 0.03 0.03 0.02 0.02 0.02 0.01 0.01 0.00 0.00 0.00 0.00 0.00 0.00 0.00 0.00 0.00 0.00 0.00 0.00 0.00 0.01 0.02 0.03
0.00 0.00 0.00 0.00 0.00 0.00 0.00 0.00 0.00 0.00 0.00 0.01 0.01 0.02 0.03 0.07 0.11 0.11 0.08 0.03 0.02 0.03 0.04 0.05 0.06 0.05 0.04 0.04 0.03 0.02 0.01 0.01 0.00 0.00 0.00 0.00 0.00 0.00 0.00 0.00 0.00 0.00 0.00 0.00 0.01 0.01 0.02 0.03 0.04
0.00 0.00 0.00 0.00 0.00 0.00 0.00 0.00 0.00 0.00 0.02 0.04 0.05 0.05 0.08 0.11 0.12 0.10 0.07 0.03 0.02 0.03 0.04 0.06 0.06 0.05 0.05 0.04 0.03 0.02 0.01 0.00 0.00 0.00 0.00 0.00 0.00 0.00 0.00 0.00 0.00 0.00 0.00 0.01 0.02 0.03 0.03 0.04 0.05

GEFSSGP_prec_meanprecacc_030.txt.gz
Total_Precipitation_Accumulation
0.00 0.00 0.00 0.00 0.00 0.00 0.00 0.00 0.01 0.01 0.01 0.01 0.01 0.02 0.02 0.01 0.03 0.12 0.04 0.03 0.04 0.01 0.00 0.00 0.00 0.00 0.00 0.00 0.00 0.01 0.02 0.02 0.02 0.02 0.02 0.02 0.02 0.02 0.03 0.02 0.03 0.06 0.08 0.08 0.07 0.06 0.05 0.03 0.01
0.00 0.00 0.00 0.00 0.00 0.00 0.00 0.00 0.00 0.01 0.01 0.01 0.01 0.00 0.00 0.00 0.00 0.00 0.01 0.02 0.03 0.01 0.00 0.00 0.00 0.00 0.00 0.00 0.00 0.01 0.01 0.02 0.02 0.02 0.02 0.01 0.02 0.03 0.03 0.04 0.05 0.09 0.12 0.11 0.07 0.05 0.03 0.01 0.00
0.00 0.00 0.00 0.00 0.00 0.00 0.01 0.01 0.01 0.01 0.02 0.01 0.01 0.01 0.01 0.00 0.00 0.00 0.01 0.02 0.02 0.00 0.00 0.00 0.00 0.01 0.00 0.00 0.00 0.00 0.01 0.01 0.02 0.02 0.02 0.02 0.02 0.03 0.04 0.08 0.11 0.13 0.14 0.14 0.12 0.07 0.04 0.01 0.00
0.00 0.00 0.00 0.00 0.00 0.00 0.01 0.02 0.02 0.01 0.01 0.01 0.00 0.00 0.01 0.00 0.00 0.00 0.01 0.01 0.01 0.01 0.00 0.00 0.01 0.01 0.01 0.00 0.00 0.01 0.01 0.01 0.02 0.02 0.03 0.03 0.03 0.04 0.07 0.15 0.21 0.20 0.17 0.20 0.20 0.16 0.10 0.04 0.02
0.00 0.00 0.00 0.00 0.00 0.00 0.00 0.01 0.03 0.01 0.01 0.00 0.00 0.00 0.00 0.00 0.00 0.00 0.01 0.01 0.01 0.02 0.00 0.00 0.01 0.02 0.01 0.00 0.00 0.01 0.02 0.03 0.04 0.04 0.04 0.04 0.05 0.06 0.12 0.19 0.22 0.21 0.21 0.22 0.19 0.13 0.07 0.05 0.05
0.00 0.00 0.00 0.00 0.00 0.00 0.00 0.01 0.02 0.02 0.01 0.01 0.01 0.00 0.01 0.01 0.00 0.01 0.01 0.01 0.01 0.02 0.00 0.00 0.01 0.03 0.02 0.01 0.01 0.02 0.03 0.04 0.05 0.06 0.06 0.04 0.04 0.06 0.11 0.16 0.19 0.21 0.18 0.14 0.11 0.09 0.08 0.09 0.09
0.00 0.00 0.00 0.00 0.00 0.00 0.01 0.01 0.01 0.02 0.02 0.02 0.01 0.01 0.01 0.01 0.01 0.01 0.01 0.03 0.03 0.02 0.01 0.01 0.02 0.02 0.02 0.01 0.02 0.02 0.03 0.03 0.04 0.04 0.04 0.03 0.05 0.07 0.10 0.13 0.18 0.19 0.12 0.08 0.08 0.07 0.06 0.06 0.06
0.00 0.00 0.00 0.00 0.00 0.00 0.01 0.02 0.02 0.03 0.06 0.04 0.01 0.01 0.00 0.00 0.01 0.02 0.03 0.08 0.10 0.07 0.04 0.04 0.05 0.02 0.01 0.01 0.01 0.01 0.01 0.01 0.01 0.02 0.02 0.04 0.08 0.09 0.12 0.09 0.10 0.11 0.07 0.03 0.03 0.02 0.01 0.01 0.01
0.00 0.00 0.00 0.00 0.00 0.00 0.01 0.02 0.02 0.02 0.04 0.02 0.01 0.01 0.01 0.00 0.01 0.02 0.05 0.08 0.14 0.19 0.17 0.16 0.10 0.03 0.01 0.01 0.00 0.00 0.00 0.00 0.00 0.02 0.03 0.07 0.11 0.12 0.13 0.08 0.07 0.05 0.02 0.01 0.00 0.00 0.00 0.00 0.00
0.00 0.00 0.00 0.00 0.00 0.00 0.00 0.01 0.01 0.01 0.02 0.01 0.01 0.01 0.02 0.01 0.01 0.03 0.07 0.09 0.10 0.25 0.25 0.08 0.06 0.01 0.00 0.00 0.00 0.00 0.00 0.00 0.01 0.05 0.03 0.09 0.14 0.13 0.09 0.05 0.04 0.01 0.01 0.00 0.00 0.00 0.00 0.00 0.00
0.00 0.00 0.00 0.00 0.00 0.00 0.00 0.01 0.01 0.01 0.02 0.03 0.02 0.04 0.03 0.02 0.02 0.05 0.09 0.08 0.07 0.06 0.05 0.03 0.02 0.00 0.00 0.00 0.00 0.00 0.01 0.01 0.02 0.03 0.04 0.07 0.06 0.05 0.04 0.03 0.02 0.01 0.00 0.00 0.00 0.00 0.00 0.00 0.00
0.00 0.00 0.00 0.00 0.00 0.00 0.00 0.00 0.01 0.01 0.02 0.04 0.05 0.10 0.09 0.02 0.03 0.06 0.11 0.11 0.12 0.07 0.02 0.01 0.01 0.01 0.00 0.00 0.00 0.00 0.01 0.01 0.01 0.01 0.01 0.03 0.06 0.06 0.05 0.04 0.03 0.02 0.01 0.00 0.00 0.00 0.00 0.00 0.00
0.00 0.00 0.00 0.00 0.00 0.00 0.00 0.00 0.00 0.01 0.01 0.02 0.04 0.08 0.08 0.03 0.03 0.07 0.10 0.14 0.18 0.13 0.05 0.02 0.01 0.00 0.00 0.00 0.00 0.00 0.00 0.00 0.00 0.00 0.01 0.01 0.02 0.03 0.02 0.02 0.01 0.01 0.01 0.01 0.01 0.00 0.00 0.00 0.00
0.00 0.00 0.00 0.00 0.00 0.00 0.00 0.00 0.00 0.00 0.00 0.01 0.02 0.03 0.05 0.04 0.04 0.06 0.09 0.15 0.21 0.18 0.07 0.03 0.01 0.00 0.00 0.00 0.00 0.00 0.00 0.01 0.01 0.01 0.01 0.01 0.02 0.02 0.01 0.01 0.01 0.00 0.00 0.00 0.00 0.00 0.00 0.00 0.00
0.00 0.00 0.00 0.00 0.00 0.00 0.00 0.00 0.00 0.00 0.00 0.00 0.01 0.01 0.03 0.06 0.04 0.05 0.08 0.16 0.30 0.25 0.10 0.07 0.04 0.02 0.01 0.01 0.01 0.01 0.02 0.03 0.04 0.03 0.02 0.01 0.01 0.02 0.01 0.01 0.01 0.01 0.00 0.00 0.00 0.00 0.00 0.00 0.00
0.00 0.00 0.00 0.00 0.00 0.00 0.00 0.00 0.00 0.00 0.00 0.00 0.00 0.00 0.01 0.03 0.04 0.04 0.07 0.19 0.33 0.29 0.21 0.14 0.06 0.05 0.03 0.02 0.01 0.01 0.02 0.04 0.04 0.04 0.02 0.01 0.01 0.00 0.00 0.01 0.01 0.01 0.00 0.00 0.00 0.00 0.00 0.01 0.01
0.00 0.00 0.00 0.00 0.00 0.00 0.00 0.00 0.00 0.00 0.00 0.00 0.00 0.00 0.01 0.03 0.04 0.05 0.07 0.13 0.23 0.28 0.21 0.12 0.09 0.06 0.04 0.03 0.01 0.02 0.04 0.05 0.05 0.04 0.02 0.01 0.01 0.00 0.01 0.01 0.01 0.01 0.01 0.01 0.02 0.04 0.05 0.05 0.04
0.00 0.00 0.00 0.00 0.00 0.00 0.00 0.00 0.00 0.00 0.00 0.00 0.00 0.00 0.00 0.01 0.02 0.04 0.06 0.11 0.26 0.35 0.28 0.21 0.14 0.07 0.06 0.06 0.03 0.03 0.03 0.04 0.03 0.04 0.04 0.03 0.03 0.03 0.03 0.03 0.03 0.04 0.05 0.06 0.09 0.10 0.08 0.06 0.05
0.00 0.00 0.00 0.00 0.00 0.00 0.00 0.00 0.00 0.00 0.00 0.00 0.00 0.00 0.00 0.00 0.01 0.04 0.11 0.27 0.46 0.46 0.36 0.24 0.17 0.16 0.14 0.11 0.07 0.06 0.04 0.04 0.05 0.07 0.10 0.11 0.10 0.09 0.09 0.10 0.11 0.10 0.09 0.08 0.07 0.06 0.04 0.03 0.02
0.00 0.00 0.00 0.00 0.00 0.00 0.00 0.00 0.00 0.00 0.00 0.00 0.00 0.00 0.00 0.01 0.02 0.05 0.12 0.31 0.46 0.46 0.38 0.31 0.33 0.30 0.23 0.21 0.18 0.13 0.10 0.11 0.14 0.18 0.19 0.17 0.15 0.12 0.10 0.09 0.08 0.07 0.05 0.04 0.04 0.02 0.02 0.02 0.02
0.00 0.00 0.00 0.00 0.00 0.00 0.00 0.00 0.00 0.00 0.00 0.00 0.00 0.00 0.00 0.01 0.03 0.05 0.10 0.17 0.31 0.43 0.45 0.45 0.51 0.52 0.47 0.45 0.37 0.31 0.29 0.30 0.31 0.30 0.27 0.22 0.18 0.14 0.12 0.08 0.05 0.03 0.02 0.01 0.01 0.00 0.01 0.01 0.01
0.00 0.00 0.00 0.00 0.00 0.00 0.00 0.00 0.00 0.00 0.00 0.00 0.00 0.00 0.00 0.01 0.02 0.04 0.08 0.14 0.23 0.35 0.41 0.46 0.54 0.69 0.81 0.90 0.84 0.72 0.58 0.49 0.45 0.41 0.34 0.26 0.18 0.12 0.08 0.05 0.03 0.02 0.00 0.00 0.00 0.00 0.00 0.01 0.01
0.00 0.00 0.00 0.00 0.00 0.00 0.00 0.00 0.00 0.00 0.00 0.00 0.00 0.00 0.00 0.01 0.02 0.04 0.08 0.15 0.28 0.37 0.50 0.61 0.72 0.88 1.01 1.04 1.02 0.91 0.72 0.61 0.54 0.46 0.34 0.21 0.12 0.08 0.06 0.05 0.04 0.02 0.01 0.00 0.00 0.00 0.01 0.01 0.01
0.00 0.00 0.00 0.00 0.00 0.00 0.00 0.00 0.00 0.00 0.00 0.00 0.00 0.00 0.01 0.01 0.02 0.04 0.07 0.14 0.26 0.42 0.58 0.70 0.77 0.86 0.91 0.87 0.76 0.63 0.58 0.51 0.43 0.33 0.23 0.14 0.09 0.06 0.04 0.03 0.03 0.01 0.00 0.00 0.00 0.00 0.01 0.01 0.01
0.00 0.00 0.00 0.00 0.00 0.00 0.00 0.00 0.00 0.00 0.00 0.00 0.00 0.01 0.01 0.01 0.02 0.05 0.10 0.17 0.26 0.39 0.51 0.55 0.56 0.55 0.54 0.48 0.43 0.37 0.33 0.27 0.20 0.16 0.13 0.08 0.04 0.03 0.02 0.02 0.01 0.01 0.00 0.00 0.00 0.00 0.00 0.00 0.01
0.00 0.00 0.00 0.00 0.00 0.00 0.00 0.00 0.00 0.00 0.00 0.00 0.00 0.01 0.02 0.03 0.05 0.08 0.12 0.18 0.25 0.30 0.34 0.35 0.31 0.25 0.20 0.17 0.18 0.17 0.14 0.12 0.10 0.07 0.05 0.03 0.02 0.01 0.01 0.01 0.00 0.00 0.00 0.00 0.00 0.00 0.00 0.01 0.01
0.00 0.00 0.00 0.00 0.00 0.00 0.00 0.00 0.01 0.00 0.00 0.00 0.01 0.02 0.04 0.07 0.09 0.13 0.17 0.21 0.23 0.23 0.22 0.18 0.13 0.11 0.08 0.06 0.07 0.06 0.06 0.06 0.05 0.04 0.02 0.02 0.01 0.01 0.00 0.00 0.00 0.00 0.00 0.00 0.00 0.00 0.00 0.01 0.02
0.00 0.00 0.00 0.00 0.00 0.00 0.00 0.01 0.01 0.01 0.02 0.01 0.01 0.03 0.05 0.09 0.13 0.18 0.20 0.19 0.17 0.15 0.13 0.10 0.09 0.07 0.05 0.04 0.04 0.04 0.04 0.04 0.03 0.02 0.01 0.01 0.01 0.00 0.00 0.00 0.00 0.00 0.00 0.00 0.00 0.00 0.01 0.02 0.03
0.00 0.00 0.00 0.00 0.00 0.00 0.00 0.00 0.00 0.00 0.01 0.01 0.02 0.04 0.08 0.13 0.20 0.25 0.24 0.17 0.12 0.11 0.10 0.09 0.09 0.06 0.05 0.05 0.05 0.05 0.04 0.03 0.02 0.01 0.01 0.01 0.00 0.00 0.00 0.00 0.00 0.00 0.00 0.00 0.01 0.02 0.02 0.03 0.04
0.00 0.00 0.00 0.00 0.00 0.00 0.00 0.00 0.01 0.01 0.03 0.05 0.07 0.11 0.18 0.27 0.33 0.33 0.27 0.17 0.10 0.08 0.07 0.07 0.07 0.06 0.06 0.06 0.05 0.04 0.03 0.02 0.01 0.01 0.01 0.01 0.00 0.00 0.00 0.00 0.00 0.00 0.00 0.01 0.02 0.03 0.03 0.05 0.05

GEFSSGP_prec_meanprecacc_036.txt.gz
Total_Precipitation_Accumulation
0.00 0.00 0.00 0.00 0.00 0.00 0.00 0.00 0.01 0.01 0.01 0.01 0.02 0.02 0.02 0.01 0.04 0.12 0.04 0.03 0.04 0.01 0.00 0.00 0.00 0.01 0.01 0.00 0.00 0.01 0.02 0.02 0.02 0.02 0.02 0.02 0.02 0.02 0.03 0.02 0.03 0.06 0.08 0.08 0.07 0.06 0.05 0.03 0.01
0.00 0.00 0.00 0.00 0.00 0.00 0.00 0.00 0.01 0.01 0.01 0.01 0.01 0.01 0.00 0.00 0.00 0.00 0.01 0.02 0.03 0.01 0.00 0.00 0.00 0.01 0.01 0.00 0.00 0.01 0.01 0.02 0.02 0.02 0.02 0.01 0.02 0.03 0.03 0.04 0.05 0.09 0.12 0.11 0.07 0.05 0.03 0.01 0.00
0.00 0.00 0.00 0.00 0.00 0.00 0.01 0.01 0.01 0.01 0.02 0.02 0.02 0.01 0.01 0.00 0.00 0.00 0.01 0.02 0.02 0.00 0.00 0.00 0.01 0.01 0.01 0.00 0.00 0.00 0.01 0.01 0.02 0.02 0.02 0.02 0.02 0.03 0.04 0.08 0.11 0.13 0.14 0.14 0.12 0.07 0.04 0.01 0.00
0.00 0.00 0.00 0.00 0.00 0.00 0.01 0.02 0.02 0.01 0.02 0.02 0.01 0.01 0.01 0.00 0.00 0.00 0.01 0.01 0.01 0.01 0.00 0.00 0.01 0.01 0.01 0.00 0.00 0.01 0.01 0.01 0.02 0.02 0.03 0.03 0.03 0.04 0.07 0.15 0.21 0.20 0.17 0.20 0.20 0.16 0.10 0.04 0.02
0.00 0.00 0.00 0.00 0.00 0.00 0.00 0.01 0.03 0.01 0.01 0.01 0.01 0.01 0.01 0.00 0.00 0.00 0.01 0.01 0.01 0.02 0.00 0.00 0.01 0.02 0.01 0.00 0.01 0.01 0.02 0.03 0.04 0.04 0.04 0.04 0.05 0.06 0.12 0.19 0.22 0.21 0.21 0.22 0.19 0.13 0.07 0.05 0.05
0.00 0.00 0.00 0.00 0.00 0.00 0.00 0.01 0.02 0.02 0.01 0.01 0.01 0.01 0.01 0.01 0.01 0.01 0.01 0.01 0.01 0.02 0.00 0.00 0.01 0.03 0.02 0.01 0.01 0.02 0.03 0.04 0.05 0.06 0.06 0.04 0.04 0.06 0.11 0.16 0.19 0.21 0.18 0.14 0.12 0.09 0.08 0.09 0.09
0.00 0.00 0.00 0.00 0.00 0.00 0.01 0.01 0.02 0.02 0.02 0.02 0.01 0.01 0.01 0.01 0.01 0.01 0.01 0.03 0.03 0.02 0.01 0.01 0.02 0.02 0.02 0.01 0.02 0.02 0.03 0.03 0.04 0.04 0.04 0.03 0.05 0.07 0.10 0.13 0.18 0.19 0.12 0.08 0.08 0.07 0.06 0.06 0.06
0.00 0.00 0.00 0.00 0.00 0.00 0.01 0.02 0.02 0.03 0.06 0.04 0.01 0.01 0.01 0.01 0.01 0.02 0.03 0.08 0.10 0.07 0.04 0.04 0.05 0.02 0.01 0.01 0.01 0.01 0.01 0.01 0.01 0.02 0.02 0.04 0.08 0.09 0.12 0.09 0.10 0.11 0.07 0.04 0.03 0.02 0.01 0.01 0.01
0.00 0.00 0.00 0.00 0.00 0.00 0.01 0.02 0.03 0.03 0.04 0.02 0.01 0.01 0.01 0.00 0.01 0.02 0.05 0.08 0.14 0.19 0.18 0.16 0.10 0.03 0.01 0.01 0.00 0.00 0.00 0.00 0.00 0.02 0.03 0.07 0.11 0.12 0.13 0.08 0.07 0.05 0.02 0.01 0.00 0.00 0.00 0.00 0.00
0.00 0.00 0.00 0.00 0.00 0.00 0.00 0.02 0.02 0.02 0.02 0.01 0.01 0.01 0.02 0.01 0.01 0.03 0.07 0.09 0.10 0.25 0.25 0.08 0.06 0.01 0.00 0.00 0.00 0.00 0.00 0.00 0.01 0.05 0.03 0.09 0.14 0.13 0.09 0.05 0.04 0.01 0.01 0.00 0.00 0.00 0.00 0.00 0.00
0.00 0.00 0.00 0.00 0.00 0.00 0.00 0.01 0.02 0.02 0.03 0.03 0.02 0.04 0.03 0.02 0.02 0.05 0.09 0.09 0.07 0.06 0.05 0.03 0.02 0.00 0.00 0.00 0.00 0.00 0.01 0.01 0.02 0.03 0.04 0.07 0.06 0.05 0.04 0.03 0.02 0.01 0.00 0.00 0.00 0.00 0.00 0.00 0.00
0.00 0.00 0.00 0.00 0.00 0.00 0.00 0.00 0.01 0.02 0.02 0.04 0.05 0.10 0.09 0.02 0.03 0.06 0.11 0.11 0.12 0.07 0.03 0.01 0.01 0.01 0.00 0.00 0.00 0.00 0.01 0.01 0.01 0.01 0.01 0.03 0.06 0.06 0.05 0.04 0.03 0.02 0.01 0.00 0.00 0.00 0.00 0.00 0.00
0.00 0.00 0.00 0.00 0.00 0.00 0.00 0.00 0.00 0.01 0.01 0.02 0.04 0.08 0.08 0.03 0.03 0.07 0.10 0.14 0.18 0.14 0.05 0.02 0.01 0.00 0.00 0.00 0.00 0.00 0.00 0.00 0.00 0.00 0.01 0.01 0.02 0.03 0.02 0.02 0.01 0.01 0.01 0.01 0.01 0.00 0.00 0.00 0.00
0.00 0.00 0.00 0.00 0.00 0.00 0.00 0.00 0.00 0.00 0.00 0.01 0.02 0.03 0.05 0.04 0.04 0.06 0.09 0.16 0.21 0.18 0.07 0.04 0.02 0.01 0.00 0.00 0.00 0.00 0.00 0.01 0.01 0.01 0.01 0.01 0.02 0.02 0.01 0.01 0.01 0.01 0.00 0.00 0.00 0.00 0.00 0.00 0.00
0.00 0.00 0.00 0.00 0.00 0.00 0.00 0.00 0.00 0.00 0.00 0.00 0.01 0.01 0.03 0.06 0.04 0.05 0.08 0.16 0.30 0.25 0.11 0.08 0.04 0.03 0.02 0.01 0.01 0.01 0.02 0.03 0.04 0.03 0.02 0.01 0.01 0.02 0.01 0.02 0.02 0.02 0.01 0.01 0.02 0.02 0.01 0.01 0.01
0.00 0.00 0.00 0.00 0.00 0.00 0.00 0.00 0.00 0.00 0.00 0.00 0.00 0.00 0.01 0.03 0.04 0.04 0.07 0.19 0.33 0.29 0.22 0.15 0.06 0.05 0.04 0.02 0.01 0.01 0.02 0.04 0.04 0.04 0.02 0.01 0.01 0.01 0.03 0.05 0.08 0.07 0.06 0.06 0.05 0.05 0.03 0.03 0.02
0.00 0.00 0.00 0.00 0.00 0.00 0.00 0.00 0.00 0.00 0.00 0.00 0.00 0.00 0.01 0.03 0.04 0.05 0.07 0.13 0.23 0.28 0.22 0.12 0.09 0.06 0.04 0.03 0.02 0.03 0.04 0.06 0.05 0.05 0.04 0.03 0.05 0.08 0.12 0.17 0.18 0.15 0.12 0.11 0.10 0.10 0.09 0.07 0.06
0.00 0.00 0.00 0.00 0.00 0.00 0.00 0.00 0.00 0.00 0.00 0.00 0.00 0.00 0.00 0.01 0.02 0.04 0.06 0.11 0.26 0.35 0.29 0.22 0.14 0.07 0.08 0.08 0.07 0.07 0.07 0.08 0.10 0.13 0.16 0.18 0.22 0.26 0.29 0.29 0.27 0.22 0.18 0.18 0.18 0.16 0.13 0.09 0.07
0.00 0.00 0.00 0.00 0.00 0.00 0.00 0.00 0.00 0.00 0.00 0.00 0.00 0.00 0.00 0.00 0.01 0.04 0.11 0.27 0.46 0.46 0.36 0.24 0.17 0.18 0.19 0.19 0.18 0.20 0.21 0.30 0.42 0.49 0.49 0.51 0.51 0.49 0.46 0.42 0.36 0.28 0.23 0.19 0.15 0.12 0.08 0.06 0.04
0.00 0.00 0.00 0.00 0.00 0.00 0.00 0.00 0.00 0.00 0.00 0.00 0.00 0.00 0.00 0.01 0.02 0.05 0.12 0.31 0.46 0.46 0.38 0.33 0.36 0.37 0.37 0.43 0.49 0.56 0.65 0.78 0.86 0.94 0.96 0.91 0.77 0.65 0.56 0.45 0.34 0.25 0.18 0.14 0.10 0.07 0.04 0.03 0.03
0.00 0.00 0.00 0.00 0.00 0.00 0.00 0.00 0.00 0.00 0.00 0.00 0.00 0.00 0.00 0.01 0.03 0.05 0.10 0.17 0.31 0.43 0.47 0.49 0.58 0.66 0.72 0.84 0.91 0.98 1.14 1.25 1.24 1.17 1.08 1.01 0.89 0.74 0.59 0.43 0.30 0.20 0.14 0.09 0.06 0.03 0.02 0.02 0.01
0.00 0.00 0.00 0.00 0.00 0.00 0.00 0.00 0.00 0.00 0.00 0.00 0.00 0.00 0.00 0.01 0.02 0.04 0.08 0.14 0.23 0.35 0.44 0.52 0.65 0.90 1.21 1.52 1.70 1.72 1.69 1.60 1.42 1.24 1.08 0.93 0.81 0.67 0.51 0.38 0.25 0.16 0.09 0.04 0.02 0.01 0.01 0.01 0.01
0.00 0.00 0.00 0.00 0.00 0.00 0.00 0.00 0.00 0.00 0.00 0.00 0.00 0.00 0.00 0.01 0.02 0.04 0.08 0.15 0.29 0.40 0.55 0.71 0.91 1.24 1.57 1.80 1.94 1.96 1.82 1.58 1.31 1.07 0.86 0.68 0.55 0.46 0.36 0.26 0.17 0.10 0.05 0.03 0.01 0.01 0.01 0.01 0.01
0.00 0.00 0.00 0.00 0.00 0.00 0.00 0.00 0.00 0.00 0.00 0.00 0.00 0.01 0.01 0.01 0.02 0.04 0.08 0.15 0.28 0.47 0.68 0.86 1.06 1.36 1.60 1.68 1.72 1.62 1.50 1.25 0.95 0.69 0.52 0.41 0.34 0.27 0.21 0.16 0.12 0.07 0.04 0.02 0.01 0.01 0.01 0.01 0.01
0.00 0.00 0.00 0.00 0.00 0.00 0.00 0.00 0.00 0.00 0.01 0.01 0.01 0.01 0.02 0.02 0.03 0.06 0.11 0.19 0.32 0.48 0.68 0.81 0.96 1.13 1.25 1.30 1.34 1.19 0.97 0.75 0.56 0.43 0.34 0.27 0.22 0.18 0.14 0.09 0.05 0.03 0.01 0.01 0.01 0.01 0.00 0.01 0.01
0.00 0.00 0.00 0.00 0.00 0.00 0.00 0.00 0.00 0.01 0.01 0.01 0.01 0.02 0.03 0.04 0.07 0.11 0.16 0.23 0.35 0.45 0.58 0.68 0.73 0.77 0.75 0.70 0.65 0.57 0.47 0.36 0.30 0.25 0.20 0.17 0.12 0.08 0.05 0.03 0.02 0.02 0.01 0.01 0.00 0.00 0.00 0.01 0.01
0.00 0.00 0.00 0.00 0.00 0.00 0.00 0.00 0.01 0.02 0.02 0.02 0.02 0.03 0.05 0.08 0.11 0.16 0.21 0.27 0.32 0.36 0.39 0.39 0.37 0.37 0.32 0.26 0.24 0.21 0.18 0.17 0.16 0.14 0.10 0.07 0.05 0.03 0.02 0.01 0.01 0.01 0.00 0.00 0.00 0.00 0.00 0.01 0.02
0.00 0.00 0.00 0.00 0.00 0.00 0.00 0.01 0.01 0.02 0.03 0.03 0.02 0.04 0.07 0.10 0.15 0.20 0.24 0.25 0.23 0.22 0.19 0.17 0.17 0.16 0.13 0.11 0.10 0.09 0.08 0.07 0.07 0.06 0.04 0.03 0.03 0.01 0.01 0.01 0.00 0.00 0.00 0.00 0.00 0.00 0.01 0.02 0.03
0.00 0.00 0.00 0.00 0.00 0.00 0.00 0.00 0.01 0.02 0.03 0.03 0.04 0.05 0.09 0.15 0.22 0.27 0.27 0.20 0.14 0.12 0.11 0.11 0.11 0.09 0.07 0.07 0.06 0.06 0.05 0.04 0.03 0.02 0.02 0.02 0.01 0.01 0.01 0.00 0.00 0.00 0.00 0.00 0.01 0.02 0.02 0.03 0.04
0.00 0.00 0.00 0.00 0.00 0.00 0.00 0.01 0.02 0.03 0.05 0.07 0.09 0.12 0.19 0.29 0.34 0.34 0.28 0.18 0.11 0.08 0.08 0.08 0.08 0.07 0.07 0.06 0.05 0.04 0.04 0.03 0.02 0.02 0.01 0.01 0.01 0.01 0.01 0.01 0.00 0.00 0.00 0.01 0.02 0.03 0.03 0.05 0.05

GEFSSGP_prec_meanprecacc_042.txt.gz
Total_Precipitation_Accumulation
0.00 0.00 0.00 0.00 0.00 0.00 0.00 0.00 0.01 0.01 0.01 0.01 0.02 0.02 0.02 0.01 0.04 0.13 0.04 0.03 0.04 0.01 0.00 0.00 0.01 0.01 0.01 0.01 0.01 0.01 0.02 0.02 0.02 0.02 0.02 0.02 0.02 0.03 0.03 0.03 0.04 0.07 0.09 0.08 0.07 0.06 0.05 0.03 0.01
0.00 0.00 0.00 0.00 0.00 0.00 0.00 0.00 0.01 0.01 0.01 0.01 0.01 0.01 0.00 0.00 0.00 0.00 0.01 0.02 0.03 0.01 0.00 0.00 0.00 0.01 0.01 0.00 0.01 0.01 0.01 0.02 0.02 0.02 0.02 0.01 0.02 0.03 0.04 0.04 0.06 0.10 0.13 0.11 0.07 0.05 0.03 0.01 0.00
0.00 0.00 0.00 0.00 0.00 0.00 0.01 0.01 0.01 0.01 0.02 0.02 0.02 0.01 0.01 0.00 0.00 0.00 0.01 0.02 0.02 0.00 0.00 0.00 0.01 0.01 0.01 0.00 0.00 0.00 0.01 0.01 0.02 0.02 0.02 0.02 0.03 0.03 0.05 0.08 0.12 0.14 0.14 0.15 0.12 0.07 0.04 0.01 0.00
0.00 0.00 0.00 0.00 0.00 0.00 0.01 0.02 0.02 0.01 0.02 0.02 0.01 0.01 0.01 0.00 0.00 0.00 0.01 0.01 0.01 0.01 0.00 0.00 0.01 0.01 0.01 0.01 0.00 0.01 0.01 0.01 0.02 0.02 0.03 0.03 0.03 0.04 0.07 0.15 0.21 0.20 0.18 0.21 0.20 0.16 0.10 0.04 0.02
0.00 0.00 0.00 0.00 0.00 0.00 0.00 0.01 0.03 0.01 0.01 0.01 0.01 0.01 0.01 0.00 0.00 0.00 0.01 0.01 0.01 0.02 0.00 0.00 0.01 0.02 0.01 0.01 0.01 0.01 0.02 0.03 0.04 0.04 0.04 0.04 0.05 0.06 0.12 0.20 0.22 0.22 0.22 0.23 0.19 0.13 0.07 0.05 0.05
0.00 0.00 0.00 0.00 0.00 0.00 0.00 0.01 0.02 0.02 0.01 0.01 0.01 0.01 0.01 0.01 0.01 0.01 0.01 0.01 0.01 0.02 0.00 0.00 0.01 0.03 0.02 0.01 0.01 0.02 0.03 0.04 0.05 0.06 0.06 0.04 0.04 0.06 0.12 0.16 0.20 0.22 0.19 0.15 0.12 0.09 0.08 0.09 0.09
0.00 0.00 0.00 0.00 0.00 0.00 0.01 0.01 0.02 0.02 0.02 0.02 0.01 0.01 0.01 0.01 0.01 0.01 0.01 0.03 0.03 0.02 0.01 0.01 0.02 0.02 0.02 0.01 0.02 0.02 0.03 0.03 0.04 0.04 0.04 0.03 0.05 0.07 0.10 0.14 0.20 0.21 0.13 0.09 0.08 0.07 0.06 0.06 0.06
0.00 0.00 0.00 0.00 0.00 0.00 0.01 0.02 0.02 0.03 0.06 0.04 0.01 0.01 0.01 0.01 0.01 0.02 0.03 0.08 0.10 0.07 0.04 0.04 0.05 0.02 0.01 0.01 0.01 0.01 0.01 0.01 0.01 0.02 0.02 0.04 0.08 0.09 0.12 0.10 0.12 0.12 0.08 0.04 0.03 0.02 0.01 0.01 0.01
0.00 0.00 0.00 0.00 0.00 0.00 0.01 0.02 0.03 0.03 0.04 0.02 0.01 0.01 0.01 0.00 0.01 0.02 0.05 0.08 0.14 0.19 0.18 0.16 0.10 0.03 0.01 0.01 0.00 0.00 0.00 0.00 0.00 0.02 0.03 0.07 0.11 0.12 0.13 0.08 0.08 0.05 0.03 0.01 0.01 0.00 0.00 0.00 0.00
0.00 0.00 0.00 0.00 0.00 0.00 0.00 0.02 0.02 0.02 0.02 0.01 0.01 0.01 0.02 0.01 0.01 0.03 0.07 0.09 0.10 0.25 0.25 0.08 0.06 0.01 0.00 0.00 0.00 0.00 0.00 0.00 0.01 0.05 0.03 0.09 0.14 0.14 0.10 0.06 0.04 0.02 0.01 0.01 0.00 0.00 0.00 0.00 0.00
0.00 0.00 0.00 0.00 0.00 0.00 0.00 0.01 0.02 0.02 0.03 0.03 0.02 0.04 0.03 0.02 0.02 0.05 0.09 0.09 0.07 0.06 0.05 0.03 0.02 0.00 0.00 0.00 0.00 0.00 0.01 0.01 0.02 0.03 0.04 0.08 0.07 0.05 0.05 0.04 0.03 0.02 0.01 0.01 0.01 0.00 0.00 0.00 0.00
0.00 0.00 0.00 0.00 0.00 0.00 0.00 0.00 0.01 0.02 0.02 0.04 0.05 0.10 0.09 0.02 0.03 0.06 0.11 0.11 0.12 0.07 0.03 0.01 0.01 0.01 0.00 0.00 0.00 0.00 0.01 0.01 0.01 0.01 0.01 0.03 0.06 0.06 0.06 0.05 0.04 0.04 0.03 0.02 0.01 0.00 0.00 0.00 0.00
0.00 0.00 0.00 0.00 0.00 0.00 0.00 0.00 0.00 0.01 0.02 0.02 0.04 0.08 0.08 0.03 0.03 0.07 0.10 0.14 0.18 0.14 0.05 0.02 0.01 0.00 0.00 0.00 0.00 0.00 0.00 0.00 0.00 0.00 0.01 0.02 0.03 0.03 0.03 0.03 0.03 0.03 0.02 0.02 0.01 0.00 0.00 0.00 0.00
0.00 0.00 0.00 0.00 0.00 0.00 0.00 0.00 0.00 0.00 0.00 0.01 0.02 0.03 0.05 0.04 0.04 0.06 0.09 0.16 0.21 0.18 0.07 0.04 0.02 0.01 0.01 0.01 0.00 0.00 0.00 0.01 0.01 0.01 0.01 0.01 0.02 0.04 0.03 0.03 0.04 0.04 0.03 0.03 0.02 0.01 0.01 0.01 0.00
0.00 0.00 0.00 0.00 0.00 0.00 0.00 0.00 0.00 0.00 0.00 0.00 0.01 0.01 0.03 0.06 0.04 0.05 0.08 0.16 0.30 0.25 0.11 0.08 0.04 0.03 0.02 0.01 0.01 0.01 0.02 0.03 0.04 0.04 0.03 0.02 0.02 0.04 0.05 0.07 0.08 0.07 0.06 0.06 0.05 0.05 0.03 0.02 0.02
0.00 0.00 0.00 0.00 0.00 0.00 0.00 0.00 0.00 0.00 0.00 0.00 0.00 0.00 0.01 0.03 0.04 0.04 0.07 0.19 0.33 0.29 0.22 0.15 0.06 0.05 0.04 0.02 0.01 0.01 0.03 0.04 0.06 0.06 0.05 0.03 0.05 0.07 0.11 0.15 0.19 0.18 0.16 0.16 0.16 0.14 0.11 0.08 0.06
0.00 0.00 0.00 0.00 0.00 0.00 0.00 0.00 0.00 0.00 0.00 0.00 0.00 0.00 0.01 0.03 0.04 0.05 0.07 0.13 0.23 0.28 0.22 0.12 0.09 0.06 0.05 0.04 0.03 0.04 0.06 0.08 0.08 0.09 0.09 0.11 0.16 0.22 0.30 0.38 0.38 0.34 0.30 0.28 0.26 0.25 0.21 0.17 0.14
0.00 0.00 0.00 0.00 0.00 0.00 0.00 0.00 0.00 0.00 0.00 0.00 0.00 0.00 0.00 0.01 0.02 0.04 0.06 0.11 0.26 0.35 0.29 0.22 0.14 0.08 0.10 0.11 0.11 0.12 0.13 0.17 0.20 0.25 0.33 0.40 0.50 0.57 0.61 0.61 0.56 0.47 0.41 0.39 0.38 0.34 0.29 0.22 0.17
0.00 0.00 0.00 0.00 0.00 0.00 0.00 0.00 0.00 0.00 0.00 0.00 0.00 0.00 0.00 0.00 0.01 0.04 0.11 0.27 0.46 0.46 0.36 0.25 0.18 0.20 0.24 0.29 0.32 0.44 0.50 0.59 0.77 0.91 0.99 1.03 1.04 0.99 0.95 0.87 0.77 0.64 0.56 0.48 0.38 0.30 0.23 0.18 0.14
0.00 0.00 0.00 0.00 0.00 0.00 0.00 0.00 0.00 0.00 0.00 0.00 0.00 0.00 0.00 0.01 0.02 0.05 0.12 0.31 0.46 0.46 0.39 0.35 0.38 0.41 0.45 0.61 0.81 1.01 1.20 1.39 1.58 1.70 1.70 1.63 1.49 1.35 1.21 1.07 0.92 0.74 0.60 0.48 0.37 0.27 0.19 0.13 0.10
0.00 0.00 0.00 0.00 0.00 0.00 0.00 0.00 0.00 0.00 0.00 0.00 0.00 0.00 0.00 0.01 0.03 0.05 0.10 0.17 0.32 0.43 0.47 0.51 0.62 0.72 0.82 1.04 1.27 1.54 1.85 2.06 2.06 1.95 1.85 1.74 1.59 1.43 1.24 1.05 0.90 0.76 0.59 0.45 0.33 0.22 0.14 0.09 0.06
0.00 0.00 0.00 0.00 0.00 0.00 0.00 0.00 0.00 0.00 0.00 0.00 0.00 0.00 0.00 0.01 0.02 0.04 0.08 0.14 0.23 0.35 0.44 0.54 0.69 0.96 1.29 1.67 1.98 2.18 2.29 2.29 2.11 1.87 1.66 1.42 1.23 1.10 0.96 0.87 0.79 0.64 0.47 0.34 0.23 0.15 0.09 0.06 0.04
0.00 0.00 0.00 0.00 0.00 0.00 0.00 0.00 0.00 0.00 0.00 0.00 0.00 0.01 0.01 0.01 0.03 0.04 0.08 0.15 0.29 0.40 0.55 0.73 0.95 1.29 1.64 1.94 2.16 2.30 2.23 2.00 1.71 1.43 1.15 0.90 0.75 0.71 0.67 0.60 0.49 0.36 0.26 0.20 0.14 0.09 0.07 0.05 0.04
0.00 0.00 0.00 0.00 0.00 0.00 0.00 0.00 0.00 0.00 0.00 0.00 0.01 0.02 0.02 0.02 0.03 0.05 0.09 0.16 0.29 0.48 0.69 0.88 1.09 1.41 1.69 1.80 1.89 1.84 1.74 1.52 1.21 0.92 0.68 0.53 0.45 0.39 0.33 0.29 0.25 0.20 0.14 0.11 0.09 0.06 0.05 0.03 0.03
0.00 0.00 0.00 0.00 0.00 0.00 0.00 0.00 0.00 0.01 0.02 0.01 0.02 0.03 0.04 0.04 0.04 0.07 0.13 0.21 0.33 0.50 0.70 0.84 0.99 1.18 1.33 1.42 1.48 1.34 1.12 0.91 0.72 0.55 0.42 0.33 0.28 0.25 0.21 0.15 0.11 0.08 0.06 0.05 0.04 0.03 0.02 0.02 0.02
0.00 0.00 0.00 0.00 0.00 0.00 0.00 0.00 0.01 0.03 0.03 0.03 0.03 0.03 0.05 0.06 0.09 0.13 0.18 0.25 0.38 0.48 0.61 0.72 0.78 0.83 0.84 0.81 0.77 0.69 0.59 0.48 0.38 0.30 0.23 0.19 0.15 0.12 0.09 0.06 0.05 0.04 0.03 0.02 0.02 0.01 0.01 0.01 0.01
0.00 0.00 0.00 0.00 0.00 0.00 0.00 0.00 0.02 0.05 0.04 0.03 0.03 0.04 0.07 0.11 0.14 0.18 0.24 0.30 0.35 0.39 0.43 0.43 0.41 0.42 0.39 0.33 0.30 0.27 0.23 0.20 0.18 0.15 0.11 0.08 0.06 0.05 0.04 0.03 0.02 0.02 0.01 0.01 0.01 0.01 0.01 0.01 0.02
0.00 0.00 0.00 0.00 0.00 0.00 0.00 0.01 0.01 0.04 0.05 0.04 0.04 0.06 0.09 0.13 0.17 0.23 0.26 0.27 0.25 0.24 0.22 0.20 0.19 0.18 0.15 0.13 0.11 0.10 0.09 0.08 0.07 0.06 0.05 0.04 0.03 0.02 0.01 0.01 0.01 0.01 0.01 0.01 0.01 0.01 0.01 0.02 0.03
0.00 0.00 0.00 0.00 0.00 0.00 0.00 0.00 0.01 0.03 0.05 0.05 0.06 0.07 0.11 0.17 0.25 0.29 0.29 0.21 0.16 0.14 0.12 0.11 0.12 0.10 0.08 0.07 0.07 0.06 0.05 0.04 0.03 0.03 0.02 0.02 0.01 0.01 0.01 0.01 0.00 0.00 0.01 0.01 0.01 0.02 0.02 0.03 0.04
0.00 0.00 0.00 0.00 0.00 0.00 0.00 0.02 0.02 0.05 0.07 0.09 0.10 0.14 0.21 0.31 0.36 0.36 0.30 0.19 0.12 0.09 0.08 0.08 0.08 0.07 0.07 0.06 0.05 0.04 0.04 0.03 0.02 0.02 0.01 0.01 0.01 0.01 0.01 0.01 0.01 0.01 0.01 0.01 0.02 0.03 0.03 0.05 0.05

GEFSSGP_prec_meanprecacc_048.txt.gz
Total_Precipitation_Accumulation
0.00 0.00 0.00 0.00 0.00 0.00 0.00 0.00 0.01 0.01 0.01 0.01 0.02 0.02 0.02 0.01 0.04 0.19 0.05 0.03 0.04 0.01 0.00 0.00 0.01 0.01 0.01 0.01 0.02 0.04 0.05 0.06 0.06 0.05 0.05 0.05 0.05 0.06 0.06 0.05 0.06 0.09 0.11 0.10 0.08 0.07 0.05 0.03 0.01
0.00 0.00 0.00 0.00 0.00 0.00 0.00 0.00 0.01 0.01 0.01 0.01 0.01 0.01 0.00 0.00 0.00 0.01 0.01 0.02 0.03 0.01 0.00 0.00 0.00 0.01 0.01 0.01 0.02 0.03 0.05 0.05 0.05 0.04 0.04 0.04 0.05 0.05 0.06 0.06 0.08 0.12 0.14 0.12 0.08 0.05 0.03 0.01 0.00
0.00 0.00 0.00 0.00 0.00 0.00 0.01 0.02 0.02 0.01 0.02 0.02 0.02 0.01 0.01 0.00 0.00 0.00 0.01 0.02 0.02 0.00 0.00 0.00 0.01 0.01 0.01 0.00 0.01 0.02 0.03 0.03 0.04 0.04 0.03 0.04 0.04 0.05 0.06 0.10 0.13 0.15 0.15 0.15 0.12 0.07 0.04 0.01 0.00
0.00 0.00 0.00 0.00 0.00 0.00 0.01 0.02 0.02 0.01 0.02 0.02 0.01 0.01 0.01 0.00 0.00 0.00 0.01 0.01 0.01 0.01 0.00 0.00 0.01 0.01 0.01 0.01 0.01 0.01 0.02 0.03 0.03 0.03 0.04 0.04 0.05 0.05 0.09 0.16 0.22 0.21 0.18 0.21 0.20 0.16 0.10 0.04 0.02
0.00 0.00 0.00 0.00 0.00 0.00 0.00 0.01 0.03 0.01 0.01 0.01 0.01 0.01 0.01 0.00 0.00 0.00 0.01 0.01 0.01 0.02 0.00 0.00 0.01 0.02 0.01 0.01 0.01 0.01 0.02 0.04 0.06 0.06 0.05 0.06 0.06 0.07 0.12 0.21 0.23 0.22 0.22 0.23 0.20 0.14 0.07 0.05 0.05
0.00 0.00 0.00 0.00 0.00 0.00 0.00 0.01 0.02 0.02 0.01 0.01 0.01 0.01 0.02 0.01 0.01 0.01 0.01 0.01 0.01 0.02 0.00 0.00 0.01 0.03 0.02 0.01 0.02 0.03 0.04 0.05 0.07 0.07 0.07 0.05 0.05 0.07 0.12 0.17 0.21 0.23 0.20 0.15 0.12 0.09 0.08 0.09 0.09
0.00 0.00 0.00 0.00 0.00 0.00 0.01 0.01 0.02 0.02 0.02 0.02 0.02 0.02 0.02 0.01 0.01 0.01 0.01 0.03 0.03 0.02 0.01 0.01 0.02 0.02 0.02 0.01 0.02 0.03 0.04 0.04 0.05 0.05 0.04 0.03 0.05 0.07 0.11 0.15 0.20 0.21 0.14 0.09 0.09 0.07 0.06 0.06 0.06
0.00 0.00 0.00 0.00 0.00 0.00 0.01 0.02 0.02 0.03 0.06 0.04 0.02 0.02 0.03 0.01 0.01 0.02 0.03 0.08 0.10 0.07 0.04 0.04 0.05 0.02 0.01 0.01 0.01 0.01 0.02 0.02 0.02 0.02 0.02 0.04 0.08 0.09 0.12 0.11 0.12 0.12 0.08 0.05 0.03 0.02 0.01 0.01 0.01
0.00 0.00 0.00 0.00 0.00 0.00 0.01 0.02 0.03 0.03 0.04 0.03 0.01 0.02 0.05 0.01 0.01 0.02 0.05 0.08 0.14 0.19 0.18 0.16 0.10 0.03 0.01 0.01 0.00 0.00 0.00 0.00 0.01 0.02 0.03 0.07 0.12 0.13 0.14 0.09 0.09 0.06 0.03 0.01 0.01 0.00 0.00 0.00 0.00
0.00 0.00 0.00 0.00 0.00 0.00 0.00 0.02 0.02 0.02 0.02 0.02 0.01 0.02 0.06 0.02 0.01 0.03 0.07 0.09 0.10 0.25 0.25 0.08 0.06 0.01 0.00 0.00 0.00 0.00 0.00 0.00 0.01 0.05 0.04 0.09 0.16 0.19 0.15 0.11 0.06 0.02 0.01 0.01 0.00 0.00 0.00 0.00 0.00
0.00 0.00 0.00 0.00 0.00 0.00 0.00 0.01 0.02 0.02 0.03 0.03 0.02 0.05 0.04 0.02 0.02 0.05 0.09 0.09 0.07 0.06 0.05 0.03 0.02 0.00 0.00 0.00 0.00 0.00 0.01 0.01 0.02 0.03 0.05 0.10 0.11 0.08 0.08 0.10 0.07 0.04 0.02 0.02 0.02 0.00 0.00 0.00 0.00
0.00 0.00 0.00 0.00 0.00 0.00 0.00 0.00 0.01 0.02 0.02 0.04 0.06 0.11 0.10 0.03 0.03 0.06 0.11 0.11 0.12 0.07 0.03 0.01 0.01 0.01 0.00 0.00 0.00 0.00 0.01 0.01 0.02 0.02 0.02 0.07 0.11 0.11 0.09 0.12 0.11 0.09 0.07 0.06 0.04 0.02 0.00 0.00 0.00
0.00 0.00 0.00 0.00 0.00 0.00 0.00 0.00 0.00 0.01 0.02 0.03 0.05 0.09 0.09 0.03 0.03 0.07 0.11 0.14 0.18 0.14 0.05 0.02 0.01 0.00 0.00 0.00 0.00 0.00 0.00 0.01 0.01 0.01 0.02 0.04 0.07 0.07 0.08 0.08 0.08 0.06 0.06 0.05 0.04 0.01 0.01 0.01 0.00
0.00 0.00 0.00 0.00 0.00 0.00 0.00 0.00 0.00 0.00 0.01 0.01 0.03 0.04 0.06 0.04 0.04 0.07 0.11 0.16 0.21 0.18 0.07 0.04 0.02 0.01 0.01 0.01 0.00 0.00 0.00 0.02 0.02 0.03 0.03 0.03 0.05 0.08 0.08 0.09 0.10 0.09 0.07 0.07 0.05 0.03 0.02 0.02 0.02
0.00 0.00 0.00 0.00 0.00 0.00 0.00 0.00 0.00 0.00 0.00 0.00 0.01 0.02 0.04 0.06 0.05 0.06 0.12 0.18 0.30 0.25 0.11 0.08 0.04 0.03 0.02 0.01 0.01 0.01 0.02 0.04 0.05 0.06 0.05 0.04 0.05 0.10 0.12 0.14 0.15 0.14 0.12 0.11 0.09 0.07 0.05 0.05 0.04
0.00 0.00 0.00 0.00 0.00 0.00 0.00 0.00 0.00 0.00 0.00 0.00 0.00 0.01 0.01 0.03 0.04 0.04 0.08 0.20 0.33 0.29 0.22 0.15 0.06 0.05 0.04 0.02 0.01 0.01 0.03 0.05 0.07 0.09 0.08 0.07 0.08 0.12 0.18 0.23 0.26 0.26 0.25 0.24 0.22 0.20 0.16 0.13 0.11
0.00 0.00 0.00 0.00 0.00 0.00 0.00 0.00 0.00 0.00 0.00 0.00 0.00 0.00 0.02 0.04 0.04 0.05 0.08 0.15 0.24 0.28 0.22 0.12 0.09 0.06 0.05 0.04 0.03 0.04 0.06 0.08 0.10 0.12 0.12 0.14 0.19 0.26 0.36 0.46 0.47 0.43 0.40 0.37 0.34 0.31 0.29 0.26 0.23
0.00 0.00 0.00 0.00 0.00 0.00 0.00 0.00 0.00 0.00 0.00 0.00 0.00 0.00 0.00 0.02 0.03 0.04 0.07 0.14 0.28 0.35 0.29 0.22 0.14 0.08 0.10 0.12 0.11 0.13 0.15 0.19 0.23 0.28 0.35 0.43 0.52 0.60 0.66 0.67 0.63 0.55 0.50 0.49 0.48 0.43 0.37 0.31 0.25
0.00 0.00 0.00 0.00 0.00 0.00 0.00 0.00 0.00 0.00 0.00 0.00 0.00 0.00 0.00 0.01 0.02 0.05 0.13 0.29 0.47 0.46 0.36 0.25 0.19 0.21 0.26 0.31 0.34 0.47 0.57 0.65 0.82 0.96 1.04 1.07 1.07 1.02 0.98 0.92 0.85 0.74 0.67 0.59 0.47 0.40 0.32 0.26 0.21
0.00 0.00 0.00 0.00 0.00 0.00 0.00 0.00 0.00 0.00 0.00 0.00 0.00 0.00 0.00 0.01 0.02 0.05 0.13 0.31 0.46 0.46 0.39 0.36 0.43 0.47 0.50 0.67 0.87 1.09 1.28 1.46 1.64 1.76 1.75 1.68 1.53 1.37 1.24 1.11 0.98 0.83 0.73 0.61 0.47 0.36 0.28 0.22 0.18
0.00 0.00 0.00 0.00 0.00 0.00 0.00 0.00 0.00 0.00 0.00 0.00 0.00 0.00 0.00 0.01 0.03 0.05 0.10 0.17 0.32 0.44 0.48 0.54 0.70 0.82 0.92 1.12 1.33 1.61 1.91 2.12 2.13 2.02 1.92 1.81 1.64 1.46 1.27 1.09 0.95 0.83 0.68 0.55 0.41 0.30 0.22 0.17 0.13
0.00 0.00 0.00 0.00 0.00 0.00 0.00 0.00 0.00 0.00 0.00 0.00 0.00 0.00 0.00 0.01 0.02 0.04 0.08 0.14 0.24 0.36 0.46 0.58 0.78 1.08 1.41 1.78 2.06 2.25 2.36 2.37 2.20 1.96 1.75 1.49 1.29 1.14 0.99 0.90 0.83 0.68 0.52 0.39 0.28 0.19 0.14 0.10 0.07
0.00 0.00 0.00 0.00 0.00 0.00 0.00 0.00 0.00 0.00 0.00 0.00 0.00 0.01 0.01 0.02 0.03 0.04 0.09 0.16 0.30 0.41 0.58 0.77 1.03 1.41 1.79 2.09 2.32 2.44 2.36 2.15 1.87 1.55 1.26 1.00 0.85 0.79 0.72 0.63 0.52 0.38 0.28 0.22 0.16 0.12 0.10 0.08 0.06
0.00 0.00 0.00 0.00 0.00 0.00 0.00 0.00 0.00 0.00 0.01 0.01 0.01 0.02 0.03 0.03 0.04 0.06 0.10 0.17 0.31 0.51 0.72 0.92 1.16 1.51 1.83 1.96 2.09 2.04 1.95 1.73 1.40 1.08 0.83 0.64 0.53 0.43 0.35 0.31 0.26 0.21 0.15 0.12 0.10 0.08 0.07 0.06 0.05
0.00 0.00 0.00 0.00 0.00 0.00 0.00 0.00 0.01 0.02 0.02 0.02 0.02 0.04 0.04 0.04 0.05 0.08 0.14 0.22 0.35 0.53 0.73 0.88 1.04 1.26 1.45 1.58 1.69 1.57 1.36 1.13 0.89 0.68 0.52 0.40 0.33 0.28 0.22 0.16 0.12 0.09 0.07 0.06 0.05 0.04 0.04 0.04 0.04
0.00 0.00 0.00 0.00 0.00 0.00 0.00 0.01 0.03 0.04 0.04 0.03 0.03 0.04 0.05 0.07 0.10 0.14 0.20 0.27 0.40 0.51 0.65 0.76 0.81 0.89 0.93 0.93 0.93 0.87 0.76 0.63 0.51 0.41 0.32 0.25 0.19 0.14 0.10 0.07 0.05 0.04 0.04 0.03 0.03 0.02 0.02 0.02 0.02
0.00 0.00 0.00 0.00 0.00 0.00 0.00 0.02 0.06 0.06 0.05 0.04 0.04 0.04 0.08 0.12 0.15 0.20 0.26 0.32 0.38 0.42 0.47 0.47 0.45 0.47 0.45 0.41 0.39 0.37 0.33 0.29 0.25 0.21 0.16 0.11 0.08 0.06 0.04 0.03 0.02 0.02 0.02 0.01 0.01 0.01 0.01 0.02 0.03
0.00 0.00 0.00 0.00 0.00 0.00 0.00 0.02 0.04 0.08 0.08 0.06 0.05 0.06 0.10 0.14 0.18 0.24 0.28 0.29 0.28 0.27 0.26 0.24 0.23 0.22 0.20 0.18 0.16 0.15 0.13 0.11 0.09 0.08 0.07 0.05 0.04 0.02 0.02 0.01 0.01 0.01 0.01 0.01 0.01 0.01 0.01 0.02 0.03
0.00 0.00 0.00 0.00 0.00 0.00 0.00 0.03 0.05 0.10 0.13 0.12 0.10 0.08 0.12 0.18 0.26 0.30 0.30 0.24 0.19 0.17 0.15 0.14 0.14 0.12 0.10 0.09 0.08 0.07 0.06 0.05 0.04 0.03 0.03 0.02 0.02 0.01 0.01 0.01 0.01 0.01 0.01 0.01 0.02 0.02 0.03 0.03 0.04
0.00 0.00 0.00 0.00 0.00 0.00 0.01 0.07 0.06 0.15 0.24 0.23 0.17 0.17 0.22 0.31 0.37 0.37 0.31 0.20 0.14 0.10 0.09 0.09 0.09 0.08 0.08 0.07 0.06 0.05 0.04 0.03 0.02 0.02 0.02 0.01 0.01 0.01 0.01 0.01 0.01 0.01 0.01 0.01 0.02 0.03 0.03 0.05 0.05

GEFSSGP_prec_meanprecacc_054.txt.gz
Total_Precipitation_Accumulation
0.00 0.00 0.00 0.00 0.00 0.00 0.00 0.00 0.01 0.02 0.02 0.02 0.02 0.03 0.02 0.01 0.04 0.20 0.05 0.04 0.04 0.01 0.00 0.00 0.01 0.01 0.01 0.01 0.03 0.04 0.06 0.06 0.06 0.06 0.05 0.05 0.06 0.06 0.06 0.06 0.06 0.09 0.11 0.10 0.08 0.07 0.05 0.03 0.01
0.00 0.00 0.00 0.00 0.00 0.00 0.00 0.00 0.01 0.02 0.02 0.02 0.02 0.01 0.01 0.00 0.00 0.01 0.01 0.02 0.03 0.01 0.00 0.00 0.00 0.01 0.01 0.01 0.02 0.04 0.05 0.05 0.05 0.05 0.04 0.04 0.05 0.06 0.06 0.07 0.08 0.12 0.15 0.12 0.08 0.05 0.03 0.01 0.00
0.00 0.00 0.00 0.00 0.00 0.00 0.01 0.02 0.02 0.02 0.03 0.03 0.02 0.01 0.01 0.00 0.00 0.00 0.01 0.02 0.02 0.01 0.00 0.00 0.01 0.01 0.01 0.01 0.01 0.02 0.03 0.03 0.04 0.04 0.04 0.04 0.04 0.05 0.07 0.11 0.14 0.15 0.15 0.15 0.12 0.07 0.04 0.01 0.00
0.00 0.00 0.00 0.00 0.00 0.00 0.01 0.02 0.02 0.02 0.02 0.02 0.01 0.01 0.01 0.00 0.00 0.00 0.01 0.01 0.01 0.01 0.00 0.00 0.01 0.01 0.01 0.01 0.01 0.01 0.02 0.03 0.04 0.04 0.04 0.05 0.05 0.06 0.09 0.17 0.22 0.21 0.18 0.21 0.20 0.16 0.10 0.04 0.02
0.00 0.00 0.00 0.00 0.00 0.00 0.00 0.01 0.03 0.01 0.01 0.01 0.01 0.01 0.01 0.00 0.00 0.00 0.01 0.01 0.01 0.02 0.00 0.00 0.01 0.02 0.01 0.01 0.01 0.02 0.03 0.04 0.06 0.06 0.06 0.06 0.06 0.07 0.13 0.21 0.23 0.23 0.22 0.23 0.20 0.14 0.07 0.05 0.05
0.00 0.00 0.00 0.00 0.00 0.00 0.00 0.01 0.02 0.02 0.01 0.01 0.01 0.02 0.03 0.02 0.01 0.01 0.01 0.01 0.01 0.02 0.00 0.00 0.01 0.03 0.02 0.01 0.02 0.03 0.04 0.06 0.07 0.07 0.07 0.05 0.05 0.07 0.12 0.17 0.21 0.23 0.20 0.15 0.12 0.09 0.08 0.09 0.09
0.00 0.00 0.00 0.00 0.00 0.00 0.01 0.01 0.02 0.02 0.02 0.02 0.02 0.02 0.05 0.03 0.01 0.01 0.02 0.03 0.03 0.02 0.01 0.01 0.02 0.02 0.02 0.01 0.02 0.03 0.04 0.05 0.05 0.05 0.04 0.03 0.05 0.07 0.11 0.15 0.20 0.21 0.14 0.09 0.09 0.07 0.06 0.06 0.06
0.00 0.00 0.00 0.00 0.00 0.00 0.01 0.02 0.02 0.03 0.06 0.04 0.02 0.03 0.09 0.05 0.01 0.02 0.04 0.08 0.10 0.07 0.04 0.04 0.05 0.02 0.01 0.01 0.01 0.01 0.02 0.02 0.02 0.02 0.02 0.04 0.08 0.09 0.12 0.11 0.12 0.12 0.08 0.05 0.03 0.02 0.01 0.01 0.01
0.00 0.00 0.00 0.00 0.00 0.00 0.01 0.02 0.03 0.03 0.04 0.03 0.02 0.04 0.13 0.04 0.01 0.02 0.05 0.09 0.15 0.19 0.18 0.16 0.10 0.03 0.01 0.01 0.00 0.00 0.00 0.00 0.01 0.02 0.03 0.07 0.12 0.13 0.14 0.09 0.09 0.06 0.03 0.01 0.01 0.00 0.00 0.00 0.00
0.00 0.00 0.00 0.00 0.00 0.00 0.00 0.02 0.02 0.02 0.02 0.02 0.02 0.04 0.08 0.03 0.01 0.03 0.08 0.09 0.11 0.25 0.25 0.08 0.06 0.01 0.00 0.00 0.00 0.00 0.00 0.00 0.01 0.05 0.04 0.09 0.16 0.19 0.15 0.11 0.06 0.03 0.01 0.01 0.00 0.00 0.00 0.00 0.00
0.00 0.00 0.00 0.00 0.00 0.00 0.00 0.01 0.02 0.02 0.03 0.03 0.04 0.07 0.08 0.04 0.03 0.06 0.10 0.10 0.08 0.07 0.05 0.03 0.02 0.00 0.00 0.00 0.00 0.00 0.01 0.01 0.02 0.03 0.05 0.10 0.11 0.08 0.08 0.10 0.07 0.04 0.02 0.03 0.02 0.01 0.00 0.00 0.00
0.00 0.00 0.00 0.00 0.00 0.00 0.00 0.00 0.01 0.02 0.02 0.05 0.07 0.15 0.16 0.08 0.05 0.08 0.13 0.13 0.14 0.08 0.03 0.01 0.01 0.01 0.00 0.00 0.00 0.00 0.01 0.01 0.02 0.02 0.02 0.07 0.11 0.11 0.09 0.12 0.11 0.09 0.07 0.06 0.04 0.03 0.01 0.01 0.01
0.00 0.00 0.00 0.00 0.00 0.00 0.00 0.00 0.00 0.01 0.02 0.03 0.06 0.13 0.14 0.08 0.07 0.11 0.14 0.19 0.23 0.16 0.06 0.03 0.01 0.00 0.00 0.00 0.00 0.00 0.00 0.01 0.01 0.01 0.02 0.04 0.07 0.07 0.08 0.08 0.09 0.07 0.06 0.06 0.04 0.02 0.02 0.03 0.02
0.00 0.00 0.00 0.00 0.00 0.00 0.00 0.00 0.00 0.00 0.01 0.01 0.04 0.06 0.10 0.07 0.07 0.14 0.20 0.24 0.27 0.22 0.09 0.05 0.02 0.01 0.01 0.01 0.00 0.00 0.00 0.02 0.02 0.03 0.03 0.03 0.05 0.08 0.09 0.10 0.11 0.10 0.07 0.08 0.06 0.05 0.05 0.05 0.03
0.00 0.00 0.00 0.00 0.00 0.00 0.00 0.00 0.00 0.00 0.00 0.01 0.02 0.04 0.07 0.10 0.09 0.15 0.30 0.33 0.36 0.28 0.13 0.09 0.05 0.03 0.02 0.01 0.01 0.01 0.02 0.04 0.05 0.06 0.05 0.04 0.05 0.10 0.12 0.15 0.16 0.15 0.13 0.12 0.11 0.10 0.08 0.07 0.07
0.00 0.00 0.00 0.00 0.00 0.00 0.00 0.00 0.00 0.00 0.00 0.00 0.00 0.02 0.04 0.07 0.09 0.11 0.20 0.32 0.41 0.33 0.25 0.17 0.07 0.06 0.04 0.02 0.01 0.01 0.03 0.05 0.07 0.09 0.08 0.07 0.08 0.13 0.18 0.24 0.27 0.27 0.26 0.25 0.24 0.21 0.18 0.16 0.15
0.00 0.00 0.00 0.00 0.00 0.00 0.00 0.00 0.00 0.00 0.00 0.00 0.00 0.01 0.03 0.07 0.09 0.12 0.17 0.26 0.34 0.32 0.24 0.16 0.12 0.08 0.05 0.05 0.04 0.05 0.07 0.09 0.11 0.13 0.14 0.15 0.20 0.27 0.37 0.47 0.48 0.44 0.41 0.38 0.35 0.33 0.31 0.28 0.25
0.00 0.00 0.00 0.00 0.00 0.00 0.00 0.00 0.00 0.00 0.00 0.00 0.00 0.00 0.01 0.04 0.07 0.11 0.14 0.26 0.40 0.41 0.32 0.25 0.18 0.12 0.12 0.14 0.13 0.14 0.16 0.22 0.27 0.32 0.40 0.47 0.58 0.65 0.70 0.71 0.66 0.58 0.52 0.51 0.49 0.44 0.38 0.32 0.26
0.00 0.00 0.00 0.00 0.00 0.00 0.00 0.00 0.00 0.00 0.00 0.00 0.00 0.00 0.01 0.02 0.04 0.09 0.19 0.42 0.67 0.57 0.44 0.32 0.24 0.25 0.30 0.34 0.38 0.52 0.61 0.71 0.89 1.04 1.14 1.19 1.19 1.12 1.06 0.99 0.89 0.76 0.70 0.60 0.48 0.41 0.33 0.27 0.22
0.00 0.00 0.00 0.00 0.00 0.00 0.00 0.00 0.00 0.00 0.00 0.00 0.00 0.00 0.01 0.02 0.04 0.08 0.21 0.45 0.61 0.60 0.56 0.53 0.56 0.55 0.58 0.74 0.95 1.17 1.38 1.58 1.76 1.91 1.95 1.88 1.70 1.51 1.34 1.19 1.03 0.87 0.76 0.63 0.49 0.37 0.29 0.23 0.18
0.00 0.00 0.00 0.00 0.00 0.00 0.00 0.00 0.01 0.00 0.00 0.00 0.00 0.00 0.01 0.02 0.04 0.07 0.16 0.27 0.45 0.56 0.64 0.69 0.83 0.97 1.06 1.26 1.50 1.80 2.11 2.31 2.32 2.22 2.12 1.98 1.80 1.60 1.38 1.19 1.03 0.88 0.72 0.57 0.42 0.30 0.23 0.17 0.13
0.00 0.00 0.00 0.00 0.00 0.00 0.00 0.00 0.01 0.00 0.00 0.01 0.01 0.01 0.01 0.02 0.04 0.06 0.12 0.19 0.30 0.45 0.56 0.70 0.92 1.24 1.59 2.00 2.34 2.55 2.66 2.65 2.50 2.23 1.99 1.72 1.49 1.33 1.16 1.03 0.91 0.73 0.55 0.41 0.29 0.20 0.14 0.10 0.07
0.00 0.00 0.00 0.00 0.00 0.00 0.00 0.00 0.00 0.01 0.01 0.01 0.02 0.02 0.03 0.04 0.05 0.07 0.13 0.21 0.36 0.50 0.69 0.92 1.21 1.63 2.03 2.37 2.64 2.77 2.69 2.50 2.22 1.90 1.57 1.27 1.08 0.99 0.87 0.73 0.58 0.43 0.31 0.24 0.17 0.13 0.10 0.08 0.07
0.00 0.00 0.00 0.00 0.00 0.00 0.00 0.00 0.01 0.02 0.01 0.02 0.03 0.04 0.05 0.06 0.07 0.09 0.14 0.22 0.38 0.59 0.83 1.07 1.34 1.72 2.06 2.24 2.42 2.40 2.32 2.12 1.78 1.43 1.14 0.91 0.76 0.61 0.47 0.38 0.32 0.25 0.17 0.14 0.11 0.08 0.07 0.06 0.05
0.00 0.00 0.00 0.00 0.00 0.00 0.00 0.00 0.03 0.04 0.03 0.03 0.04 0.06 0.07 0.07 0.09 0.12 0.18 0.27 0.40 0.59 0.81 0.97 1.15 1.40 1.62 1.80 1.96 1.88 1.67 1.47 1.26 1.01 0.81 0.64 0.53 0.44 0.33 0.23 0.17 0.12 0.09 0.07 0.05 0.04 0.04 0.04 0.04
0.00 0.00 0.00 0.00 0.00 0.00 0.00 0.03 0.10 0.09 0.08 0.07 0.06 0.07 0.10 0.12 0.15 0.19 0.24 0.31 0.43 0.55 0.69 0.80 0.88 0.98 1.05 1.08 1.11 1.07 0.98 0.87 0.77 0.67 0.58 0.48 0.39 0.29 0.20 0.13 0.10 0.07 0.05 0.04 0.03 0.03 0.02 0.02 0.02
0.00 0.00 0.00 0.00 0.00 0.00 0.01 0.09 0.15 0.16 0.14 0.11 0.11 0.10 0.13 0.17 0.19 0.24 0.30 0.35 0.40 0.44 0.50 0.50 0.49 0.52 0.52 0.49 0.50 0.52 0.50 0.47 0.44 0.40 0.33 0.26 0.21 0.16 0.12 0.08 0.07 0.05 0.04 0.02 0.02 0.02 0.01 0.02 0.03
0.00 0.00 0.00 0.00 0.00 0.00 0.02 0.08 0.15 0.23 0.25 0.22 0.18 0.16 0.16 0.19 0.23 0.28 0.31 0.32 0.30 0.29 0.28 0.26 0.26 0.26 0.24 0.23 0.23 0.24 0.25 0.22 0.21 0.19 0.16 0.14 0.11 0.08 0.05 0.03 0.03 0.02 0.01 0.01 0.01 0.01 0.01 0.02 0.03
0.00 0.00 0.00 0.00 0.00 0.00 0.01 0.09 0.15 0.28 0.37 0.39 0.36 0.27 0.24 0.27 0.33 0.35 0.34 0.27 0.22 0.20 0.18 0.17 0.18 0.16 0.15 0.14 0.14 0.12 0.11 0.10 0.08 0.06 0.06 0.05 0.04 0.03 0.02 0.01 0.01 0.01 0.01 0.01 0.02 0.02 0.03 0.03 0.04
0.00 0.00 0.00 0.00 0.00 0.00 0.02 0.15 0.20 0.38 0.53 0.51 0.46 0.41 0.40 0.46 0.48 0.46 0.38 0.27 0.20 0.16 0.13 0.12 0.12 0.11 0.11 0.10 0.08 0.07 0.06 0.05 0.04 0.03 0.03 0.02 0.02 0.01 0.01 0.01 0.01 0.01 0.01 0.02 0.02 0.03 0.03 0.05 0.05

GEFSSGP_prec_meanprecacc_060.txt.gz
Total_Precipitation_Accumulation
0.00 0.00 0.00 0.00 0.00 0.00 0.00 0.00 0.02 0.02 0.03 0.03 0.03 0.03 0.03 0.02 0.05 0.20 0.05 0.04 0.04 0.01 0.00 0.00 0.01 0.01 0.01 0.01 0.03 0.04 0.06 0.06 0.06 0.06 0.05 0.05 0.06 0.06 0.06 0.06 0.06 0.09 0.11 0.10 0.08 0.07 0.05 0.03 0.01
0.00 0.00 0.00 0.00 0.00 0.00 0.00 0.00 0.01 0.02 0.03 0.03 0.03 0.02 0.01 0.00 0.00 0.01 0.01 0.02 0.03 0.01 0.00 0.00 0.01 0.01 0.01 0.01 0.02 0.04 0.05 0.05 0.05 0.05 0.04 0.04 0.05 0.06 0.06 0.07 0.08 0.12 0.15 0.13 0.08 0.05 0.03 0.01 0.00
0.00 0.00 0.00 0.00 0.00 0.00 0.01 0.02 0.02 0.02 0.04 0.05 0.04 0.02 0.01 0.00 0.00 0.00 0.01 0.02 0.02 0.01 0.00 0.00 0.01 0.01 0.01 0.01 0.01 0.02 0.03 0.03 0.04 0.04 0.04 0.04 0.04 0.05 0.07 0.11 0.14 0.15 0.15 0.15 0.12 0.07 0.04 0.01 0.00
0.00 0.00 0.00 0.00 0.00 0.00 0.01 0.02 0.02 0.02 0.03 0.04 0.03 0.02 0.02 0.00 0.00 0.00 0.01 0.01 0.01 0.01 0.00 0.00 0.01 0.02 0.01 0.01 0.01 0.01 0.02 0.03 0.04 0.04 0.04 0.05 0.05 0.06 0.09 0.17 0.22 0.21 0.18 0.21 0.20 0.16 0.10 0.04 0.02
0.00 0.00 0.00 0.00 0.00 0.00 0.00 0.01 0.03 0.01 0.01 0.01 0.02 0.02 0.02 0.00 0.00 0.00 0.01 0.01 0.01 0.02 0.00 0.00 0.02 0.03 0.02 0.01 0.01 0.02 0.03 0.04 0.06 0.06 0.06 0.06 0.06 0.07 0.13 0.21 0.23 0.23 0.22 0.23 0.20 0.14 0.07 0.05 0.05
0.00 0.00 0.00 0.00 0.00 0.00 0.00 0.01 0.02 0.02 0.01 0.01 0.01 0.02 0.03 0.02 0.01 0.01 0.01 0.01 0.01 0.02 0.01 0.00 0.02 0.03 0.02 0.01 0.02 0.03 0.04 0.06 0.07 0.07 0.07 0.05 0.05 0.07 0.12 0.17 0.21 0.23 0.20 0.15 0.12 0.09 0.08 0.09 0.09
0.00 0.00 0.00 0.00 0.00 0.00 0.01 0.01 0.02 0.02 0.02 0.02 0.02 0.02 0.05 0.03 0.01 0.01 0.02 0.03 0.03 0.02 0.01 0.01 0.02 0.02 0.02 0.02 0.02 0.03 0.04 0.05 0.05 0.05 0.04 0.03 0.05 0.07 0.11 0.15 0.20 0.21 0.14 0.09 0.09 0.07 0.06 0.06 0.06
0.00 0.00 0.00 0.00 0.00 0.00 0.01 0.02 0.02 0.03 0.07 0.04 0.02 0.04 0.10 0.05 0.01 0.02 0.04 0.08 0.10 0.07 0.04 0.04 0.05 0.02 0.01 0.01 0.01 0.01 0.02 0.02 0.02 0.02 0.02 0.04 0.08 0.09 0.12 0.11 0.12 0.12 0.08 0.05 0.03 0.02 0.01 0.01 0.01
0.00 0.00 0.00 0.00 0.00 0.00 0.01 0.02 0.03 0.03 0.05 0.04 0.02 0.04 0.13 0.04 0.01 0.03 0.05 0.09 0.15 0.19 0.18 0.16 0.11 0.03 0.01 0.01 0.01 0.00 0.00 0.00 0.01 0.02 0.03 0.07 0.12 0.13 0.14 0.09 0.09 0.06 0.03 0.01 0.01 0.00 0.00 0.00 0.00
0.00 0.00 0.00 0.00 0.00 0.00 0.01 0.02 0.02 0.02 0.02 0.03 0.03 0.04 0.08 0.03 0.02 0.03 0.08 0.10 0.11 0.25 0.26 0.08 0.06 0.01 0.00 0.00 0.00 0.00 0.00 0.00 0.01 0.05 0.04 0.09 0.16 0.19 0.15 0.11 0.06 0.03 0.01 0.01 0.01 0.00 0.00 0.00 0.00
0.00 0.00 0.00 0.00 0.00 0.00 0.00 0.01 0.02 0.02 0.03 0.04 0.04 0.07 0.08 0.04 0.03 0.06 0.10 0.10 0.08 0.07 0.05 0.03 0.02 0.00 0.00 0.00 0.00 0.00 0.01 0.01 0.02 0.03 0.05 0.10 0.11 0.08 0.08 0.10 0.07 0.04 0.02 0.03 0.02 0.01 0.00 0.00 0.00
0.00 0.00 0.00 0.00 0.00 0.00 0.00 0.00 0.01 0.02 0.02 0.05 0.07 0.15 0.16 0.08 0.05 0.08 0.13 0.13 0.14 0.08 0.03 0.01 0.01 0.01 0.00 0.00 0.00 0.01 0.01 0.01 0.02 0.02 0.02 0.07 0.11 0.11 0.09 0.12 0.11 0.09 0.08 0.06 0.05 0.03 0.01 0.01 0.01
0.00 0.00 0.00 0.00 0.00 0.00 0.00 0.00 0.00 0.01 0.02 0.03 0.06 0.13 0.14 0.08 0.07 0.11 0.14 0.19 0.23 0.17 0.07 0.03 0.01 0.00 0.00 0.00 0.00 0.00 0.00 0.01 0.01 0.01 0.02 0.04 0.07 0.07 0.08 0.08 0.09 0.07 0.07 0.07 0.05 0.03 0.03 0.03 0.03
0.00 0.00 0.00 0.00 0.00 0.00 0.00 0.00 0.00 0.00 0.01 0.01 0.04 0.06 0.10 0.07 0.07 0.14 0.20 0.24 0.27 0.22 0.09 0.05 0.02 0.01 0.01 0.01 0.00 0.00 0.00 0.02 0.02 0.03 0.03 0.03 0.05 0.08 0.09 0.11 0.12 0.11 0.09 0.09 0.07 0.07 0.07 0.06 0.04
0.00 0.00 0.00 0.00 0.00 0.00 0.00 0.00 0.00 0.00 0.00 0.01 0.02 0.04 0.07 0.10 0.09 0.16 0.30 0.33 0.36 0.29 0.14 0.10 0.05 0.03 0.02 0.01 0.01 0.01 0.02 0.04 0.05 0.06 0.05 0.04 0.05 0.10 0.13 0.16 0.17 0.16 0.15 0.14 0.13 0.13 0.10 0.09 0.07
0.00 0.00 0.00 0.00 0.00 0.00 0.00 0.00 0.00 0.00 0.00 0.00 0.00 0.02 0.04 0.07 0.09 0.12 0.20 0.33 0.41 0.34 0.26 0.18 0.08 0.06 0.04 0.02 0.01 0.01 0.03 0.05 0.07 0.09 0.09 0.07 0.09 0.14 0.20 0.26 0.30 0.31 0.30 0.29 0.29 0.25 0.20 0.17 0.16
0.00 0.00 0.00 0.00 0.00 0.00 0.00 0.00 0.00 0.00 0.00 0.00 0.00 0.01 0.03 0.07 0.09 0.12 0.17 0.26 0.35 0.33 0.26 0.18 0.14 0.10 0.07 0.06 0.06 0.06 0.07 0.10 0.12 0.15 0.17 0.18 0.24 0.34 0.45 0.55 0.56 0.53 0.49 0.47 0.42 0.37 0.34 0.30 0.26
0.00 0.00 0.00 0.00 0.00 0.00 0.00 0.00 0.00 0.00 0.00 0.00 0.00 0.00 0.01 0.04 0.08 0.11 0.15 0.27 0.41 0.42 0.34 0.27 0.19 0.14 0.17 0.20 0.19 0.20 0.23 0.29 0.36 0.42 0.50 0.59 0.71 0.78 0.84 0.84 0.79 0.70 0.66 0.62 0.57 0.51 0.43 0.35 0.28
0.00 0.00 0.00 0.00 0.00 0.00 0.00 0.00 0.00 0.00 0.00 0.00 0.00 0.00 0.01 0.02 0.05 0.09 0.20 0.44 0.69 0.60 0.47 0.34 0.27 0.29 0.37 0.44 0.51 0.69 0.78 0.88 1.08 1.23 1.35 1.42 1.42 1.36 1.30 1.23 1.13 0.99 0.88 0.73 0.58 0.48 0.39 0.31 0.25
0.00 0.00 0.00 0.00 0.00 0.00 0.00 0.00 0.00 0.00 0.00 0.00 0.00 0.00 0.01 0.02 0.04 0.09 0.23 0.47 0.64 0.63 0.59 0.55 0.61 0.66 0.73 0.95 1.24 1.54 1.75 1.94 2.13 2.27 2.31 2.22 2.04 1.87 1.71 1.54 1.35 1.17 1.00 0.81 0.61 0.46 0.37 0.29 0.23
0.00 0.00 0.00 0.00 0.00 0.00 0.00 0.01 0.01 0.01 0.01 0.01 0.01 0.01 0.01 0.03 0.05 0.09 0.19 0.30 0.49 0.61 0.68 0.72 0.90 1.10 1.29 1.61 1.97 2.33 2.69 2.84 2.82 2.65 2.52 2.37 2.19 2.00 1.77 1.55 1.39 1.21 0.98 0.78 0.57 0.41 0.32 0.24 0.18
0.00 0.00 0.00 0.00 0.00 0.00 0.00 0.01 0.02 0.02 0.02 0.02 0.03 0.03 0.04 0.05 0.06 0.10 0.15 0.24 0.36 0.51 0.62 0.77 1.01 1.40 1.86 2.40 2.87 3.15 3.33 3.30 3.13 2.84 2.54 2.24 1.98 1.80 1.60 1.42 1.24 1.00 0.76 0.58 0.42 0.31 0.23 0.17 0.13
0.00 0.00 0.00 0.00 0.00 0.00 0.00 0.00 0.02 0.02 0.03 0.04 0.05 0.06 0.07 0.08 0.10 0.13 0.19 0.28 0.43 0.60 0.81 1.05 1.37 1.88 2.40 2.88 3.25 3.42 3.40 3.24 2.97 2.60 2.21 1.79 1.54 1.41 1.27 1.08 0.89 0.70 0.53 0.40 0.30 0.23 0.17 0.13 0.10
0.00 0.00 0.00 0.00 0.00 0.00 0.00 0.00 0.02 0.04 0.03 0.04 0.06 0.08 0.09 0.12 0.14 0.17 0.23 0.31 0.48 0.73 1.00 1.28 1.58 2.01 2.43 2.72 2.98 2.99 2.94 2.77 2.42 2.01 1.64 1.35 1.15 0.96 0.83 0.70 0.59 0.47 0.34 0.26 0.22 0.17 0.13 0.10 0.08
0.00 0.00 0.00 0.00 0.00 0.00 0.00 0.01 0.05 0.07 0.05 0.05 0.06 0.08 0.10 0.12 0.15 0.20 0.27 0.37 0.53 0.74 0.99 1.19 1.41 1.69 1.94 2.16 2.37 2.32 2.15 1.95 1.71 1.43 1.19 1.00 0.85 0.70 0.56 0.42 0.33 0.26 0.21 0.18 0.17 0.15 0.13 0.10 0.08
0.00 0.00 0.00 0.00 0.00 0.00 0.01 0.05 0.14 0.13 0.10 0.09 0.08 0.10 0.13 0.16 0.19 0.25 0.32 0.41 0.55 0.68 0.84 0.97 1.08 1.21 1.30 1.36 1.40 1.36 1.25 1.11 0.98 0.87 0.76 0.66 0.55 0.42 0.32 0.26 0.22 0.19 0.16 0.15 0.13 0.12 0.10 0.08 0.06
0.00 0.00 0.00 0.00 0.00 0.00 0.02 0.12 0.20 0.21 0.18 0.14 0.13 0.13 0.17 0.20 0.23 0.29 0.36 0.42 0.49 0.53 0.59 0.59 0.59 0.64 0.65 0.64 0.66 0.66 0.61 0.58 0.55 0.50 0.43 0.35 0.29 0.25 0.22 0.18 0.16 0.14 0.12 0.10 0.08 0.06 0.05 0.04 0.04
0.00 0.00 0.00 0.00 0.00 0.00 0.02 0.11 0.20 0.29 0.30 0.27 0.22 0.20 0.22 0.24 0.28 0.33 0.35 0.36 0.36 0.35 0.34 0.32 0.33 0.33 0.31 0.31 0.31 0.32 0.32 0.30 0.28 0.27 0.24 0.20 0.17 0.14 0.10 0.08 0.07 0.06 0.04 0.03 0.02 0.02 0.02 0.03 0.03
0.00 0.00 0.00 0.00 0.00 0.00 0.01 0.10 0.19 0.35 0.44 0.45 0.41 0.34 0.32 0.35 0.40 0.42 0.40 0.33 0.29 0.27 0.24 0.24 0.25 0.23 0.20 0.19 0.20 0.17 0.15 0.14 0.11 0.10 0.11 0.09 0.07 0.06 0.04 0.03 0.02 0.02 0.02 0.02 0.02 0.02 0.03 0.03 0.04
0.00 0.00 0.00 0.00 0.00 0.00 0.02 0.16 0.24 0.42 0.58 0.57 0.53 0.50 0.50 0.54 0.57 0.55 0.49 0.37 0.30 0.25 0.22 0.19 0.17 0.15 0.14 0.13 0.11 0.11 0.09 0.08 0.06 0.05 0.05 0.04 0.03 0.03 0.03 0.02 0.02 0.01 0.01 0.02 0.03 0.03 0.04 0.05 0.06

GEFSSGP_prec_meanprecacc_066.txt.gz
Total_Precipitation_Accumulation
0.00 0.00 0.00 0.00 0.00 0.00 0.00 0.01 0.02 0.02 0.03 0.03 0.03 0.04 0.03 0.02 0.05 0.20 0.05 0.04 0.04 0.01 0.00 0.01 0.01 0.02 0.03 0.03 0.04 0.05 0.06 0.07 0.06 0.06 0.05 0.05 0.06 0.06 0.06 0.06 0.06 0.09 0.11 0.11 0.09 0.07 0.06 0.03 0.02
0.00 0.00 0.00 0.00 0.00 0.00 0.00 0.01 0.01 0.02 0.03 0.04 0.03 0.02 0.01 0.01 0.00 0.01 0.01 0.02 0.03 0.01 0.00 0.00 0.01 0.01 0.02 0.02 0.03 0.05 0.06 0.06 0.05 0.05 0.04 0.04 0.05 0.06 0.07 0.07 0.09 0.13 0.15 0.13 0.08 0.05 0.03 0.01 0.00
0.00 0.00 0.00 0.00 0.00 0.00 0.01 0.02 0.02 0.02 0.04 0.05 0.05 0.03 0.01 0.00 0.00 0.00 0.01 0.02 0.02 0.01 0.00 0.00 0.01 0.01 0.01 0.01 0.02 0.03 0.03 0.04 0.04 0.04 0.04 0.04 0.04 0.05 0.07 0.11 0.14 0.16 0.16 0.16 0.12 0.08 0.04 0.01 0.00
0.00 0.00 0.00 0.00 0.00 0.00 0.01 0.02 0.02 0.02 0.03 0.04 0.04 0.03 0.02 0.00 0.00 0.00 0.01 0.01 0.01 0.01 0.00 0.00 0.01 0.02 0.01 0.01 0.01 0.02 0.03 0.03 0.04 0.04 0.04 0.05 0.05 0.06 0.10 0.17 0.23 0.21 0.18 0.21 0.20 0.16 0.10 0.04 0.02
0.00 0.00 0.00 0.00 0.00 0.00 0.00 0.01 0.03 0.02 0.01 0.01 0.02 0.02 0.02 0.00 0.00 0.00 0.01 0.01 0.01 0.02 0.00 0.00 0.02 0.03 0.02 0.01 0.01 0.02 0.03 0.04 0.06 0.06 0.06 0.06 0.06 0.08 0.13 0.21 0.24 0.23 0.22 0.23 0.20 0.14 0.07 0.05 0.05
0.00 0.00 0.00 0.00 0.00 0.00 0.00 0.01 0.02 0.02 0.01 0.01 0.01 0.02 0.03 0.02 0.01 0.01 0.01 0.01 0.01 0.02 0.01 0.00 0.02 0.03 0.03 0.01 0.02 0.03 0.04 0.06 0.07 0.07 0.07 0.06 0.05 0.08 0.13 0.18 0.21 0.23 0.20 0.15 0.12 0.09 0.08 0.09 0.09
0.00 0.00 0.00 0.00 0.00 0.00 0.01 0.01 0.02 0.02 0.02 0.02 0.02 0.02 0.05 0.03 0.01 0.01 0.02 0.03 0.03 0.02 0.01 0.01 0.02 0.02 0.03 0.03 0.03 0.04 0.04 0.05 0.05 0.05 0.05 0.04 0.05 0.08 0.11 0.15 0.20 0.21 0.14 0.09 0.09 0.07 0.06 0.06 0.06
0.00 0.00 0.00 0.00 0.00 0.01 0.01 0.02 0.02 0.03 0.07 0.04 0.02 0.04 0.10 0.05 0.01 0.02 0.04 0.08 0.10 0.07 0.04 0.04 0.05 0.03 0.01 0.02 0.03 0.03 0.03 0.03 0.03 0.02 0.02 0.05 0.08 0.09 0.12 0.11 0.12 0.12 0.08 0.05 0.03 0.02 0.01 0.01 0.01
0.00 0.00 0.00 0.00 0.00 0.01 0.02 0.03 0.03 0.03 0.05 0.04 0.02 0.04 0.13 0.04 0.01 0.03 0.06 0.09 0.15 0.19 0.18 0.16 0.11 0.03 0.02 0.02 0.01 0.02 0.02 0.02 0.01 0.02 0.03 0.07 0.12 0.13 0.14 0.09 0.09 0.06 0.03 0.02 0.01 0.00 0.00 0.00 0.00
0.00 0.00 0.00 0.00 0.00 0.01 0.01 0.02 0.02 0.02 0.02 0.03 0.03 0.04 0.08 0.03 0.02 0.03 0.08 0.10 0.11 0.26 0.26 0.08 0.06 0.01 0.01 0.01 0.01 0.01 0.01 0.01 0.02 0.05 0.04 0.09 0.16 0.19 0.15 0.11 0.06 0.03 0.01 0.01 0.01 0.00 0.00 0.00 0.00
0.00 0.00 0.00 0.00 0.00 0.00 0.00 0.01 0.02 0.02 0.03 0.04 0.04 0.07 0.08 0.04 0.03 0.06 0.10 0.10 0.08 0.07 0.05 0.03 0.02 0.01 0.01 0.01 0.02 0.02 0.02 0.03 0.03 0.04 0.05 0.10 0.11 0.08 0.08 0.10 0.07 0.04 0.03 0.04 0.03 0.01 0.01 0.00 0.00
0.00 0.00 0.00 0.00 0.00 0.00 0.00 0.00 0.01 0.02 0.02 0.05 0.07 0.15 0.16 0.08 0.05 0.08 0.13 0.13 0.14 0.08 0.03 0.02 0.01 0.01 0.01 0.01 0.02 0.02 0.02 0.02 0.03 0.03 0.02 0.07 0.12 0.11 0.10 0.12 0.11 0.10 0.08 0.08 0.05 0.03 0.01 0.01 0.01
0.00 0.00 0.00 0.00 0.00 0.00 0.00 0.00 0.00 0.01 0.02 0.03 0.06 0.13 0.14 0.08 0.07 0.11 0.14 0.19 0.23 0.17 0.07 0.03 0.01 0.01 0.01 0.01 0.01 0.01 0.01 0.01 0.01 0.02 0.02 0.05 0.07 0.07 0.08 0.09 0.10 0.09 0.09 0.08 0.06 0.04 0.03 0.04 0.03
0.00 0.00 0.00 0.00 0.00 0.00 0.00 0.00 0.00 0.00 0.01 0.01 0.04 0.06 0.10 0.07 0.07 0.14 0.20 0.24 0.27 0.22 0.10 0.05 0.02 0.01 0.01 0.01 0.01 0.01 0.01 0.02 0.03 0.03 0.03 0.03 0.05 0.09 0.10 0.12 0.14 0.14 0.12 0.11 0.09 0.09 0.08 0.07 0.05
0.00 0.00 0.00 0.00 0.00 0.00 0.00 0.00 0.00 0.00 0.00 0.01 0.02 0.04 0.07 0.10 0.09 0.16 0.31 0.33 0.36 0.29 0.14 0.10 0.06 0.04 0.03 0.02 0.01 0.01 0.03 0.04 0.06 0.08 0.06 0.04 0.06 0.12 0.15 0.19 0.21 0.21 0.20 0.19 0.17 0.16 0.12 0.10 0.08
0.00 0.00 0.00 0.00 0.00 0.00 0.00 0.00 0.00 0.00 0.00 0.00 0.00 0.02 0.04 0.08 0.10 0.12 0.20 0.33 0.42 0.35 0.27 0.19 0.08 0.07 0.05 0.02 0.02 0.02 0.04 0.06 0.08 0.10 0.10 0.08 0.10 0.16 0.23 0.31 0.37 0.40 0.38 0.37 0.37 0.31 0.25 0.21 0.18
0.00 0.00 0.00 0.00 0.00 0.00 0.00 0.00 0.00 0.00 0.00 0.00 0.00 0.01 0.03 0.07 0.10 0.13 0.18 0.27 0.36 0.35 0.28 0.20 0.15 0.11 0.08 0.07 0.06 0.06 0.08 0.11 0.14 0.18 0.19 0.22 0.28 0.39 0.53 0.65 0.68 0.65 0.62 0.59 0.56 0.49 0.44 0.39 0.33
0.00 0.00 0.00 0.00 0.00 0.00 0.00 0.00 0.00 0.00 0.00 0.00 0.00 0.00 0.01 0.04 0.08 0.11 0.16 0.29 0.42 0.44 0.37 0.29 0.21 0.17 0.19 0.22 0.22 0.22 0.24 0.31 0.39 0.48 0.59 0.72 0.84 0.91 0.98 0.99 0.95 0.88 0.87 0.86 0.78 0.67 0.57 0.47 0.38
0.00 0.00 0.00 0.00 0.00 0.00 0.00 0.00 0.00 0.00 0.00 0.00 0.00 0.00 0.01 0.02 0.05 0.10 0.21 0.45 0.71 0.63 0.51 0.36 0.28 0.32 0.41 0.48 0.55 0.72 0.82 0.93 1.14 1.32 1.49 1.63 1.64 1.59 1.54 1.52 1.46 1.30 1.20 1.08 0.89 0.73 0.61 0.47 0.38
0.00 0.00 0.00 0.00 0.00 0.00 0.00 0.01 0.01 0.01 0.01 0.01 0.01 0.01 0.01 0.02 0.04 0.10 0.23 0.48 0.66 0.66 0.63 0.59 0.64 0.70 0.79 1.01 1.31 1.63 1.89 2.11 2.32 2.51 2.62 2.56 2.40 2.24 2.10 1.97 1.77 1.56 1.40 1.19 0.93 0.74 0.61 0.49 0.40
0.00 0.00 0.00 0.00 0.00 0.00 0.00 0.02 0.02 0.02 0.01 0.01 0.02 0.03 0.03 0.04 0.06 0.10 0.19 0.32 0.51 0.64 0.71 0.76 0.93 1.16 1.37 1.73 2.14 2.55 2.98 3.20 3.22 3.12 3.02 2.87 2.69 2.50 2.24 1.99 1.81 1.60 1.37 1.17 0.97 0.76 0.62 0.48 0.37
0.00 0.00 0.00 0.00 0.00 0.00 0.00 0.02 0.04 0.03 0.03 0.03 0.04 0.04 0.05 0.06 0.08 0.11 0.18 0.27 0.40 0.55 0.66 0.80 1.05 1.46 1.93 2.54 3.06 3.42 3.72 3.80 3.72 3.50 3.20 2.86 2.59 2.36 2.06 1.81 1.58 1.35 1.17 1.00 0.81 0.62 0.47 0.37 0.28
0.00 0.00 0.00 0.00 0.00 0.00 0.00 0.02 0.04 0.04 0.04 0.06 0.07 0.07 0.08 0.09 0.12 0.15 0.22 0.31 0.47 0.63 0.85 1.10 1.42 1.94 2.47 2.99 3.42 3.67 3.74 3.68 3.48 3.15 2.78 2.36 2.07 1.88 1.65 1.38 1.17 0.97 0.79 0.65 0.49 0.39 0.32 0.26 0.22
0.00 0.00 0.00 0.00 0.00 0.01 0.01 0.03 0.05 0.06 0.05 0.06 0.08 0.10 0.11 0.14 0.17 0.20 0.25 0.34 0.51 0.77 1.04 1.33 1.65 2.10 2.53 2.83 3.14 3.23 3.25 3.16 2.88 2.51 2.10 1.75 1.51 1.27 1.08 0.90 0.74 0.60 0.46 0.37 0.31 0.26 0.23 0.21 0.19
0.00 0.00 0.00 0.00 0.00 0.01 0.01 0.03 0.09 0.11 0.07 0.06 0.08 0.11 0.13 0.14 0.17 0.23 0.30 0.41 0.56 0.78 1.05 1.25 1.49 1.78 2.03 2.27 2.57 2.61 2.46 2.27 2.07 1.80 1.52 1.28 1.08 0.90 0.72 0.55 0.43 0.34 0.28 0.25 0.23 0.22 0.20 0.17 0.15
0.00 0.00 0.00 0.00 0.00 0.01 0.03 0.07 0.18 0.17 0.12 0.10 0.10 0.11 0.15 0.18 0.21 0.27 0.35 0.44 0.58 0.72 0.88 1.03 1.13 1.29 1.40 1.47 1.57 1.57 1.47 1.33 1.23 1.09 0.93 0.80 0.66 0.51 0.40 0.33 0.29 0.25 0.22 0.20 0.18 0.16 0.14 0.11 0.09
0.00 0.00 0.00 0.00 0.00 0.01 0.04 0.14 0.24 0.25 0.21 0.16 0.15 0.15 0.19 0.22 0.25 0.31 0.38 0.44 0.51 0.56 0.62 0.63 0.63 0.69 0.72 0.71 0.74 0.75 0.71 0.69 0.66 0.61 0.53 0.44 0.37 0.32 0.28 0.24 0.22 0.20 0.17 0.13 0.11 0.10 0.08 0.07 0.07
0.00 0.00 0.00 0.00 0.00 0.01 0.04 0.13 0.23 0.33 0.34 0.29 0.24 0.22 0.24 0.26 0.29 0.34 0.37 0.38 0.38 0.37 0.36 0.35 0.36 0.37 0.35 0.35 0.35 0.37 0.38 0.36 0.36 0.35 0.33 0.28 0.24 0.21 0.17 0.14 0.11 0.10 0.08 0.06 0.05 0.05 0.04 0.05 0.05
0.00 0.00 0.00 0.00 0.00 0.00 0.03 0.13 0.21 0.38 0.46 0.47 0.43 0.35 0.33 0.37 0.42 0.44 0.41 0.34 0.31 0.29 0.26 0.25 0.27 0.25 0.22 0.22 0.23 0.21 0.20 0.19 0.17 0.16 0.16 0.15 0.13 0.11 0.10 0.08 0.07 0.06 0.05 0.05 0.06 0.06 0.06 0.07 0.07
0.00 0.00 0.00 0.00 0.00 0.00 0.04 0.19 0.25 0.45 0.61 0.60 0.55 0.53 0.51 0.56 0.58 0.56 0.50 0.38 0.31 0.27 0.23 0.20 0.19 0.17 0.16 0.15 0.13 0.13 0.13 0.12 0.11 0.11 0.11 0.10 0.09 0.08 0.08 0.08 0.07 0.06 0.06 0.07 0.07 0.07 0.07 0.08 0.08

GEFSSGP_prec_meanprecacc_072.txt.gz
Total_Precipitation_Accumulation
0.00 0.00 0.00 0.00 0.00 0.00 0.01 0.02 0.03 0.04 0.05 0.03 0.04 0.05 0.05 0.04 0.08 0.33 0.11 0.05 0.05 0.01 0.00 0.01 0.01 0.02 0.03 0.03 0.05 0.06 0.07 0.07 0.07 0.06 0.05 0.05 0.06 0.06 0.06 0.06 0.06 0.10 0.11 0.11 0.09 0.07 0.06 0.04 0.02
0.00 0.00 0.00 0.00 0.00 0.00 0.01 0.02 0.03 0.04 0.04 0.04 0.03 0.02 0.02 0.02 0.01 0.02 0.01 0.03 0.04 0.01 0.00 0.00 0.01 0.01 0.02 0.03 0.04 0.06 0.06 0.06 0.06 0.05 0.05 0.05 0.05 0.06 0.07 0.07 0.09 0.13 0.15 0.13 0.08 0.06 0.03 0.01 0.01
0.00 0.00 0.00 0.00 0.00 0.00 0.02 0.03 0.04 0.03 0.05 0.05 0.05 0.03 0.02 0.01 0.00 0.00 0.01 0.02 0.02 0.01 0.00 0.00 0.01 0.01 0.02 0.02 0.02 0.04 0.05 0.05 0.05 0.05 0.04 0.05 0.05 0.05 0.08 0.11 0.14 0.16 0.16 0.16 0.12 0.08 0.04 0.01 0.01
0.00 0.00 0.00 0.00 0.00 0.00 0.02 0.04 0.04 0.03 0.03 0.04 0.04 0.03 0.02 0.00 0.00 0.00 0.01 0.01 0.01 0.01 0.00 0.00 0.01 0.02 0.02 0.01 0.02 0.04 0.05 0.05 0.05 0.05 0.05 0.06 0.06 0.06 0.10 0.18 0.23 0.21 0.19 0.21 0.20 0.16 0.10 0.04 0.02
0.00 0.00 0.00 0.00 0.00 0.00 0.00 0.02 0.05 0.03 0.02 0.01 0.02 0.02 0.03 0.01 0.00 0.00 0.01 0.01 0.01 0.02 0.00 0.00 0.02 0.03 0.02 0.01 0.02 0.04 0.05 0.07 0.09 0.08 0.07 0.07 0.07 0.08 0.14 0.22 0.24 0.23 0.22 0.23 0.20 0.14 0.07 0.05 0.05
0.00 0.00 0.00 0.00 0.00 0.00 0.00 0.01 0.03 0.03 0.02 0.01 0.01 0.03 0.08 0.04 0.01 0.01 0.01 0.01 0.01 0.02 0.01 0.00 0.02 0.04 0.03 0.02 0.04 0.05 0.06 0.08 0.10 0.10 0.09 0.07 0.06 0.08 0.13 0.18 0.21 0.23 0.20 0.15 0.12 0.09 0.08 0.09 0.09
0.00 0.00 0.00 0.00 0.00 0.01 0.01 0.02 0.02 0.02 0.02 0.02 0.02 0.04 0.11 0.05 0.02 0.01 0.02 0.03 0.03 0.02 0.01 0.01 0.02 0.02 0.03 0.04 0.06 0.07 0.07 0.08 0.09 0.08 0.07 0.05 0.06 0.08 0.12 0.16 0.21 0.21 0.14 0.10 0.09 0.07 0.06 0.06 0.06
0.00 0.00 0.00 0.00 0.00 0.01 0.02 0.03 0.03 0.04 0.07 0.04 0.03 0.05 0.21 0.17 0.03 0.02 0.04 0.08 0.10 0.07 0.04 0.04 0.05 0.03 0.01 0.02 0.04 0.05 0.06 0.07 0.06 0.05 0.04 0.05 0.08 0.09 0.12 0.11 0.12 0.12 0.08 0.05 0.03 0.02 0.01 0.01 0.01
0.00 0.00 0.00 0.00 0.00 0.01 0.02 0.03 0.04 0.03 0.05 0.04 0.02 0.06 0.30 0.21 0.05 0.03 0.06 0.09 0.15 0.19 0.18 0.16 0.11 0.04 0.02 0.02 0.02 0.03 0.03 0.04 0.03 0.03 0.04 0.08 0.12 0.14 0.15 0.10 0.09 0.06 0.03 0.02 0.01 0.00 0.00 0.00 0.00
0.00 0.00 0.00 0.00 0.00 0.01 0.01 0.02 0.03 0.02 0.03 0.03 0.03 0.05 0.16 0.15 0.03 0.04 0.08 0.10 0.11 0.26 0.26 0.08 0.06 0.02 0.01 0.02 0.02 0.02 0.02 0.02 0.02 0.06 0.04 0.10 0.18 0.22 0.17 0.14 0.07 0.03 0.01 0.01 0.01 0.00 0.00 0.00 0.00
0.00 0.00 0.00 0.00 0.00 0.00 0.00 0.01 0.02 0.03 0.04 0.04 0.04 0.08 0.11 0.09 0.04 0.07 0.10 0.10 0.08 0.07 0.05 0.03 0.02 0.01 0.02 0.03 0.04 0.05 0.06 0.06 0.05 0.08 0.07 0.12 0.14 0.10 0.10 0.13 0.08 0.05 0.03 0.04 0.05 0.02 0.01 0.01 0.01
0.00 0.00 0.00 0.00 0.00 0.00 0.00 0.00 0.01 0.02 0.02 0.05 0.07 0.16 0.21 0.14 0.07 0.08 0.13 0.13 0.14 0.09 0.03 0.02 0.01 0.02 0.02 0.03 0.05 0.06 0.05 0.06 0.06 0.06 0.04 0.10 0.15 0.14 0.11 0.15 0.14 0.12 0.11 0.10 0.08 0.06 0.03 0.02 0.02
0.00 0.00 0.00 0.00 0.00 0.00 0.00 0.00 0.00 0.01 0.02 0.03 0.06 0.15 0.19 0.14 0.08 0.11 0.15 0.19 0.23 0.17 0.07 0.05 0.02 0.02 0.03 0.06 0.06 0.05 0.06 0.05 0.05 0.07 0.04 0.09 0.10 0.09 0.11 0.11 0.13 0.12 0.12 0.11 0.09 0.05 0.06 0.05 0.03
0.00 0.00 0.00 0.00 0.00 0.00 0.00 0.00 0.00 0.00 0.01 0.01 0.04 0.07 0.12 0.10 0.10 0.16 0.22 0.26 0.28 0.23 0.10 0.06 0.04 0.03 0.03 0.05 0.06 0.06 0.05 0.08 0.09 0.08 0.07 0.07 0.09 0.13 0.14 0.17 0.19 0.17 0.15 0.16 0.13 0.11 0.10 0.09 0.06
0.00 0.00 0.00 0.00 0.00 0.00 0.00 0.00 0.00 0.00 0.00 0.01 0.02 0.05 0.10 0.14 0.16 0.23 0.39 0.40 0.42 0.31 0.14 0.11 0.07 0.06 0.05 0.05 0.05 0.06 0.05 0.08 0.10 0.13 0.10 0.08 0.10 0.19 0.22 0.25 0.28 0.27 0.25 0.25 0.22 0.21 0.16 0.14 0.13
0.00 0.00 0.00 0.00 0.00 0.00 0.00 0.00 0.00 0.00 0.00 0.01 0.01 0.05 0.09 0.15 0.26 0.28 0.41 0.49 0.48 0.37 0.29 0.21 0.09 0.08 0.07 0.06 0.07 0.06 0.08 0.11 0.13 0.17 0.16 0.14 0.16 0.22 0.31 0.39 0.44 0.46 0.45 0.44 0.45 0.38 0.32 0.29 0.27
0.00 0.00 0.00 0.00 0.00 0.00 0.00 0.01 0.01 0.00 0.00 0.01 0.02 0.05 0.09 0.17 0.23 0.28 0.35 0.46 0.46 0.40 0.31 0.22 0.17 0.13 0.11 0.11 0.11 0.11 0.14 0.20 0.24 0.27 0.27 0.30 0.34 0.44 0.60 0.74 0.77 0.73 0.69 0.67 0.63 0.58 0.54 0.50 0.46
0.00 0.00 0.00 0.00 0.00 0.00 0.00 0.01 0.01 0.01 0.01 0.03 0.06 0.07 0.08 0.14 0.25 0.36 0.38 0.47 0.52 0.51 0.42 0.34 0.25 0.22 0.25 0.28 0.28 0.31 0.34 0.42 0.50 0.59 0.70 0.81 0.95 1.01 1.07 1.07 1.03 0.97 0.96 0.96 0.89 0.80 0.70 0.61 0.53
0.00 0.00 0.00 0.00 0.00 0.00 0.01 0.01 0.02 0.01 0.03 0.06 0.13 0.21 0.26 0.20 0.20 0.31 0.34 0.53 0.79 0.72 0.61 0.44 0.37 0.43 0.51 0.57 0.64 0.82 0.95 1.08 1.30 1.49 1.67 1.79 1.77 1.71 1.65 1.62 1.55 1.38 1.28 1.19 1.01 0.88 0.76 0.64 0.56
0.00 0.00 0.00 0.00 0.00 0.00 0.01 0.03 0.03 0.03 0.06 0.13 0.25 0.35 0.46 0.43 0.32 0.31 0.36 0.57 0.75 0.75 0.74 0.70 0.77 0.85 0.94 1.16 1.44 1.78 2.08 2.32 2.52 2.69 2.78 2.72 2.57 2.40 2.26 2.12 1.90 1.68 1.51 1.30 1.07 0.89 0.77 0.66 0.57
0.00 0.00 0.00 0.00 0.01 0.01 0.01 0.05 0.06 0.04 0.06 0.11 0.28 0.37 0.43 0.42 0.39 0.34 0.35 0.45 0.64 0.76 0.83 0.87 1.09 1.33 1.56 1.94 2.35 2.76 3.19 3.42 3.48 3.40 3.27 3.09 2.90 2.71 2.44 2.17 1.96 1.74 1.49 1.28 1.08 0.89 0.76 0.62 0.52
0.00 0.00 0.00 0.00 0.01 0.02 0.03 0.09 0.10 0.07 0.07 0.09 0.13 0.20 0.27 0.25 0.27 0.31 0.37 0.44 0.55 0.69 0.77 0.91 1.17 1.62 2.12 2.76 3.28 3.65 3.95 4.06 4.03 3.83 3.52 3.16 2.86 2.59 2.25 1.97 1.72 1.47 1.28 1.11 0.91 0.70 0.57 0.47 0.38
0.00 0.00 0.00 0.00 0.00 0.01 0.02 0.10 0.18 0.12 0.11 0.10 0.10 0.11 0.15 0.19 0.21 0.29 0.33 0.43 0.62 0.78 0.98 1.23 1.56 2.09 2.63 3.16 3.63 3.92 4.04 4.03 3.85 3.51 3.12 2.71 2.36 2.08 1.80 1.52 1.27 1.06 0.86 0.72 0.56 0.46 0.39 0.35 0.31
0.00 0.00 0.00 0.00 0.00 0.02 0.02 0.08 0.21 0.26 0.17 0.10 0.10 0.12 0.15 0.19 0.21 0.27 0.30 0.38 0.58 0.85 1.14 1.43 1.75 2.20 2.63 2.94 3.29 3.43 3.52 3.44 3.17 2.80 2.38 2.01 1.73 1.45 1.24 1.03 0.85 0.68 0.54 0.46 0.40 0.34 0.30 0.28 0.28
0.00 0.00 0.00 0.00 0.00 0.02 0.04 0.12 0.28 0.41 0.27 0.11 0.09 0.12 0.15 0.17 0.19 0.25 0.32 0.43 0.58 0.81 1.08 1.29 1.54 1.84 2.11 2.36 2.68 2.77 2.66 2.49 2.29 2.03 1.76 1.51 1.27 1.04 0.85 0.66 0.53 0.42 0.35 0.32 0.31 0.30 0.28 0.24 0.22
0.00 0.00 0.00 0.00 0.01 0.03 0.07 0.20 0.33 0.37 0.26 0.13 0.11 0.12 0.15 0.19 0.22 0.28 0.36 0.45 0.60 0.73 0.91 1.06 1.17 1.33 1.45 1.53 1.65 1.67 1.60 1.47 1.39 1.26 1.10 0.95 0.78 0.61 0.48 0.39 0.34 0.31 0.28 0.25 0.23 0.22 0.20 0.17 0.14
0.00 0.00 0.00 0.00 0.01 0.06 0.15 0.29 0.36 0.34 0.25 0.18 0.16 0.15 0.19 0.23 0.26 0.32 0.39 0.45 0.53 0.57 0.64 0.64 0.65 0.71 0.75 0.75 0.79 0.81 0.79 0.78 0.75 0.70 0.61 0.52 0.45 0.39 0.34 0.28 0.26 0.25 0.22 0.19 0.16 0.14 0.13 0.12 0.11
0.00 0.00 0.00 0.01 0.03 0.10 0.18 0.29 0.39 0.45 0.41 0.32 0.26 0.23 0.25 0.27 0.30 0.35 0.38 0.39 0.39 0.38 0.38 0.36 0.37 0.38 0.36 0.37 0.38 0.40 0.41 0.41 0.40 0.40 0.39 0.35 0.31 0.27 0.23 0.18 0.16 0.14 0.12 0.11 0.10 0.10 0.09 0.09 0.10
0.00 0.00 0.00 0.00 0.02 0.08 0.20 0.42 0.51 0.61 0.59 0.52 0.46 0.37 0.34 0.38 0.43 0.45 0.42 0.35 0.32 0.30 0.27 0.26 0.28 0.26 0.23 0.23 0.25 0.23 0.22 0.22 0.20 0.20 0.21 0.20 0.18 0.16 0.14 0.12 0.11 0.10 0.10 0.10 0.11 0.11 0.11 0.12 0.12
0.01 0.01 0.00 0.01 0.01 0.03 0.18 0.55 0.67 0.74 0.72 0.65 0.59 0.55 0.53 0.57 0.59 0.57 0.51 0.39 0.32 0.28 0.24 0.21 0.20 0.18 0.16 0.15 0.14 0.14 0.14 0.13 0.13 0.13 0.13 0.12 0.12 0.12 0.11 0.11 0.11 0.11 0.11 0.11 0.12 0.12 0.11 0.12 0.12

GEFSSGP_prec_meanprecacc_078.txt.gz
Total_Precipitation_Accumulation
0.00 0.00 0.00 0.00 0.00 0.00 0.01 0.03 0.04 0.07 0.12 0.12 0.14 0.16 0.13 0.08 0.15 0.42 0.21 0.10 0.06 0.01 0.00 0.01 0.01 0.02 0.03 0.03 0.05 0.06 0.07 0.07 0.07 0.06 0.05 0.05 0.06 0.06 0.06 0.06 0.06 0.10 0.11 0.11 0.09 0.08 0.06 0.04 0.02
0.00 0.00 0.00 0.00 0.00 0.00 0.01 0.02 0.05 0.06 0.08 0.09 0.11 0.12 0.08 0.08 0.03 0.03 0.03 0.04 0.05 0.01 0.00 0.00 0.01 0.01 0.02 0.03 0.04 0.06 0.06 0.06 0.06 0.05 0.05 0.05 0.05 0.06 0.07 0.07 0.09 0.13 0.15 0.13 0.08 0.06 0.03 0.01 0.01
0.00 0.00 0.00 0.00 0.00 0.00 0.02 0.04 0.05 0.05 0.07 0.08 0.12 0.20 0.14 0.07 0.02 0.01 0.01 0.03 0.03 0.01 0.00 0.00 0.01 0.01 0.02 0.02 0.02 0.04 0.05 0.05 0.05 0.05 0.04 0.05 0.05 0.05 0.08 0.11 0.14 0.16 0.16 0.16 0.12 0.08 0.04 0.01 0.01
0.00 0.00 0.00 0.00 0.00 0.00 0.02 0.05 0.06 0.04 0.04 0.06 0.10 0.26 0.27 0.07 0.02 0.01 0.01 0.02 0.02 0.02 0.00 0.00 0.01 0.02 0.02 0.01 0.02 0.04 0.05 0.05 0.05 0.05 0.05 0.06 0.06 0.06 0.10 0.18 0.23 0.21 0.19 0.21 0.20 0.16 0.10 0.04 0.02
0.00 0.00 0.00 0.00 0.00 0.00 0.00 0.03 0.06 0.04 0.03 0.03 0.05 0.20 0.28 0.11 0.03 0.02 0.02 0.02 0.02 0.02 0.00 0.00 0.02 0.03 0.02 0.01 0.02 0.04 0.05 0.07 0.09 0.09 0.08 0.08 0.07 0.09 0.14 0.22 0.24 0.23 0.22 0.23 0.20 0.14 0.07 0.05 0.05
0.00 0.00 0.00 0.00 0.00 0.01 0.00 0.01 0.04 0.04 0.03 0.04 0.06 0.15 0.30 0.18 0.07 0.04 0.03 0.02 0.01 0.02 0.01 0.00 0.02 0.04 0.03 0.03 0.04 0.06 0.07 0.09 0.11 0.11 0.10 0.07 0.06 0.09 0.14 0.18 0.21 0.23 0.20 0.15 0.12 0.09 0.08 0.09 0.09
0.00 0.00 0.00 0.00 0.00 0.01 0.01 0.02 0.03 0.04 0.05 0.05 0.08 0.16 0.31 0.22 0.11 0.06 0.05 0.05 0.03 0.03 0.01 0.01 0.02 0.03 0.04 0.06 0.07 0.08 0.09 0.09 0.10 0.09 0.07 0.06 0.06 0.08 0.12 0.16 0.21 0.21 0.14 0.10 0.09 0.07 0.06 0.06 0.06
0.00 0.00 0.00 0.00 0.00 0.01 0.02 0.03 0.04 0.06 0.09 0.06 0.07 0.16 0.44 0.40 0.16 0.10 0.09 0.11 0.11 0.08 0.04 0.04 0.06 0.03 0.02 0.03 0.06 0.07 0.08 0.08 0.07 0.06 0.04 0.06 0.08 0.10 0.13 0.11 0.12 0.12 0.08 0.05 0.03 0.02 0.01 0.01 0.01
0.00 0.00 0.00 0.00 0.00 0.01 0.02 0.03 0.04 0.05 0.07 0.06 0.06 0.12 0.38 0.39 0.21 0.13 0.11 0.13 0.17 0.20 0.18 0.16 0.11 0.04 0.02 0.03 0.02 0.04 0.04 0.04 0.04 0.03 0.04 0.08 0.12 0.14 0.15 0.10 0.09 0.06 0.03 0.02 0.01 0.00 0.00 0.00 0.00
0.00 0.00 0.00 0.00 0.00 0.01 0.01 0.02 0.03 0.04 0.04 0.06 0.08 0.09 0.20 0.23 0.14 0.12 0.14 0.14 0.14 0.28 0.26 0.09 0.06 0.02 0.01 0.02 0.02 0.03 0.02 0.02 0.02 0.06 0.04 0.10 0.18 0.22 0.17 0.14 0.08 0.03 0.02 0.01 0.01 0.01 0.01 0.00 0.00
0.00 0.00 0.00 0.00 0.00 0.00 0.00 0.01 0.02 0.04 0.05 0.06 0.09 0.15 0.17 0.19 0.16 0.18 0.19 0.19 0.15 0.12 0.07 0.04 0.02 0.02 0.02 0.03 0.04 0.06 0.06 0.06 0.05 0.08 0.07 0.12 0.14 0.11 0.11 0.13 0.10 0.06 0.04 0.05 0.05 0.02 0.01 0.01 0.01
0.00 0.00 0.00 0.00 0.00 0.00 0.00 0.00 0.01 0.03 0.03 0.05 0.10 0.21 0.28 0.30 0.32 0.33 0.32 0.32 0.32 0.20 0.09 0.04 0.03 0.02 0.03 0.04 0.05 0.06 0.05 0.06 0.06 0.06 0.04 0.11 0.17 0.16 0.14 0.18 0.15 0.14 0.12 0.12 0.09 0.07 0.05 0.03 0.02
0.00 0.00 0.00 0.00 0.00 0.00 0.00 0.00 0.00 0.01 0.02 0.04 0.07 0.16 0.23 0.29 0.32 0.41 0.43 0.50 0.60 0.46 0.22 0.11 0.05 0.04 0.04 0.07 0.07 0.06 0.07 0.07 0.07 0.09 0.07 0.13 0.13 0.13 0.15 0.15 0.16 0.14 0.14 0.14 0.11 0.07 0.08 0.07 0.05
0.00 0.00 0.00 0.00 0.00 0.00 0.00 0.00 0.00 0.01 0.01 0.02 0.05 0.10 0.17 0.20 0.28 0.46 0.58 0.68 0.82 0.67 0.33 0.19 0.11 0.07 0.07 0.09 0.10 0.09 0.08 0.13 0.20 0.17 0.14 0.15 0.15 0.17 0.19 0.21 0.22 0.20 0.17 0.18 0.16 0.13 0.12 0.11 0.09
0.00 0.00 0.00 0.00 0.00 0.00 0.00 0.00 0.00 0.00 0.01 0.01 0.03 0.08 0.16 0.25 0.32 0.54 0.81 0.91 1.12 0.85 0.46 0.34 0.20 0.16 0.16 0.14 0.13 0.12 0.13 0.16 0.25 0.28 0.24 0.20 0.20 0.25 0.27 0.29 0.31 0.29 0.28 0.27 0.25 0.24 0.19 0.16 0.16
0.00 0.00 0.00 0.00 0.00 0.00 0.00 0.01 0.01 0.01 0.00 0.01 0.03 0.08 0.20 0.33 0.47 0.61 0.89 1.02 1.19 1.01 0.71 0.58 0.40 0.30 0.28 0.18 0.17 0.15 0.19 0.24 0.26 0.30 0.32 0.28 0.27 0.31 0.38 0.45 0.50 0.51 0.49 0.48 0.49 0.43 0.36 0.33 0.31
0.00 0.00 0.00 0.00 0.00 0.00 0.00 0.02 0.02 0.01 0.01 0.02 0.04 0.08 0.21 0.35 0.43 0.61 0.88 1.06 1.16 1.09 0.88 0.74 0.62 0.43 0.37 0.32 0.27 0.26 0.30 0.37 0.43 0.48 0.47 0.48 0.48 0.56 0.72 0.84 0.86 0.80 0.75 0.72 0.67 0.63 0.58 0.54 0.50
0.00 0.00 0.00 0.00 0.00 0.00 0.01 0.03 0.03 0.01 0.02 0.04 0.08 0.11 0.20 0.34 0.53 0.74 0.94 1.20 1.22 1.22 1.12 0.94 0.77 0.59 0.52 0.51 0.47 0.50 0.54 0.62 0.71 0.82 0.92 1.04 1.14 1.18 1.25 1.23 1.16 1.06 1.04 1.03 0.95 0.85 0.75 0.65 0.58
0.00 0.00 0.00 0.00 0.00 0.00 0.02 0.03 0.04 0.04 0.04 0.09 0.16 0.25 0.37 0.40 0.55 0.86 1.05 1.32 1.55 1.43 1.36 1.12 0.91 0.91 0.87 0.84 0.85 1.02 1.14 1.29 1.52 1.73 1.89 2.01 2.00 1.94 1.89 1.85 1.73 1.53 1.39 1.28 1.10 0.95 0.82 0.69 0.59
0.00 0.00 0.00 0.01 0.01 0.01 0.02 0.05 0.06 0.07 0.09 0.17 0.31 0.42 0.60 0.73 0.76 0.95 1.20 1.44 1.57 1.52 1.41 1.27 1.24 1.28 1.33 1.48 1.70 2.01 2.30 2.54 2.76 2.97 3.03 2.99 2.83 2.68 2.54 2.39 2.15 1.90 1.71 1.46 1.19 0.98 0.83 0.71 0.61
0.00 0.00 0.01 0.02 0.03 0.04 0.04 0.10 0.11 0.10 0.11 0.16 0.33 0.44 0.57 0.77 0.89 0.87 0.93 1.08 1.24 1.34 1.38 1.34 1.50 1.76 1.95 2.30 2.68 3.05 3.49 3.73 3.78 3.70 3.60 3.43 3.23 3.02 2.72 2.46 2.24 1.98 1.68 1.42 1.18 0.96 0.82 0.67 0.55
0.00 0.00 0.01 0.02 0.03 0.07 0.05 0.15 0.18 0.14 0.16 0.16 0.20 0.27 0.38 0.44 0.58 0.72 0.80 0.92 1.06 1.22 1.30 1.35 1.54 1.99 2.48 3.09 3.60 3.95 4.24 4.37 4.37 4.22 3.94 3.56 3.24 2.96 2.61 2.31 1.99 1.68 1.42 1.21 0.99 0.77 0.61 0.51 0.41
0.00 0.00 0.00 0.02 0.02 0.05 0.05 0.16 0.28 0.24 0.21 0.21 0.20 0.19 0.23 0.30 0.37 0.51 0.62 0.77 0.96 1.13 1.32 1.54 1.84 2.38 2.91 3.45 3.91 4.19 4.30 4.29 4.12 3.81 3.45 3.05 2.66 2.35 2.05 1.77 1.51 1.26 1.01 0.80 0.61 0.49 0.42 0.37 0.33
0.00 0.00 0.00 0.01 0.02 0.07 0.07 0.15 0.34 0.44 0.35 0.27 0.23 0.22 0.24 0.29 0.38 0.45 0.49 0.61 0.78 1.03 1.32 1.60 1.90 2.37 2.80 3.12 3.51 3.70 3.80 3.75 3.49 3.07 2.60 2.20 1.90 1.64 1.45 1.24 1.03 0.83 0.65 0.53 0.44 0.36 0.32 0.30 0.30
0.00 0.00 0.00 0.01 0.02 0.07 0.08 0.21 0.43 0.59 0.50 0.39 0.28 0.26 0.24 0.26 0.32 0.39 0.45 0.54 0.68 0.90 1.18 1.39 1.62 1.93 2.21 2.48 2.81 2.93 2.86 2.72 2.55 2.27 1.95 1.66 1.40 1.17 0.97 0.79 0.66 0.53 0.42 0.38 0.35 0.33 0.30 0.26 0.24
0.00 0.00 0.00 0.01 0.03 0.07 0.13 0.33 0.51 0.58 0.47 0.32 0.26 0.23 0.23 0.25 0.27 0.35 0.46 0.55 0.65 0.77 0.95 1.12 1.24 1.39 1.51 1.60 1.73 1.77 1.72 1.61 1.54 1.40 1.21 1.04 0.84 0.67 0.53 0.45 0.39 0.35 0.30 0.27 0.25 0.24 0.21 0.19 0.16
0.00 0.00 0.00 0.01 0.02 0.09 0.26 0.47 0.65 0.64 0.51 0.34 0.26 0.22 0.25 0.27 0.28 0.34 0.42 0.50 0.56 0.60 0.66 0.67 0.68 0.75 0.79 0.79 0.86 0.92 0.90 0.88 0.83 0.76 0.66 0.56 0.48 0.41 0.36 0.31 0.29 0.26 0.23 0.20 0.17 0.15 0.14 0.13 0.13
0.00 0.00 0.00 0.01 0.05 0.13 0.26 0.45 0.68 0.88 0.79 0.60 0.45 0.32 0.29 0.30 0.32 0.37 0.40 0.41 0.41 0.40 0.39 0.37 0.39 0.40 0.38 0.39 0.40 0.43 0.45 0.44 0.42 0.42 0.41 0.37 0.33 0.29 0.24 0.20 0.17 0.15 0.13 0.12 0.11 0.11 0.11 0.11 0.12
0.01 0.01 0.01 0.03 0.06 0.14 0.32 0.62 0.77 0.91 0.91 0.80 0.63 0.46 0.39 0.41 0.45 0.46 0.44 0.36 0.33 0.31 0.28 0.27 0.28 0.26 0.24 0.24 0.26 0.24 0.23 0.23 0.21 0.21 0.22 0.20 0.18 0.16 0.15 0.13 0.12 0.11 0.11 0.11 0.12 0.12 0.13 0.13 0.14
0.02 0.02 0.02 0.03 0.05 0.08 0.31 0.85 1.06 1.18 1.12 0.93 0.78 0.66 0.59 0.60 0.60 0.58 0.52 0.40 0.33 0.29 0.25 0.21 0.20 0.18 0.17 0.16 0.14 0.14 0.14 0.14 0.13 0.13 0.13 0.13 0.12 0.12 0.11 0.11 0.11 0.11 0.11 0.12 0.12 0.13 0.13 0.14 0.14

GEFSSGP_prec_meanprecacc_084.txt.gz
Total_Precipitation_Accumulation
0.00 0.00 0.00 0.00 0.00 0.00 0.01 0.03 0.04 0.07 0.12 0.12 0.15 0.18 0.17 0.14 0.24 0.51 0.23 0.10 0.06 0.01 0.00 0.01 0.01 0.02 0.03 0.03 0.05 0.06 0.07 0.07 0.07 0.06 0.05 0.05 0.06 0.06 0.07 0.06 0.07 0.10 0.12 0.11 0.09 0.08 0.06 0.04 0.02
0.00 0.00 0.00 0.00 0.00 0.00 0.01 0.02 0.05 0.06 0.08 0.09 0.12 0.13 0.11 0.11 0.08 0.07 0.04 0.05 0.05 0.01 0.00 0.00 0.01 0.02 0.02 0.03 0.04 0.06 0.06 0.06 0.06 0.05 0.05 0.05 0.05 0.06 0.07 0.07 0.09 0.13 0.15 0.13 0.09 0.06 0.03 0.01 0.01
0.00 0.00 0.00 0.00 0.00 0.00 0.02 0.04 0.05 0.05 0.07 0.09 0.12 0.24 0.25 0.13 0.07 0.05 0.02 0.03 0.04 0.01 0.00 0.00 0.01 0.02 0.02 0.02 0.02 0.04 0.05 0.05 0.05 0.05 0.04 0.05 0.05 0.05 0.08 0.11 0.14 0.16 0.16 0.16 0.12 0.08 0.04 0.01 0.01
0.00 0.00 0.00 0.00 0.00 0.00 0.02 0.05 0.06 0.04 0.04 0.07 0.11 0.29 0.39 0.13 0.08 0.06 0.03 0.03 0.03 0.02 0.00 0.00 0.01 0.02 0.02 0.01 0.02 0.04 0.05 0.05 0.05 0.05 0.05 0.06 0.06 0.06 0.10 0.18 0.23 0.21 0.19 0.21 0.20 0.16 0.10 0.04 0.02
0.00 0.00 0.00 0.00 0.00 0.00 0.01 0.03 0.06 0.04 0.03 0.03 0.06 0.22 0.37 0.17 0.06 0.05 0.04 0.03 0.03 0.02 0.00 0.01 0.02 0.03 0.02 0.01 0.02 0.04 0.05 0.07 0.09 0.09 0.08 0.08 0.07 0.09 0.14 0.22 0.24 0.23 0.22 0.23 0.20 0.14 0.07 0.05 0.05
0.00 0.00 0.00 0.00 0.00 0.01 0.00 0.01 0.04 0.04 0.03 0.04 0.06 0.16 0.35 0.25 0.15 0.09 0.07 0.05 0.03 0.03 0.01 0.01 0.02 0.04 0.03 0.03 0.04 0.06 0.07 0.09 0.11 0.11 0.10 0.07 0.06 0.09 0.14 0.18 0.21 0.23 0.20 0.15 0.12 0.09 0.08 0.09 0.09
0.00 0.00 0.00 0.00 0.00 0.01 0.01 0.02 0.03 0.04 0.05 0.05 0.09 0.17 0.35 0.33 0.23 0.16 0.13 0.10 0.06 0.04 0.03 0.02 0.02 0.03 0.04 0.06 0.08 0.09 0.09 0.09 0.10 0.09 0.08 0.06 0.06 0.08 0.12 0.16 0.21 0.21 0.14 0.10 0.09 0.07 0.06 0.06 0.06
0.00 0.00 0.00 0.00 0.00 0.01 0.02 0.03 0.04 0.06 0.09 0.06 0.08 0.19 0.47 0.53 0.30 0.23 0.22 0.24 0.18 0.11 0.07 0.07 0.07 0.04 0.03 0.04 0.07 0.08 0.08 0.08 0.08 0.07 0.05 0.06 0.09 0.10 0.13 0.11 0.13 0.13 0.08 0.05 0.03 0.02 0.01 0.01 0.01
0.00 0.00 0.00 0.00 0.00 0.01 0.02 0.03 0.05 0.05 0.07 0.06 0.06 0.12 0.40 0.47 0.34 0.26 0.25 0.25 0.26 0.27 0.24 0.20 0.14 0.05 0.04 0.04 0.03 0.05 0.06 0.06 0.05 0.04 0.05 0.08 0.12 0.14 0.16 0.10 0.09 0.06 0.03 0.02 0.01 0.00 0.00 0.00 0.00
0.00 0.00 0.00 0.00 0.00 0.01 0.01 0.02 0.03 0.04 0.04 0.06 0.08 0.10 0.22 0.29 0.28 0.27 0.27 0.25 0.25 0.40 0.35 0.14 0.11 0.07 0.06 0.05 0.04 0.04 0.03 0.03 0.03 0.07 0.04 0.10 0.19 0.22 0.18 0.14 0.08 0.04 0.03 0.02 0.01 0.01 0.01 0.01 0.01
0.00 0.00 0.00 0.00 0.00 0.00 0.00 0.01 0.02 0.04 0.05 0.06 0.09 0.16 0.18 0.23 0.27 0.36 0.34 0.29 0.23 0.22 0.16 0.12 0.13 0.12 0.12 0.11 0.09 0.09 0.08 0.07 0.06 0.08 0.08 0.12 0.15 0.11 0.11 0.14 0.10 0.07 0.05 0.06 0.06 0.03 0.02 0.01 0.02
0.00 0.00 0.00 0.00 0.00 0.00 0.00 0.00 0.01 0.03 0.03 0.06 0.10 0.22 0.30 0.35 0.39 0.44 0.48 0.48 0.45 0.31 0.20 0.13 0.12 0.13 0.13 0.13 0.13 0.14 0.11 0.10 0.08 0.07 0.05 0.11 0.17 0.16 0.14 0.18 0.16 0.15 0.14 0.14 0.11 0.09 0.06 0.05 0.04
0.00 0.00 0.00 0.00 0.00 0.00 0.00 0.00 0.00 0.01 0.02 0.04 0.07 0.17 0.26 0.34 0.41 0.54 0.60 0.72 0.78 0.60 0.35 0.22 0.15 0.14 0.15 0.18 0.16 0.13 0.13 0.12 0.11 0.11 0.08 0.13 0.13 0.13 0.16 0.17 0.18 0.16 0.17 0.18 0.15 0.11 0.11 0.10 0.07
0.00 0.00 0.00 0.00 0.00 0.00 0.00 0.00 0.00 0.01 0.01 0.02 0.05 0.11 0.19 0.25 0.37 0.60 0.77 0.89 1.05 0.89 0.51 0.35 0.25 0.21 0.23 0.23 0.21 0.17 0.14 0.17 0.24 0.22 0.17 0.17 0.16 0.19 0.21 0.24 0.27 0.25 0.23 0.25 0.22 0.18 0.17 0.16 0.12
0.00 0.00 0.00 0.00 0.00 0.00 0.00 0.00 0.01 0.01 0.01 0.02 0.04 0.09 0.19 0.30 0.41 0.66 0.98 1.13 1.38 1.15 0.76 0.58 0.40 0.38 0.38 0.36 0.31 0.28 0.26 0.28 0.34 0.36 0.32 0.28 0.27 0.32 0.35 0.39 0.41 0.39 0.37 0.36 0.33 0.32 0.28 0.24 0.22
0.00 0.00 0.00 0.00 0.00 0.00 0.00 0.01 0.02 0.01 0.01 0.02 0.03 0.09 0.22 0.37 0.54 0.71 1.05 1.23 1.42 1.25 1.01 0.89 0.66 0.55 0.55 0.45 0.37 0.33 0.37 0.40 0.41 0.44 0.49 0.45 0.43 0.46 0.53 0.61 0.65 0.64 0.61 0.60 0.61 0.53 0.45 0.41 0.39
0.00 0.00 0.00 0.00 0.00 0.00 0.00 0.02 0.03 0.02 0.01 0.03 0.04 0.09 0.23 0.37 0.47 0.70 1.03 1.25 1.37 1.28 1.07 0.98 0.94 0.77 0.70 0.64 0.54 0.55 0.59 0.63 0.67 0.72 0.71 0.73 0.72 0.76 0.89 1.03 1.04 0.96 0.89 0.85 0.79 0.73 0.67 0.61 0.56
0.00 0.00 0.00 0.00 0.00 0.00 0.01 0.03 0.04 0.03 0.03 0.06 0.09 0.13 0.23 0.37 0.57 0.80 1.05 1.36 1.41 1.43 1.35 1.20 1.14 1.03 0.95 0.92 0.81 0.84 0.88 0.94 1.03 1.15 1.25 1.37 1.48 1.48 1.51 1.47 1.37 1.26 1.20 1.16 1.06 0.94 0.82 0.73 0.65
0.00 0.00 0.00 0.00 0.00 0.01 0.02 0.04 0.05 0.05 0.06 0.10 0.18 0.28 0.39 0.43 0.59 0.91 1.13 1.47 1.77 1.66 1.62 1.46 1.35 1.37 1.36 1.34 1.34 1.47 1.51 1.60 1.83 2.06 2.24 2.39 2.39 2.27 2.19 2.09 1.95 1.72 1.55 1.42 1.23 1.06 0.91 0.77 0.67
0.00 0.00 0.01 0.01 0.02 0.02 0.03 0.07 0.09 0.09 0.11 0.19 0.34 0.45 0.63 0.76 0.79 1.00 1.28 1.58 1.81 1.80 1.73 1.69 1.72 1.73 1.82 2.04 2.34 2.61 2.81 2.97 3.10 3.29 3.36 3.29 3.12 2.97 2.83 2.63 2.38 2.11 1.88 1.60 1.31 1.08 0.91 0.78 0.69
0.00 0.00 0.01 0.03 0.05 0.07 0.07 0.14 0.16 0.14 0.14 0.20 0.38 0.48 0.60 0.80 0.93 0.92 1.00 1.18 1.48 1.66 1.77 1.82 2.03 2.26 2.49 2.92 3.38 3.67 4.01 4.20 4.16 4.02 3.88 3.65 3.45 3.23 2.92 2.67 2.48 2.21 1.86 1.56 1.29 1.06 0.90 0.73 0.61
0.00 0.00 0.01 0.03 0.05 0.11 0.10 0.20 0.26 0.21 0.21 0.21 0.26 0.32 0.42 0.49 0.62 0.77 0.87 1.00 1.22 1.43 1.63 1.82 2.08 2.53 3.08 3.73 4.30 4.66 4.81 4.82 4.75 4.53 4.17 3.76 3.44 3.13 2.77 2.49 2.17 1.86 1.57 1.32 1.07 0.83 0.67 0.55 0.44
0.00 0.00 0.00 0.02 0.03 0.08 0.09 0.23 0.37 0.32 0.27 0.27 0.28 0.28 0.31 0.38 0.43 0.57 0.69 0.85 1.06 1.26 1.53 1.86 2.25 2.82 3.38 3.94 4.41 4.72 4.80 4.70 4.48 4.13 3.70 3.27 2.85 2.51 2.18 1.89 1.62 1.36 1.12 0.90 0.68 0.53 0.45 0.39 0.35
0.00 0.00 0.01 0.02 0.03 0.08 0.10 0.20 0.44 0.54 0.46 0.40 0.35 0.33 0.36 0.41 0.49 0.54 0.57 0.68 0.86 1.11 1.43 1.76 2.13 2.63 3.06 3.40 3.82 4.02 4.12 4.02 3.72 3.29 2.78 2.36 2.05 1.77 1.55 1.33 1.14 0.94 0.75 0.60 0.48 0.39 0.34 0.32 0.30
0.00 0.00 0.01 0.01 0.03 0.08 0.11 0.26 0.51 0.72 0.62 0.52 0.42 0.38 0.38 0.42 0.46 0.51 0.55 0.61 0.74 0.96 1.26 1.48 1.73 2.09 2.37 2.67 2.98 3.11 3.05 2.90 2.69 2.40 2.07 1.76 1.48 1.24 1.03 0.83 0.70 0.57 0.46 0.40 0.36 0.34 0.30 0.26 0.24
0.00 0.00 0.00 0.01 0.03 0.09 0.19 0.39 0.58 0.69 0.59 0.45 0.36 0.31 0.32 0.34 0.38 0.48 0.59 0.64 0.75 0.86 1.02 1.19 1.30 1.46 1.59 1.70 1.85 1.87 1.81 1.70 1.62 1.48 1.29 1.10 0.90 0.71 0.57 0.47 0.41 0.36 0.32 0.29 0.26 0.24 0.22 0.19 0.16
0.00 0.00 0.01 0.01 0.02 0.11 0.31 0.52 0.73 0.73 0.61 0.43 0.35 0.29 0.31 0.33 0.34 0.41 0.52 0.61 0.67 0.71 0.74 0.73 0.74 0.79 0.82 0.83 0.92 0.98 0.97 0.95 0.89 0.80 0.69 0.60 0.53 0.45 0.37 0.32 0.29 0.27 0.24 0.21 0.18 0.16 0.15 0.13 0.13
0.00 0.00 0.01 0.02 0.05 0.14 0.31 0.50 0.75 0.98 0.90 0.71 0.55 0.41 0.37 0.36 0.39 0.44 0.47 0.48 0.48 0.48 0.47 0.43 0.44 0.43 0.41 0.41 0.43 0.46 0.50 0.49 0.47 0.46 0.44 0.40 0.36 0.31 0.26 0.21 0.18 0.16 0.14 0.13 0.12 0.12 0.11 0.11 0.12
0.01 0.01 0.01 0.04 0.07 0.15 0.34 0.64 0.81 1.02 1.04 0.92 0.73 0.55 0.45 0.47 0.50 0.53 0.53 0.43 0.38 0.35 0.33 0.32 0.34 0.30 0.27 0.27 0.28 0.27 0.26 0.25 0.23 0.23 0.24 0.22 0.20 0.18 0.16 0.14 0.12 0.11 0.11 0.11 0.12 0.13 0.13 0.13 0.14
0.03 0.02 0.02 0.04 0.06 0.09 0.32 0.86 1.09 1.25 1.25 1.10 0.95 0.79 0.68 0.66 0.65 0.63 0.58 0.45 0.37 0.31 0.27 0.24 0.24 0.22 0.20 0.18 0.16 0.16 0.16 0.15 0.14 0.14 0.14 0.13 0.12 0.12 0.12 0.12 0.12 0.11 0.11 0.12 0.12 0.13 0.13 0.14 0.14

GEFSSGP_prec_meanprecacc_090.txt.gz
Total_Precipitation_Accumulation
0.00 0.00 0.00 0.00 0.00 0.00 0.01 0.03 0.04 0.07 0.12 0.12 0.15 0.18 0.17 0.15 0.25 0.53 0.24 0.11 0.06 0.01 0.00 0.01 0.01 0.02 0.03 0.04 0.05 0.06 0.07 0.07 0.07 0.06 0.05 0.05 0.06 0.06 0.07 0.06 0.07 0.10 0.12 0.11 0.09 0.08 0.06 0.04 0.03
0.00 0.00 0.00 0.00 0.00 0.00 0.01 0.02 0.05 0.06 0.08 0.09 0.12 0.13 0.12 0.12 0.09 0.08 0.04 0.05 0.05 0.01 0.00 0.00 0.01 0.02 0.02 0.03 0.04 0.06 0.06 0.06 0.06 0.05 0.05 0.05 0.05 0.06 0.07 0.07 0.09 0.13 0.16 0.13 0.09 0.06 0.03 0.02 0.01
0.00 0.00 0.00 0.00 0.00 0.00 0.02 0.04 0.05 0.05 0.07 0.09 0.12 0.24 0.25 0.13 0.07 0.05 0.03 0.03 0.04 0.01 0.00 0.00 0.01 0.02 0.02 0.02 0.02 0.04 0.05 0.05 0.05 0.05 0.04 0.05 0.05 0.05 0.08 0.11 0.15 0.16 0.16 0.16 0.13 0.08 0.05 0.02 0.01
0.00 0.00 0.00 0.00 0.00 0.00 0.02 0.05 0.06 0.04 0.04 0.07 0.11 0.29 0.39 0.13 0.08 0.06 0.03 0.03 0.03 0.02 0.00 0.01 0.01 0.02 0.02 0.02 0.02 0.04 0.05 0.05 0.05 0.05 0.05 0.06 0.06 0.07 0.10 0.18 0.23 0.22 0.19 0.22 0.21 0.16 0.11 0.04 0.02
0.00 0.00 0.00 0.00 0.00 0.00 0.01 0.03 0.06 0.04 0.03 0.03 0.06 0.22 0.37 0.17 0.06 0.05 0.04 0.03 0.03 0.03 0.01 0.01 0.02 0.03 0.02 0.01 0.02 0.04 0.05 0.07 0.09 0.09 0.08 0.08 0.07 0.09 0.14 0.22 0.24 0.23 0.22 0.23 0.20 0.14 0.07 0.05 0.06
0.00 0.00 0.00 0.00 0.00 0.01 0.00 0.01 0.04 0.04 0.03 0.04 0.06 0.17 0.35 0.25 0.15 0.09 0.08 0.06 0.04 0.04 0.01 0.01 0.03 0.04 0.03 0.03 0.04 0.06 0.07 0.09 0.11 0.11 0.10 0.08 0.07 0.09 0.14 0.18 0.22 0.23 0.20 0.16 0.12 0.10 0.08 0.09 0.09
0.00 0.00 0.00 0.00 0.00 0.01 0.01 0.02 0.03 0.04 0.05 0.05 0.09 0.17 0.35 0.33 0.23 0.17 0.14 0.12 0.07 0.06 0.05 0.04 0.04 0.04 0.05 0.07 0.08 0.09 0.09 0.09 0.10 0.10 0.08 0.06 0.06 0.09 0.12 0.16 0.21 0.21 0.14 0.10 0.09 0.07 0.06 0.06 0.06
0.00 0.00 0.00 0.00 0.00 0.01 0.02 0.03 0.04 0.06 0.09 0.06 0.08 0.19 0.48 0.53 0.30 0.23 0.23 0.25 0.20 0.14 0.14 0.16 0.11 0.06 0.04 0.05 0.08 0.08 0.09 0.09 0.08 0.07 0.05 0.06 0.09 0.10 0.13 0.12 0.13 0.13 0.08 0.05 0.04 0.02 0.01 0.01 0.01
0.00 0.00 0.00 0.00 0.00 0.01 0.02 0.04 0.05 0.05 0.07 0.06 0.06 0.12 0.40 0.47 0.34 0.26 0.26 0.26 0.31 0.34 0.31 0.28 0.19 0.08 0.06 0.05 0.05 0.07 0.07 0.07 0.06 0.05 0.06 0.09 0.13 0.14 0.16 0.10 0.09 0.06 0.04 0.02 0.01 0.01 0.01 0.01 0.01
0.00 0.00 0.00 0.00 0.00 0.01 0.01 0.02 0.03 0.04 0.04 0.06 0.08 0.10 0.22 0.29 0.29 0.28 0.28 0.26 0.29 0.47 0.46 0.27 0.21 0.13 0.10 0.08 0.07 0.08 0.06 0.04 0.05 0.09 0.07 0.13 0.21 0.25 0.19 0.15 0.09 0.05 0.04 0.03 0.02 0.01 0.01 0.01 0.01
0.00 0.00 0.00 0.00 0.00 0.00 0.00 0.01 0.02 0.04 0.05 0.06 0.09 0.16 0.19 0.24 0.28 0.36 0.35 0.31 0.26 0.27 0.23 0.19 0.23 0.22 0.21 0.22 0.22 0.20 0.17 0.14 0.12 0.17 0.16 0.19 0.19 0.15 0.13 0.15 0.11 0.08 0.06 0.07 0.07 0.04 0.03 0.02 0.03
0.00 0.00 0.00 0.00 0.00 0.00 0.00 0.00 0.01 0.03 0.03 0.06 0.10 0.22 0.30 0.36 0.41 0.45 0.50 0.51 0.49 0.36 0.27 0.22 0.21 0.23 0.25 0.28 0.33 0.37 0.34 0.30 0.24 0.20 0.16 0.19 0.26 0.27 0.21 0.21 0.18 0.17 0.16 0.16 0.13 0.11 0.08 0.06 0.05
0.00 0.00 0.00 0.00 0.00 0.00 0.00 0.00 0.00 0.01 0.03 0.04 0.07 0.18 0.27 0.35 0.42 0.55 0.62 0.75 0.82 0.64 0.43 0.34 0.28 0.27 0.31 0.37 0.36 0.31 0.35 0.36 0.41 0.33 0.24 0.30 0.30 0.28 0.27 0.23 0.23 0.20 0.21 0.22 0.19 0.14 0.13 0.12 0.09
0.00 0.00 0.00 0.00 0.00 0.00 0.00 0.00 0.00 0.01 0.01 0.02 0.06 0.12 0.20 0.26 0.39 0.62 0.79 0.93 1.09 0.95 0.62 0.48 0.40 0.38 0.44 0.53 0.53 0.44 0.40 0.39 0.43 0.44 0.37 0.40 0.39 0.35 0.33 0.34 0.36 0.33 0.31 0.33 0.28 0.23 0.21 0.20 0.17
0.00 0.00 0.00 0.00 0.00 0.00 0.00 0.00 0.01 0.01 0.01 0.02 0.05 0.10 0.20 0.32 0.43 0.69 1.02 1.19 1.45 1.24 0.91 0.77 0.61 0.59 0.59 0.64 0.72 0.74 0.64 0.62 0.61 0.57 0.54 0.55 0.47 0.46 0.46 0.51 0.53 0.50 0.48 0.47 0.41 0.39 0.34 0.31 0.28
0.00 0.00 0.00 0.00 0.00 0.00 0.00 0.01 0.02 0.01 0.01 0.02 0.04 0.10 0.24 0.40 0.57 0.75 1.09 1.28 1.49 1.35 1.14 1.07 0.89 0.78 0.76 0.69 0.68 0.73 0.76 0.79 0.80 0.76 0.74 0.69 0.63 0.62 0.71 0.78 0.79 0.77 0.74 0.71 0.72 0.64 0.56 0.50 0.46
0.00 0.00 0.00 0.00 0.00 0.00 0.01 0.03 0.03 0.02 0.02 0.03 0.05 0.11 0.25 0.39 0.50 0.73 1.08 1.30 1.44 1.37 1.17 1.10 1.12 0.98 0.92 0.88 0.85 0.92 0.97 0.98 1.03 1.06 1.03 1.00 0.95 0.98 1.10 1.23 1.20 1.09 1.02 0.98 0.91 0.85 0.78 0.72 0.66
0.00 0.00 0.00 0.00 0.00 0.00 0.02 0.04 0.04 0.03 0.03 0.07 0.10 0.14 0.24 0.38 0.59 0.83 1.10 1.42 1.49 1.50 1.44 1.31 1.30 1.24 1.24 1.25 1.14 1.17 1.23 1.26 1.33 1.44 1.54 1.65 1.74 1.74 1.76 1.68 1.54 1.42 1.35 1.29 1.17 1.06 0.92 0.82 0.75
0.00 0.00 0.00 0.00 0.01 0.01 0.03 0.04 0.06 0.06 0.07 0.11 0.19 0.29 0.41 0.44 0.61 0.94 1.16 1.52 1.82 1.72 1.71 1.57 1.49 1.56 1.59 1.62 1.63 1.79 1.83 1.90 2.13 2.36 2.52 2.64 2.64 2.49 2.40 2.29 2.11 1.88 1.69 1.52 1.31 1.14 0.98 0.84 0.72
0.00 0.00 0.01 0.02 0.02 0.03 0.04 0.08 0.10 0.10 0.13 0.21 0.35 0.46 0.65 0.78 0.81 1.02 1.30 1.61 1.85 1.85 1.80 1.78 1.84 1.87 1.98 2.24 2.58 2.92 3.12 3.28 3.40 3.56 3.60 3.52 3.35 3.20 3.06 2.85 2.54 2.24 1.98 1.67 1.38 1.14 0.96 0.83 0.72
0.00 0.00 0.02 0.03 0.06 0.08 0.09 0.16 0.19 0.16 0.16 0.22 0.39 0.49 0.62 0.81 0.94 0.93 1.02 1.21 1.51 1.71 1.83 1.89 2.13 2.38 2.66 3.12 3.60 3.96 4.31 4.50 4.45 4.27 4.07 3.85 3.65 3.43 3.11 2.85 2.63 2.33 1.95 1.62 1.34 1.10 0.94 0.77 0.63
0.00 0.00 0.01 0.03 0.06 0.14 0.13 0.25 0.30 0.26 0.24 0.24 0.29 0.35 0.45 0.50 0.63 0.78 0.89 1.02 1.25 1.48 1.70 1.91 2.22 2.69 3.29 3.95 4.51 4.91 5.09 5.07 4.97 4.72 4.37 3.97 3.65 3.32 2.94 2.63 2.30 1.97 1.66 1.39 1.12 0.86 0.70 0.58 0.47
0.00 0.00 0.01 0.03 0.04 0.11 0.12 0.28 0.42 0.37 0.32 0.31 0.32 0.31 0.34 0.40 0.45 0.59 0.71 0.87 1.09 1.29 1.59 1.94 2.36 2.97 3.55 4.10 4.59 4.95 5.07 4.96 4.71 4.33 3.91 3.45 3.06 2.72 2.37 2.04 1.75 1.47 1.20 0.95 0.71 0.55 0.46 0.41 0.36
0.00 0.00 0.01 0.03 0.05 0.12 0.13 0.24 0.49 0.59 0.51 0.44 0.39 0.38 0.39 0.44 0.50 0.55 0.59 0.70 0.89 1.14 1.47 1.82 2.22 2.73 3.19 3.54 3.97 4.20 4.31 4.23 3.92 3.47 2.96 2.52 2.22 1.95 1.70 1.44 1.21 1.00 0.79 0.63 0.51 0.40 0.35 0.33 0.32
0.00 0.00 0.02 0.03 0.05 0.11 0.13 0.29 0.55 0.78 0.71 0.59 0.47 0.43 0.41 0.45 0.49 0.54 0.58 0.63 0.77 0.99 1.30 1.52 1.80 2.16 2.46 2.77 3.10 3.24 3.20 3.04 2.83 2.53 2.20 1.88 1.59 1.34 1.12 0.91 0.75 0.61 0.49 0.42 0.38 0.35 0.31 0.27 0.25
0.00 0.00 0.01 0.02 0.05 0.12 0.23 0.44 0.62 0.72 0.67 0.54 0.44 0.35 0.35 0.37 0.40 0.51 0.63 0.68 0.78 0.88 1.06 1.23 1.35 1.51 1.65 1.78 1.93 1.96 1.91 1.81 1.75 1.62 1.42 1.22 0.99 0.76 0.62 0.52 0.45 0.40 0.35 0.31 0.28 0.25 0.23 0.20 0.17
0.00 0.00 0.01 0.01 0.03 0.14 0.36 0.56 0.77 0.76 0.67 0.49 0.42 0.34 0.33 0.35 0.36 0.42 0.54 0.67 0.72 0.75 0.79 0.80 0.80 0.85 0.88 0.90 0.98 1.03 1.03 1.01 0.95 0.88 0.77 0.68 0.59 0.50 0.41 0.34 0.31 0.29 0.26 0.23 0.19 0.17 0.15 0.14 0.14
0.00 0.01 0.01 0.02 0.07 0.17 0.34 0.55 0.81 1.03 0.96 0.77 0.61 0.48 0.42 0.40 0.42 0.47 0.51 0.55 0.58 0.56 0.53 0.50 0.52 0.52 0.48 0.46 0.47 0.49 0.53 0.53 0.51 0.49 0.47 0.43 0.39 0.34 0.28 0.23 0.19 0.17 0.15 0.13 0.13 0.12 0.11 0.12 0.12
0.01 0.01 0.02 0.04 0.08 0.18 0.38 0.70 0.86 1.08 1.09 1.00 0.82 0.64 0.54 0.55 0.57 0.58 0.57 0.50 0.49 0.47 0.43 0.40 0.42 0.38 0.34 0.33 0.33 0.30 0.28 0.28 0.26 0.25 0.25 0.24 0.22 0.19 0.17 0.15 0.13 0.12 0.12 0.12 0.12 0.13 0.13 0.14 0.14
0.03 0.03 0.03 0.05 0.07 0.11 0.35 0.91 1.13 1.32 1.31 1.18 1.08 0.95 0.83 0.78 0.74 0.70 0.64 0.53 0.46 0.41 0.37 0.34 0.32 0.29 0.27 0.23 0.20 0.19 0.18 0.17 0.16 0.16 0.16 0.14 0.13 0.12 0.12 0.12 0.12 0.12 0.12 0.12 0.13 0.13 0.13 0.14 0.14

GEFSSGP_prec_meanprecacc_096.txt.gz
Total_Precipitation_Accumulation
0.00 0.00 0.00 0.00 0.00 0.00 0.01 0.03 0.04 0.08 0.12 0.12 0.15 0.18 0.18 0.16 0.27 0.63 0.32 0.12 0.06 0.01 0.00 0.01 0.01 0.02 0.03 0.04 0.06 0.06 0.07 0.07 0.07 0.06 0.05 0.05 0.06 0.06 0.07 0.06 0.07 0.10 0.12 0.11 0.10 0.09 0.07 0.05 0.03
0.00 0.00 0.00 0.00 0.00 0.00 0.01 0.02 0.05 0.06 0.09 0.09 0.12 0.13 0.12 0.13 0.09 0.09 0.05 0.05 0.05 0.01 0.00 0.00 0.01 0.02 0.02 0.03 0.04 0.06 0.07 0.06 0.06 0.05 0.05 0.05 0.05 0.06 0.07 0.07 0.09 0.13 0.16 0.14 0.09 0.07 0.04 0.02 0.02
0.00 0.00 0.00 0.00 0.00 0.00 0.02 0.04 0.06 0.05 0.07 0.09 0.12 0.24 0.27 0.17 0.08 0.06 0.03 0.03 0.04 0.01 0.00 0.00 0.01 0.02 0.02 0.02 0.02 0.04 0.05 0.05 0.06 0.05 0.04 0.05 0.05 0.05 0.08 0.12 0.15 0.16 0.16 0.16 0.13 0.09 0.05 0.02 0.01
0.00 0.00 0.00 0.00 0.00 0.00 0.02 0.05 0.06 0.05 0.04 0.07 0.11 0.30 0.40 0.15 0.09 0.06 0.03 0.03 0.03 0.02 0.00 0.01 0.01 0.02 0.02 0.02 0.02 0.04 0.05 0.05 0.05 0.05 0.05 0.06 0.06 0.07 0.10 0.18 0.23 0.22 0.19 0.22 0.21 0.17 0.11 0.04 0.02
0.00 0.00 0.00 0.00 0.00 0.00 0.01 0.03 0.06 0.04 0.03 0.03 0.06 0.22 0.38 0.20 0.08 0.05 0.04 0.03 0.04 0.03 0.01 0.01 0.02 0.03 0.02 0.02 0.02 0.04 0.05 0.07 0.09 0.09 0.08 0.08 0.08 0.09 0.14 0.22 0.24 0.23 0.23 0.24 0.20 0.14 0.07 0.06 0.06
0.00 0.00 0.00 0.00 0.00 0.01 0.00 0.01 0.04 0.04 0.03 0.04 0.06 0.17 0.36 0.28 0.17 0.10 0.08 0.06 0.04 0.04 0.01 0.01 0.03 0.04 0.03 0.03 0.04 0.06 0.07 0.09 0.11 0.11 0.10 0.08 0.07 0.09 0.14 0.19 0.22 0.23 0.20 0.16 0.13 0.10 0.08 0.09 0.09
0.00 0.00 0.00 0.00 0.00 0.01 0.01 0.02 0.03 0.04 0.05 0.05 0.09 0.18 0.36 0.35 0.25 0.18 0.14 0.12 0.08 0.07 0.06 0.04 0.04 0.04 0.05 0.07 0.09 0.10 0.10 0.10 0.11 0.10 0.08 0.06 0.07 0.09 0.12 0.16 0.21 0.22 0.14 0.10 0.09 0.07 0.06 0.06 0.06
0.00 0.00 0.00 0.00 0.00 0.01 0.02 0.03 0.04 0.06 0.09 0.07 0.08 0.19 0.49 0.54 0.32 0.25 0.23 0.26 0.22 0.17 0.16 0.18 0.13 0.07 0.04 0.05 0.09 0.09 0.10 0.11 0.10 0.08 0.06 0.07 0.09 0.11 0.14 0.12 0.13 0.13 0.09 0.05 0.04 0.02 0.01 0.01 0.01
0.00 0.00 0.00 0.00 0.00 0.01 0.02 0.04 0.05 0.05 0.07 0.06 0.06 0.13 0.43 0.50 0.36 0.27 0.27 0.28 0.34 0.39 0.36 0.32 0.24 0.12 0.08 0.06 0.06 0.08 0.08 0.09 0.08 0.07 0.07 0.10 0.14 0.16 0.17 0.11 0.10 0.07 0.04 0.02 0.01 0.01 0.01 0.01 0.01
0.00 0.00 0.00 0.00 0.00 0.01 0.01 0.02 0.04 0.04 0.04 0.06 0.09 0.10 0.23 0.32 0.30 0.29 0.29 0.30 0.34 0.53 0.52 0.34 0.29 0.20 0.15 0.11 0.10 0.11 0.08 0.06 0.07 0.12 0.09 0.15 0.27 0.32 0.24 0.20 0.11 0.06 0.04 0.03 0.02 0.02 0.02 0.02 0.03
0.00 0.00 0.00 0.00 0.00 0.00 0.00 0.01 0.02 0.04 0.05 0.06 0.09 0.16 0.19 0.25 0.29 0.37 0.38 0.38 0.37 0.37 0.33 0.29 0.36 0.35 0.30 0.31 0.32 0.29 0.27 0.23 0.18 0.25 0.22 0.27 0.29 0.25 0.24 0.24 0.16 0.11 0.08 0.09 0.09 0.05 0.04 0.04 0.05
0.00 0.00 0.00 0.00 0.00 0.00 0.00 0.00 0.01 0.03 0.04 0.06 0.11 0.22 0.33 0.39 0.44 0.49 0.54 0.58 0.57 0.44 0.36 0.33 0.35 0.40 0.41 0.43 0.53 0.57 0.50 0.45 0.39 0.35 0.28 0.33 0.42 0.41 0.32 0.33 0.28 0.27 0.23 0.22 0.19 0.15 0.10 0.08 0.07
0.00 0.00 0.00 0.00 0.00 0.00 0.00 0.00 0.00 0.01 0.03 0.04 0.08 0.18 0.30 0.42 0.50 0.65 0.70 0.83 0.94 0.80 0.56 0.46 0.44 0.43 0.45 0.53 0.57 0.50 0.54 0.58 0.68 0.59 0.44 0.50 0.47 0.43 0.45 0.42 0.42 0.36 0.36 0.35 0.28 0.22 0.18 0.17 0.12
0.00 0.00 0.00 0.00 0.00 0.00 0.00 0.00 0.00 0.01 0.01 0.02 0.06 0.13 0.22 0.32 0.45 0.71 0.89 1.05 1.26 1.20 0.86 0.66 0.59 0.58 0.60 0.69 0.73 0.62 0.57 0.65 0.72 0.76 0.68 0.73 0.66 0.62 0.62 0.63 0.61 0.52 0.49 0.56 0.47 0.34 0.29 0.27 0.22
0.00 0.00 0.00 0.00 0.00 0.00 0.00 0.00 0.01 0.01 0.01 0.02 0.05 0.12 0.22 0.36 0.50 0.79 1.12 1.32 1.61 1.49 1.21 0.99 0.81 0.85 0.84 0.88 0.95 0.99 0.91 0.91 0.91 0.92 0.96 0.97 0.86 0.83 0.80 0.89 0.87 0.76 0.70 0.69 0.61 0.57 0.46 0.40 0.36
0.00 0.00 0.00 0.00 0.00 0.00 0.00 0.01 0.03 0.02 0.01 0.03 0.08 0.14 0.26 0.43 0.64 0.90 1.22 1.38 1.64 1.55 1.41 1.27 1.04 1.00 1.06 0.97 0.97 1.03 1.09 1.12 1.19 1.15 1.19 1.15 1.11 1.07 1.13 1.13 1.10 1.02 0.96 0.93 0.91 0.80 0.70 0.63 0.59
0.00 0.00 0.00 0.00 0.00 0.00 0.01 0.04 0.05 0.03 0.02 0.04 0.11 0.15 0.27 0.42 0.54 0.82 1.23 1.43 1.57 1.56 1.38 1.31 1.34 1.27 1.24 1.21 1.16 1.23 1.34 1.36 1.45 1.50 1.48 1.51 1.50 1.47 1.53 1.62 1.51 1.37 1.30 1.22 1.10 1.05 0.94 0.91 0.83
0.00 0.00 0.00 0.00 0.00 0.00 0.02 0.04 0.05 0.04 0.03 0.07 0.11 0.15 0.25 0.40 0.62 0.87 1.15 1.49 1.56 1.60 1.58 1.47 1.48 1.46 1.52 1.56 1.50 1.55 1.58 1.61 1.70 1.82 1.93 2.11 2.26 2.20 2.12 1.99 1.85 1.70 1.64 1.56 1.42 1.30 1.13 1.01 0.90
0.00 0.00 0.00 0.00 0.01 0.01 0.04 0.05 0.07 0.07 0.08 0.12 0.20 0.30 0.41 0.46 0.63 0.96 1.18 1.55 1.87 1.78 1.80 1.69 1.64 1.74 1.79 1.84 1.89 2.09 2.07 2.10 2.34 2.60 2.77 2.95 3.00 2.83 2.68 2.52 2.32 2.10 1.91 1.74 1.51 1.34 1.18 1.01 0.86
0.00 0.00 0.01 0.02 0.02 0.03 0.05 0.09 0.12 0.11 0.14 0.22 0.37 0.47 0.66 0.79 0.83 1.04 1.32 1.63 1.87 1.88 1.85 1.87 1.96 2.02 2.13 2.40 2.76 3.11 3.32 3.47 3.58 3.75 3.81 3.74 3.59 3.43 3.26 3.04 2.73 2.42 2.17 1.88 1.58 1.31 1.14 0.98 0.84
0.00 0.00 0.02 0.04 0.07 0.08 0.10 0.19 0.24 0.20 0.18 0.24 0.44 0.53 0.65 0.82 0.95 0.95 1.03 1.23 1.53 1.73 1.87 1.95 2.21 2.48 2.78 3.25 3.75 4.13 4.46 4.64 4.59 4.41 4.24 4.02 3.83 3.63 3.32 3.05 2.82 2.50 2.12 1.79 1.50 1.22 1.07 0.92 0.77
0.01 0.00 0.02 0.03 0.07 0.16 0.16 0.32 0.39 0.32 0.28 0.28 0.34 0.38 0.47 0.52 0.64 0.79 0.91 1.04 1.28 1.50 1.73 1.97 2.28 2.77 3.38 4.07 4.63 5.04 5.22 5.20 5.10 4.87 4.49 4.07 3.76 3.44 3.08 2.79 2.48 2.16 1.83 1.54 1.26 0.98 0.80 0.68 0.57
0.00 0.00 0.01 0.04 0.05 0.13 0.15 0.35 0.53 0.46 0.40 0.38 0.38 0.36 0.37 0.42 0.46 0.61 0.73 0.90 1.12 1.32 1.62 1.98 2.41 3.04 3.63 4.20 4.71 5.10 5.22 5.10 4.85 4.45 4.00 3.54 3.13 2.81 2.48 2.17 1.88 1.61 1.34 1.09 0.84 0.67 0.55 0.48 0.42
0.00 0.00 0.02 0.05 0.07 0.16 0.15 0.28 0.59 0.72 0.62 0.56 0.49 0.48 0.45 0.47 0.53 0.57 0.61 0.73 0.92 1.17 1.50 1.86 2.26 2.79 3.26 3.63 4.07 4.32 4.45 4.37 4.06 3.61 3.09 2.64 2.33 2.07 1.84 1.59 1.36 1.15 0.93 0.76 0.62 0.51 0.44 0.41 0.38
0.00 0.01 0.05 0.10 0.12 0.18 0.16 0.33 0.67 0.89 0.82 0.74 0.62 0.53 0.47 0.49 0.53 0.56 0.60 0.65 0.79 1.03 1.33 1.56 1.83 2.20 2.51 2.84 3.19 3.35 3.31 3.15 2.94 2.65 2.33 2.01 1.71 1.46 1.24 1.03 0.88 0.73 0.60 0.52 0.45 0.40 0.35 0.31 0.28
0.00 0.01 0.06 0.12 0.13 0.20 0.31 0.53 0.75 0.84 0.77 0.67 0.57 0.46 0.41 0.41 0.44 0.52 0.65 0.70 0.80 0.91 1.09 1.26 1.38 1.55 1.70 1.83 1.99 2.04 1.98 1.87 1.81 1.68 1.49 1.29 1.06 0.84 0.70 0.60 0.53 0.47 0.41 0.36 0.32 0.28 0.25 0.21 0.18
0.00 0.01 0.02 0.04 0.07 0.19 0.45 0.71 0.90 0.87 0.80 0.60 0.49 0.40 0.40 0.39 0.39 0.45 0.56 0.68 0.74 0.76 0.81 0.83 0.83 0.88 0.91 0.93 1.03 1.09 1.09 1.05 1.00 0.92 0.82 0.74 0.66 0.57 0.48 0.41 0.37 0.33 0.30 0.26 0.22 0.19 0.16 0.15 0.14
0.01 0.01 0.01 0.04 0.13 0.25 0.43 0.71 1.01 1.19 1.14 0.88 0.68 0.54 0.48 0.43 0.45 0.49 0.53 0.57 0.60 0.58 0.56 0.54 0.57 0.56 0.51 0.49 0.51 0.54 0.58 0.57 0.54 0.52 0.50 0.47 0.43 0.38 0.33 0.27 0.23 0.20 0.17 0.15 0.14 0.13 0.12 0.12 0.12
0.01 0.02 0.02 0.06 0.10 0.24 0.52 0.88 1.03 1.29 1.30 1.11 0.87 0.68 0.59 0.58 0.59 0.60 0.60 0.54 0.52 0.51 0.47 0.44 0.46 0.43 0.39 0.36 0.36 0.34 0.32 0.31 0.29 0.28 0.28 0.26 0.24 0.21 0.19 0.17 0.15 0.14 0.13 0.13 0.13 0.14 0.14 0.14 0.14
0.03 0.03 0.03 0.07 0.09 0.14 0.45 1.05 1.25 1.46 1.44 1.27 1.16 1.02 0.88 0.83 0.79 0.74 0.67 0.56 0.51 0.47 0.44 0.39 0.38 0.34 0.32 0.28 0.24 0.22 0.20 0.19 0.19 0.18 0.17 0.16 0.15 0.14 0.13 0.12 0.12 0.12 0.12 0.12 0.13 0.13 0.13 0.14 0.14

GEFSSGP_prec_meanprecacc_102.txt.gz
Total_Precipitation_Accumulation
0.00 0.00 0.00 0.00 0.00 0.00 0.01 0.03 0.05 0.08 0.14 0.13 0.16 0.18 0.18 0.17 0.30 0.70 0.48 0.21 0.16 0.03 0.01 0.01 0.01 0.02 0.03 0.04 0.06 0.06 0.07 0.07 0.07 0.06 0.05 0.05 0.06 0.06 0.07 0.06 0.07 0.10 0.12 0.11 0.10 0.09 0.07 0.05 0.03
0.00 0.00 0.00 0.00 0.00 0.00 0.01 0.02 0.05 0.07 0.10 0.10 0.13 0.14 0.13 0.15 0.15 0.13 0.13 0.09 0.09 0.02 0.00 0.00 0.01 0.02 0.02 0.03 0.04 0.06 0.07 0.06 0.06 0.05 0.05 0.05 0.05 0.06 0.07 0.07 0.09 0.13 0.16 0.14 0.09 0.07 0.04 0.02 0.02
0.00 0.00 0.00 0.00 0.00 0.00 0.02 0.04 0.06 0.06 0.08 0.09 0.13 0.25 0.28 0.19 0.13 0.10 0.05 0.05 0.06 0.02 0.00 0.00 0.01 0.02 0.02 0.02 0.02 0.04 0.05 0.05 0.06 0.05 0.04 0.05 0.05 0.05 0.08 0.12 0.15 0.16 0.17 0.17 0.13 0.09 0.05 0.02 0.01
0.00 0.00 0.00 0.00 0.00 0.00 0.02 0.05 0.06 0.05 0.05 0.07 0.11 0.31 0.42 0.17 0.12 0.09 0.05 0.05 0.05 0.03 0.01 0.01 0.01 0.02 0.02 0.02 0.02 0.04 0.05 0.05 0.05 0.05 0.05 0.06 0.06 0.07 0.10 0.18 0.23 0.22 0.19 0.22 0.21 0.17 0.11 0.04 0.03
0.00 0.00 0.00 0.00 0.00 0.00 0.01 0.03 0.06 0.04 0.03 0.03 0.07 0.23 0.40 0.23 0.10 0.08 0.07 0.05 0.05 0.04 0.01 0.01 0.02 0.03 0.02 0.02 0.02 0.04 0.05 0.07 0.09 0.09 0.08 0.08 0.08 0.09 0.15 0.22 0.25 0.23 0.23 0.24 0.20 0.14 0.08 0.06 0.06
0.00 0.00 0.00 0.00 0.00 0.01 0.00 0.01 0.04 0.04 0.03 0.04 0.07 0.18 0.38 0.30 0.19 0.12 0.11 0.09 0.06 0.05 0.01 0.01 0.03 0.04 0.04 0.03 0.05 0.07 0.08 0.09 0.11 0.12 0.11 0.08 0.07 0.10 0.15 0.19 0.22 0.23 0.21 0.16 0.13 0.10 0.08 0.09 0.10
0.00 0.00 0.00 0.00 0.00 0.01 0.01 0.02 0.03 0.04 0.05 0.05 0.09 0.19 0.39 0.37 0.26 0.20 0.18 0.16 0.11 0.09 0.08 0.05 0.05 0.04 0.06 0.09 0.11 0.12 0.11 0.11 0.12 0.11 0.09 0.07 0.07 0.10 0.13 0.17 0.22 0.22 0.15 0.11 0.09 0.08 0.06 0.06 0.07
0.00 0.00 0.00 0.00 0.00 0.01 0.02 0.03 0.04 0.06 0.09 0.07 0.09 0.20 0.51 0.57 0.36 0.33 0.28 0.30 0.26 0.21 0.21 0.22 0.15 0.08 0.06 0.07 0.11 0.12 0.12 0.13 0.11 0.09 0.06 0.07 0.10 0.12 0.14 0.12 0.14 0.13 0.09 0.06 0.04 0.02 0.01 0.01 0.01
0.00 0.00 0.00 0.00 0.00 0.01 0.02 0.04 0.05 0.05 0.07 0.06 0.07 0.14 0.44 0.52 0.39 0.34 0.34 0.34 0.41 0.49 0.46 0.39 0.31 0.17 0.12 0.10 0.10 0.12 0.12 0.13 0.11 0.09 0.08 0.11 0.15 0.17 0.18 0.12 0.11 0.08 0.05 0.03 0.02 0.01 0.01 0.01 0.01
0.00 0.00 0.00 0.00 0.00 0.01 0.01 0.02 0.04 0.04 0.04 0.06 0.10 0.13 0.27 0.36 0.35 0.36 0.38 0.40 0.45 0.72 0.67 0.44 0.39 0.33 0.25 0.17 0.15 0.17 0.14 0.12 0.12 0.16 0.12 0.17 0.29 0.34 0.26 0.22 0.13 0.08 0.06 0.05 0.03 0.03 0.02 0.02 0.03
0.00 0.00 0.00 0.00 0.00 0.00 0.00 0.01 0.02 0.04 0.06 0.07 0.10 0.19 0.23 0.30 0.35 0.44 0.48 0.50 0.54 0.58 0.51 0.45 0.50 0.46 0.43 0.41 0.40 0.38 0.37 0.34 0.26 0.30 0.27 0.31 0.33 0.29 0.29 0.27 0.20 0.15 0.12 0.12 0.12 0.08 0.06 0.06 0.07
0.00 0.00 0.00 0.00 0.00 0.00 0.00 0.00 0.01 0.03 0.04 0.07 0.11 0.24 0.36 0.44 0.56 0.64 0.68 0.73 0.84 0.80 0.68 0.57 0.52 0.52 0.55 0.56 0.64 0.68 0.63 0.57 0.51 0.44 0.33 0.38 0.48 0.49 0.42 0.42 0.38 0.36 0.32 0.29 0.25 0.21 0.15 0.14 0.13
0.00 0.00 0.00 0.00 0.00 0.00 0.00 0.00 0.00 0.02 0.03 0.04 0.08 0.19 0.32 0.46 0.61 0.89 0.90 1.01 1.19 1.23 1.07 0.85 0.77 0.67 0.67 0.73 0.74 0.65 0.67 0.69 0.78 0.71 0.54 0.59 0.59 0.59 0.65 0.61 0.61 0.56 0.55 0.51 0.42 0.33 0.29 0.27 0.23
0.00 0.00 0.00 0.00 0.00 0.00 0.00 0.00 0.00 0.01 0.01 0.02 0.07 0.13 0.23 0.36 0.53 0.82 1.06 1.24 1.51 1.60 1.42 1.19 1.01 0.98 0.96 1.01 1.01 0.89 0.78 0.80 0.86 0.92 0.85 0.89 0.88 0.86 0.87 0.90 0.95 0.82 0.76 0.78 0.69 0.52 0.46 0.42 0.36
0.00 0.00 0.00 0.00 0.00 0.00 0.00 0.01 0.01 0.02 0.02 0.03 0.06 0.13 0.24 0.40 0.56 0.86 1.25 1.51 1.84 1.86 1.66 1.58 1.37 1.42 1.43 1.49 1.45 1.44 1.34 1.28 1.20 1.17 1.21 1.22 1.16 1.14 1.09 1.18 1.27 1.14 1.08 1.08 0.98 0.87 0.71 0.67 0.61
0.00 0.00 0.00 0.00 0.00 0.00 0.00 0.02 0.04 0.03 0.02 0.04 0.09 0.15 0.28 0.46 0.68 0.97 1.33 1.49 1.78 1.78 1.76 1.78 1.59 1.57 1.73 1.72 1.62 1.56 1.67 1.68 1.61 1.53 1.56 1.47 1.46 1.48 1.51 1.45 1.43 1.38 1.33 1.30 1.35 1.19 0.99 0.90 0.92
0.00 0.00 0.00 0.00 0.00 0.00 0.01 0.05 0.06 0.03 0.02 0.05 0.12 0.17 0.29 0.43 0.57 0.86 1.31 1.53 1.67 1.70 1.57 1.63 1.82 1.74 1.86 1.86 1.79 1.78 1.88 1.98 2.04 2.01 1.94 1.89 1.88 1.86 1.93 2.00 1.86 1.69 1.57 1.53 1.41 1.36 1.21 1.15 1.11
0.00 0.00 0.00 0.00 0.00 0.00 0.02 0.05 0.06 0.05 0.05 0.10 0.14 0.17 0.26 0.42 0.64 0.89 1.19 1.53 1.61 1.67 1.69 1.68 1.85 1.84 1.98 2.09 1.96 1.97 1.96 2.02 2.18 2.32 2.42 2.52 2.59 2.55 2.47 2.35 2.20 1.99 1.86 1.78 1.64 1.54 1.38 1.23 1.09
0.00 0.00 0.00 0.00 0.01 0.02 0.04 0.07 0.11 0.11 0.11 0.18 0.23 0.31 0.43 0.47 0.64 0.97 1.20 1.57 1.90 1.83 1.87 1.79 1.78 1.98 2.05 2.17 2.26 2.43 2.39 2.35 2.58 2.88 3.05 3.24 3.30 3.12 3.03 2.91 2.69 2.43 2.18 1.97 1.72 1.53 1.37 1.20 1.03
0.00 0.00 0.01 0.02 0.02 0.03 0.06 0.11 0.19 0.20 0.20 0.28 0.42 0.52 0.70 0.83 0.86 1.07 1.36 1.66 1.91 1.92 1.91 1.96 2.08 2.17 2.29 2.60 3.00 3.37 3.60 3.73 3.81 3.97 4.02 3.96 3.83 3.69 3.54 3.37 3.08 2.71 2.41 2.12 1.82 1.52 1.32 1.15 1.00
0.00 0.00 0.02 0.04 0.07 0.09 0.12 0.22 0.28 0.29 0.29 0.37 0.54 0.62 0.74 0.90 1.02 1.01 1.09 1.28 1.59 1.82 1.97 2.03 2.33 2.65 2.94 3.40 3.94 4.32 4.67 4.89 4.80 4.62 4.45 4.22 4.04 3.85 3.53 3.26 3.06 2.73 2.31 1.99 1.71 1.43 1.26 1.10 0.92
0.01 0.00 0.02 0.03 0.07 0.16 0.17 0.33 0.43 0.40 0.36 0.37 0.43 0.47 0.54 0.56 0.70 0.86 0.96 1.10 1.33 1.57 1.84 2.07 2.42 2.93 3.59 4.25 4.79 5.20 5.38 5.38 5.27 5.01 4.64 4.22 3.90 3.61 3.28 2.95 2.65 2.36 2.01 1.71 1.44 1.16 0.98 0.86 0.73
0.00 0.00 0.01 0.04 0.06 0.13 0.16 0.36 0.56 0.53 0.48 0.47 0.48 0.43 0.43 0.46 0.51 0.65 0.77 0.93 1.15 1.36 1.67 2.04 2.51 3.14 3.75 4.38 4.89 5.27 5.39 5.27 5.00 4.58 4.14 3.67 3.24 2.90 2.59 2.29 2.02 1.78 1.53 1.27 1.01 0.84 0.73 0.66 0.58
0.00 0.00 0.02 0.05 0.07 0.17 0.16 0.30 0.62 0.78 0.72 0.69 0.63 0.60 0.56 0.55 0.58 0.61 0.65 0.77 0.95 1.21 1.54 1.90 2.31 2.84 3.33 3.73 4.21 4.49 4.59 4.49 4.19 3.72 3.20 2.77 2.46 2.18 1.95 1.70 1.49 1.31 1.09 0.91 0.77 0.66 0.61 0.58 0.52
0.00 0.01 0.06 0.11 0.13 0.19 0.17 0.35 0.73 0.97 0.92 0.88 0.84 0.80 0.68 0.65 0.62 0.60 0.63 0.68 0.82 1.06 1.38 1.61 1.88 2.24 2.56 2.90 3.26 3.46 3.43 3.25 3.03 2.74 2.42 2.11 1.81 1.56 1.35 1.13 0.98 0.85 0.73 0.63 0.55 0.49 0.45 0.42 0.40
0.00 0.01 0.07 0.14 0.16 0.23 0.34 0.61 0.88 0.95 0.88 0.82 0.79 0.70 0.65 0.58 0.53 0.58 0.69 0.75 0.85 0.95 1.12 1.31 1.43 1.62 1.76 1.87 2.05 2.11 2.07 1.97 1.92 1.76 1.55 1.34 1.11 0.90 0.77 0.67 0.59 0.53 0.47 0.41 0.37 0.33 0.30 0.27 0.24
0.01 0.02 0.03 0.05 0.09 0.23 0.52 0.87 1.07 1.03 0.94 0.81 0.68 0.55 0.54 0.49 0.43 0.47 0.58 0.70 0.76 0.79 0.83 0.85 0.86 0.91 0.94 0.96 1.06 1.11 1.13 1.11 1.07 0.97 0.85 0.76 0.69 0.60 0.52 0.45 0.42 0.39 0.34 0.29 0.24 0.21 0.19 0.17 0.16
0.01 0.02 0.03 0.06 0.16 0.30 0.50 0.83 1.16 1.36 1.29 1.13 0.87 0.62 0.54 0.48 0.47 0.50 0.55 0.59 0.62 0.60 0.58 0.56 0.59 0.58 0.54 0.51 0.52 0.56 0.60 0.59 0.57 0.55 0.53 0.49 0.45 0.40 0.34 0.29 0.25 0.22 0.20 0.17 0.16 0.14 0.13 0.13 0.13
0.02 0.02 0.04 0.08 0.13 0.28 0.58 0.96 1.12 1.41 1.39 1.19 0.95 0.74 0.65 0.61 0.61 0.61 0.61 0.55 0.54 0.54 0.50 0.47 0.48 0.45 0.41 0.39 0.39 0.36 0.34 0.33 0.30 0.29 0.30 0.28 0.25 0.23 0.20 0.18 0.16 0.15 0.14 0.14 0.14 0.14 0.14 0.14 0.15
0.04 0.04 0.04 0.10 0.11 0.16 0.49 1.13 1.34 1.52 1.50 1.31 1.20 1.09 0.96 0.87 0.81 0.76 0.70 0.58 0.52 0.49 0.47 0.43 0.41 0.37 0.35 0.31 0.27 0.25 0.23 0.22 0.21 0.20 0.19 0.17 0.16 0.15 0.15 0.14 0.14 0.12 0.12 0.13 0.13 0.13 0.13 0.14 0.14

GEFSSGP_prec_meanprecacc_108.txt.gz
Total_Precipitation_Accumulation
0.00 0.00 0.00 0.00 0.00 0.00 0.01 0.03 0.05 0.08 0.14 0.14 0.16 0.19 0.19 0.17 0.31 0.71 0.49 0.22 0.16 0.03 0.01 0.01 0.01 0.02 0.03 0.04 0.06 0.06 0.07 0.07 0.07 0.06 0.05 0.05 0.06 0.07 0.07 0.06 0.07 0.10 0.12 0.12 0.10 0.09 0.08 0.06 0.04
0.00 0.00 0.00 0.00 0.00 0.00 0.01 0.02 0.05 0.07 0.10 0.10 0.13 0.15 0.14 0.16 0.15 0.14 0.14 0.09 0.09 0.03 0.01 0.01 0.01 0.02 0.02 0.03 0.04 0.06 0.07 0.06 0.06 0.05 0.05 0.05 0.05 0.06 0.07 0.07 0.09 0.14 0.16 0.14 0.10 0.07 0.05 0.03 0.02
0.00 0.00 0.00 0.00 0.00 0.00 0.02 0.04 0.06 0.06 0.08 0.10 0.14 0.27 0.29 0.20 0.14 0.10 0.06 0.06 0.06 0.02 0.00 0.01 0.02 0.02 0.02 0.02 0.02 0.04 0.05 0.05 0.06 0.05 0.04 0.05 0.05 0.06 0.08 0.12 0.15 0.16 0.17 0.17 0.14 0.10 0.06 0.03 0.02
0.00 0.00 0.00 0.00 0.00 0.00 0.02 0.05 0.06 0.05 0.05 0.07 0.12 0.31 0.43 0.19 0.13 0.09 0.05 0.05 0.06 0.03 0.01 0.01 0.02 0.02 0.02 0.02 0.02 0.04 0.05 0.05 0.05 0.05 0.05 0.06 0.06 0.07 0.10 0.18 0.24 0.22 0.20 0.22 0.22 0.17 0.11 0.05 0.03
0.00 0.00 0.00 0.00 0.00 0.00 0.01 0.03 0.06 0.04 0.03 0.03 0.07 0.23 0.41 0.24 0.11 0.08 0.07 0.06 0.05 0.04 0.01 0.01 0.03 0.04 0.03 0.02 0.03 0.04 0.06 0.08 0.09 0.09 0.08 0.08 0.08 0.10 0.15 0.23 0.25 0.24 0.23 0.24 0.21 0.14 0.08 0.06 0.06
0.00 0.00 0.00 0.00 0.00 0.01 0.00 0.01 0.04 0.04 0.03 0.04 0.07 0.19 0.39 0.31 0.20 0.13 0.12 0.11 0.06 0.05 0.02 0.02 0.04 0.05 0.05 0.05 0.06 0.07 0.08 0.10 0.11 0.12 0.11 0.08 0.08 0.10 0.15 0.20 0.23 0.24 0.21 0.17 0.13 0.10 0.09 0.10 0.10
0.00 0.00 0.00 0.00 0.00 0.01 0.01 0.02 0.03 0.04 0.05 0.05 0.09 0.19 0.40 0.38 0.28 0.22 0.20 0.18 0.12 0.11 0.10 0.08 0.08 0.07 0.09 0.12 0.14 0.14 0.12 0.12 0.12 0.11 0.09 0.07 0.08 0.11 0.14 0.17 0.22 0.23 0.15 0.11 0.10 0.08 0.07 0.07 0.07
0.00 0.00 0.00 0.00 0.00 0.01 0.02 0.03 0.04 0.06 0.09 0.07 0.09 0.21 0.53 0.58 0.38 0.35 0.32 0.33 0.30 0.26 0.27 0.27 0.20 0.14 0.12 0.13 0.17 0.18 0.18 0.17 0.14 0.10 0.07 0.08 0.11 0.13 0.15 0.13 0.14 0.14 0.09 0.06 0.04 0.03 0.02 0.02 0.02
0.00 0.00 0.00 0.00 0.00 0.01 0.02 0.04 0.05 0.05 0.07 0.07 0.08 0.15 0.45 0.55 0.42 0.37 0.38 0.39 0.47 0.56 0.55 0.47 0.38 0.25 0.21 0.18 0.18 0.20 0.20 0.19 0.16 0.14 0.11 0.13 0.17 0.19 0.20 0.14 0.13 0.09 0.05 0.04 0.02 0.02 0.02 0.02 0.02
0.00 0.00 0.00 0.00 0.00 0.01 0.01 0.02 0.04 0.05 0.05 0.07 0.11 0.14 0.29 0.39 0.39 0.40 0.42 0.45 0.50 0.79 0.74 0.52 0.48 0.44 0.37 0.26 0.24 0.25 0.22 0.19 0.18 0.21 0.18 0.22 0.33 0.37 0.29 0.25 0.15 0.10 0.08 0.06 0.04 0.04 0.04 0.03 0.04
0.00 0.00 0.00 0.00 0.00 0.00 0.00 0.01 0.02 0.04 0.07 0.08 0.11 0.21 0.27 0.35 0.41 0.51 0.55 0.56 0.60 0.64 0.58 0.54 0.58 0.54 0.52 0.52 0.51 0.48 0.45 0.42 0.34 0.39 0.36 0.38 0.38 0.33 0.34 0.31 0.24 0.19 0.15 0.14 0.14 0.09 0.07 0.07 0.08
0.00 0.00 0.00 0.00 0.00 0.00 0.00 0.00 0.01 0.03 0.05 0.08 0.13 0.27 0.40 0.49 0.62 0.70 0.75 0.80 0.92 0.89 0.78 0.67 0.61 0.62 0.64 0.66 0.74 0.79 0.74 0.67 0.59 0.50 0.41 0.47 0.54 0.54 0.46 0.46 0.43 0.42 0.37 0.34 0.28 0.23 0.16 0.15 0.14
0.00 0.00 0.00 0.00 0.00 0.00 0.00 0.00 0.00 0.02 0.03 0.05 0.09 0.22 0.35 0.49 0.65 0.94 0.97 1.08 1.28 1.34 1.18 0.97 0.94 0.82 0.82 0.89 0.90 0.80 0.83 0.83 0.90 0.80 0.63 0.68 0.67 0.67 0.73 0.71 0.72 0.66 0.66 0.61 0.50 0.39 0.33 0.30 0.26
0.00 0.00 0.00 0.00 0.00 0.00 0.00 0.00 0.01 0.02 0.02 0.03 0.08 0.15 0.25 0.37 0.55 0.84 1.09 1.28 1.56 1.66 1.51 1.31 1.19 1.16 1.13 1.19 1.20 1.09 1.00 1.02 1.05 1.08 0.99 1.03 1.00 0.98 1.01 1.06 1.09 0.96 0.88 0.89 0.79 0.60 0.53 0.48 0.41
0.00 0.00 0.00 0.00 0.00 0.00 0.00 0.01 0.01 0.02 0.02 0.03 0.06 0.13 0.24 0.41 0.57 0.87 1.26 1.53 1.87 1.89 1.72 1.69 1.54 1.64 1.65 1.72 1.69 1.69 1.63 1.59 1.48 1.40 1.43 1.43 1.36 1.33 1.28 1.41 1.50 1.33 1.25 1.23 1.11 0.97 0.79 0.75 0.69
0.00 0.00 0.00 0.00 0.00 0.00 0.00 0.02 0.05 0.04 0.02 0.04 0.09 0.15 0.28 0.46 0.69 0.99 1.34 1.52 1.81 1.80 1.81 1.86 1.71 1.74 1.91 1.90 1.82 1.84 2.00 2.03 1.95 1.85 1.85 1.72 1.68 1.70 1.76 1.70 1.66 1.61 1.56 1.52 1.53 1.35 1.11 1.03 1.06
0.00 0.00 0.00 0.00 0.00 0.00 0.01 0.05 0.06 0.04 0.03 0.06 0.12 0.17 0.29 0.44 0.58 0.87 1.33 1.56 1.69 1.72 1.60 1.69 1.90 1.84 1.96 1.99 1.95 2.03 2.23 2.34 2.38 2.33 2.23 2.12 2.09 2.07 2.15 2.23 2.09 1.93 1.83 1.78 1.63 1.56 1.40 1.33 1.29
0.00 0.00 0.00 0.00 0.00 0.00 0.02 0.06 0.07 0.05 0.06 0.11 0.14 0.17 0.27 0.43 0.65 0.90 1.21 1.56 1.63 1.69 1.72 1.73 1.92 1.92 2.05 2.16 2.07 2.14 2.21 2.30 2.44 2.58 2.68 2.79 2.83 2.78 2.70 2.57 2.42 2.25 2.15 2.07 1.91 1.78 1.62 1.47 1.32
0.00 0.00 0.00 0.00 0.01 0.02 0.04 0.07 0.12 0.12 0.12 0.19 0.24 0.32 0.44 0.48 0.66 0.99 1.22 1.59 1.93 1.85 1.89 1.83 1.84 2.04 2.12 2.24 2.34 2.57 2.56 2.55 2.79 3.11 3.28 3.48 3.56 3.39 3.31 3.15 2.90 2.70 2.48 2.30 2.03 1.84 1.67 1.46 1.25
0.00 0.00 0.01 0.02 0.02 0.03 0.06 0.12 0.20 0.21 0.21 0.30 0.43 0.53 0.71 0.84 0.88 1.09 1.38 1.69 1.93 1.95 1.95 2.01 2.15 2.23 2.36 2.68 3.10 3.49 3.76 3.92 4.02 4.19 4.22 4.13 4.02 3.92 3.82 3.65 3.36 3.04 2.76 2.50 2.20 1.86 1.65 1.43 1.23
0.00 0.00 0.02 0.04 0.07 0.09 0.13 0.23 0.30 0.31 0.30 0.38 0.56 0.65 0.77 0.93 1.05 1.03 1.12 1.33 1.63 1.86 2.03 2.11 2.40 2.72 3.02 3.48 4.04 4.43 4.78 5.02 4.94 4.74 4.58 4.36 4.17 3.99 3.69 3.48 3.36 3.08 2.67 2.37 2.11 1.80 1.59 1.39 1.17
0.01 0.00 0.02 0.03 0.07 0.17 0.17 0.34 0.44 0.41 0.38 0.38 0.46 0.50 0.59 0.60 0.74 0.90 0.99 1.14 1.40 1.63 1.91 2.17 2.50 3.01 3.69 4.35 4.91 5.31 5.49 5.48 5.37 5.11 4.75 4.35 4.03 3.74 3.41 3.12 2.86 2.61 2.30 2.02 1.79 1.54 1.34 1.19 1.03
0.00 0.00 0.01 0.04 0.06 0.13 0.16 0.36 0.57 0.54 0.49 0.49 0.51 0.47 0.47 0.50 0.55 0.70 0.81 0.98 1.20 1.41 1.72 2.09 2.56 3.20 3.83 4.46 4.99 5.39 5.51 5.40 5.15 4.74 4.26 3.77 3.32 3.00 2.71 2.41 2.14 1.91 1.71 1.50 1.28 1.14 1.09 1.01 0.90
0.00 0.00 0.02 0.05 0.07 0.17 0.16 0.30 0.63 0.79 0.74 0.71 0.67 0.63 0.60 0.61 0.64 0.65 0.67 0.78 0.98 1.24 1.57 1.94 2.35 2.89 3.39 3.79 4.28 4.56 4.69 4.63 4.32 3.85 3.30 2.85 2.54 2.26 2.03 1.78 1.57 1.38 1.19 1.04 0.93 0.85 0.83 0.85 0.79
0.00 0.01 0.06 0.11 0.13 0.19 0.17 0.35 0.74 0.98 0.93 0.90 0.86 0.83 0.73 0.72 0.70 0.66 0.65 0.69 0.84 1.08 1.40 1.65 1.91 2.28 2.60 2.94 3.30 3.50 3.49 3.34 3.12 2.83 2.52 2.19 1.88 1.62 1.41 1.21 1.06 0.94 0.84 0.77 0.69 0.64 0.62 0.62 0.61
0.00 0.01 0.07 0.14 0.16 0.23 0.34 0.61 0.89 0.96 0.89 0.84 0.81 0.74 0.70 0.65 0.65 0.69 0.73 0.77 0.86 0.97 1.16 1.36 1.49 1.67 1.79 1.91 2.08 2.14 2.12 2.03 1.99 1.84 1.63 1.41 1.18 0.95 0.83 0.74 0.65 0.60 0.58 0.54 0.50 0.46 0.44 0.42 0.39
0.01 0.02 0.03 0.05 0.09 0.23 0.52 0.87 1.08 1.04 0.95 0.81 0.69 0.57 0.56 0.51 0.49 0.56 0.62 0.73 0.78 0.81 0.85 0.88 0.91 0.96 0.98 1.00 1.09 1.15 1.16 1.14 1.11 1.02 0.90 0.80 0.72 0.64 0.56 0.51 0.46 0.43 0.42 0.39 0.34 0.30 0.27 0.27 0.27
0.02 0.02 0.03 0.06 0.17 0.30 0.51 0.83 1.17 1.37 1.29 1.14 0.88 0.64 0.55 0.49 0.49 0.52 0.56 0.61 0.64 0.61 0.59 0.57 0.61 0.61 0.56 0.54 0.55 0.59 0.63 0.62 0.59 0.57 0.55 0.51 0.47 0.42 0.36 0.31 0.27 0.25 0.23 0.21 0.22 0.20 0.18 0.17 0.18
0.02 0.03 0.04 0.08 0.14 0.29 0.58 0.96 1.13 1.41 1.40 1.20 0.96 0.75 0.66 0.64 0.63 0.62 0.62 0.56 0.55 0.55 0.51 0.49 0.50 0.47 0.44 0.42 0.42 0.39 0.37 0.35 0.33 0.32 0.32 0.29 0.27 0.24 0.22 0.20 0.17 0.16 0.15 0.15 0.16 0.17 0.17 0.16 0.16
0.05 0.05 0.05 0.10 0.12 0.16 0.49 1.13 1.35 1.53 1.50 1.31 1.21 1.09 0.97 0.88 0.82 0.77 0.70 0.59 0.53 0.50 0.48 0.45 0.43 0.39 0.38 0.34 0.30 0.28 0.25 0.24 0.22 0.21 0.20 0.18 0.17 0.16 0.16 0.16 0.15 0.13 0.13 0.14 0.14 0.14 0.14 0.14 0.14

GEFSSGP_prec_meanprecacc_114.txt.gz
Total_Precipitation_Accumulation
0.00 0.00 0.00 0.00 0.00 0.00 0.01 0.03 0.05 0.08 0.14 0.14 0.17 0.19 0.19 0.18 0.31 0.71 0.49 0.23 0.16 0.03 0.02 0.02 0.01 0.02 0.03 0.04 0.06 0.07 0.08 0.08 0.08 0.07 0.06 0.06 0.06 0.07 0.07 0.06 0.07 0.11 0.13 0.12 0.11 0.10 0.09 0.07 0.05
0.00 0.00 0.00 0.00 0.00 0.00 0.01 0.02 0.05 0.07 0.10 0.11 0.14 0.16 0.14 0.16 0.16 0.14 0.14 0.09 0.09 0.03 0.02 0.02 0.02 0.02 0.02 0.03 0.04 0.06 0.07 0.07 0.07 0.06 0.05 0.05 0.06 0.06 0.07 0.08 0.09 0.14 0.17 0.15 0.10 0.08 0.06 0.04 0.03
0.00 0.00 0.00 0.00 0.00 0.00 0.02 0.04 0.06 0.06 0.08 0.11 0.15 0.27 0.30 0.20 0.14 0.11 0.06 0.06 0.07 0.03 0.01 0.01 0.02 0.02 0.02 0.02 0.03 0.05 0.06 0.05 0.06 0.05 0.05 0.05 0.05 0.06 0.08 0.12 0.15 0.16 0.17 0.18 0.15 0.11 0.07 0.03 0.02
0.00 0.00 0.00 0.00 0.00 0.00 0.02 0.05 0.06 0.05 0.05 0.08 0.12 0.32 0.44 0.19 0.13 0.10 0.06 0.06 0.06 0.04 0.01 0.01 0.02 0.03 0.03 0.02 0.03 0.05 0.06 0.06 0.06 0.05 0.06 0.06 0.06 0.07 0.11 0.19 0.24 0.22 0.20 0.23 0.22 0.18 0.12 0.05 0.03
0.00 0.00 0.00 0.00 0.00 0.00 0.01 0.03 0.06 0.04 0.03 0.04 0.07 0.24 0.42 0.25 0.11 0.09 0.08 0.06 0.06 0.05 0.02 0.02 0.03 0.05 0.04 0.03 0.04 0.05 0.06 0.08 0.10 0.10 0.09 0.09 0.09 0.10 0.16 0.23 0.26 0.24 0.24 0.25 0.21 0.15 0.08 0.06 0.07
0.00 0.00 0.00 0.00 0.00 0.01 0.01 0.01 0.04 0.04 0.03 0.05 0.07 0.19 0.40 0.32 0.21 0.14 0.13 0.11 0.07 0.06 0.02 0.03 0.05 0.07 0.06 0.06 0.07 0.09 0.09 0.10 0.12 0.13 0.12 0.09 0.08 0.11 0.16 0.21 0.24 0.25 0.22 0.17 0.14 0.10 0.09 0.10 0.11
0.00 0.00 0.00 0.00 0.00 0.01 0.01 0.02 0.03 0.04 0.05 0.06 0.10 0.20 0.41 0.39 0.29 0.23 0.20 0.18 0.13 0.11 0.11 0.10 0.10 0.09 0.10 0.14 0.17 0.17 0.15 0.14 0.14 0.13 0.10 0.08 0.09 0.12 0.15 0.19 0.24 0.24 0.16 0.12 0.10 0.08 0.07 0.07 0.08
0.00 0.00 0.00 0.00 0.00 0.01 0.02 0.03 0.04 0.06 0.09 0.07 0.09 0.21 0.54 0.60 0.39 0.36 0.33 0.34 0.30 0.26 0.28 0.29 0.23 0.17 0.15 0.18 0.21 0.22 0.22 0.21 0.17 0.14 0.10 0.10 0.14 0.15 0.18 0.16 0.17 0.16 0.11 0.07 0.05 0.04 0.03 0.03 0.03
0.00 0.00 0.00 0.00 0.00 0.01 0.02 0.04 0.05 0.05 0.08 0.07 0.08 0.15 0.47 0.56 0.44 0.38 0.40 0.40 0.49 0.57 0.56 0.49 0.42 0.31 0.28 0.27 0.24 0.26 0.27 0.26 0.21 0.18 0.15 0.17 0.21 0.23 0.24 0.17 0.17 0.11 0.07 0.05 0.04 0.03 0.03 0.03 0.03
0.00 0.00 0.00 0.00 0.00 0.01 0.01 0.02 0.04 0.05 0.05 0.08 0.12 0.15 0.30 0.41 0.41 0.43 0.45 0.47 0.52 0.81 0.76 0.55 0.53 0.50 0.46 0.37 0.35 0.36 0.31 0.26 0.23 0.26 0.23 0.27 0.40 0.46 0.38 0.32 0.21 0.15 0.11 0.09 0.07 0.06 0.05 0.04 0.05
0.00 0.00 0.00 0.00 0.00 0.00 0.00 0.01 0.03 0.05 0.07 0.09 0.12 0.22 0.28 0.37 0.44 0.55 0.61 0.60 0.63 0.68 0.61 0.56 0.63 0.60 0.59 0.61 0.66 0.61 0.56 0.52 0.43 0.48 0.44 0.47 0.48 0.44 0.45 0.40 0.32 0.26 0.21 0.20 0.20 0.14 0.10 0.10 0.10
0.00 0.00 0.00 0.00 0.00 0.00 0.00 0.00 0.01 0.04 0.05 0.09 0.15 0.28 0.42 0.52 0.65 0.74 0.79 0.83 0.95 0.92 0.81 0.70 0.64 0.67 0.72 0.74 0.84 0.90 0.86 0.79 0.73 0.66 0.59 0.61 0.65 0.64 0.55 0.57 0.53 0.51 0.47 0.45 0.39 0.32 0.24 0.21 0.19
0.00 0.00 0.00 0.00 0.00 0.00 0.00 0.00 0.01 0.02 0.04 0.06 0.12 0.24 0.37 0.52 0.70 0.97 0.99 1.10 1.30 1.36 1.20 1.00 0.98 0.87 0.90 1.00 1.04 0.92 0.94 0.98 1.05 0.95 0.80 0.84 0.80 0.81 0.88 0.85 0.86 0.80 0.81 0.75 0.63 0.51 0.44 0.39 0.32
0.00 0.00 0.00 0.00 0.00 0.00 0.00 0.00 0.01 0.02 0.03 0.04 0.09 0.16 0.27 0.38 0.57 0.86 1.10 1.29 1.57 1.67 1.52 1.33 1.22 1.21 1.20 1.32 1.39 1.26 1.15 1.15 1.18 1.19 1.10 1.14 1.11 1.10 1.14 1.18 1.21 1.10 1.05 1.05 0.92 0.72 0.64 0.58 0.50
0.00 0.00 0.00 0.00 0.00 0.00 0.00 0.01 0.02 0.02 0.02 0.04 0.07 0.14 0.25 0.41 0.58 0.88 1.28 1.55 1.88 1.91 1.73 1.70 1.56 1.67 1.71 1.82 1.84 1.86 1.77 1.74 1.63 1.53 1.54 1.52 1.47 1.45 1.39 1.52 1.60 1.46 1.40 1.39 1.26 1.09 0.90 0.85 0.78
0.00 0.00 0.00 0.00 0.00 0.00 0.00 0.02 0.05 0.04 0.03 0.05 0.09 0.16 0.29 0.47 0.70 1.00 1.36 1.54 1.83 1.81 1.82 1.87 1.72 1.77 1.96 1.96 1.90 1.94 2.12 2.15 2.07 1.97 1.97 1.83 1.80 1.84 1.90 1.85 1.80 1.73 1.67 1.64 1.68 1.48 1.23 1.14 1.17
0.00 0.00 0.00 0.00 0.00 0.00 0.01 0.05 0.07 0.04 0.03 0.06 0.13 0.18 0.30 0.45 0.59 0.89 1.35 1.57 1.70 1.73 1.62 1.70 1.92 1.88 2.01 2.04 2.00 2.09 2.32 2.46 2.49 2.45 2.36 2.24 2.22 2.21 2.30 2.39 2.25 2.07 1.94 1.90 1.79 1.72 1.55 1.48 1.44
0.00 0.00 0.00 0.00 0.00 0.00 0.02 0.06 0.07 0.06 0.06 0.11 0.15 0.18 0.28 0.44 0.66 0.92 1.23 1.57 1.64 1.70 1.73 1.74 1.94 1.95 2.10 2.22 2.12 2.20 2.27 2.38 2.53 2.67 2.79 2.91 2.95 2.91 2.83 2.72 2.59 2.41 2.27 2.20 2.06 1.95 1.80 1.63 1.47
0.00 0.00 0.00 0.00 0.01 0.02 0.04 0.07 0.12 0.12 0.12 0.19 0.25 0.33 0.45 0.49 0.66 1.00 1.23 1.61 1.94 1.86 1.91 1.85 1.86 2.08 2.17 2.29 2.39 2.62 2.62 2.61 2.85 3.17 3.35 3.56 3.64 3.47 3.39 3.26 3.05 2.84 2.61 2.44 2.19 2.00 1.86 1.64 1.43
0.00 0.00 0.01 0.02 0.02 0.03 0.06 0.12 0.20 0.22 0.22 0.30 0.44 0.54 0.72 0.85 0.89 1.10 1.40 1.72 1.96 1.98 1.98 2.04 2.17 2.25 2.39 2.71 3.14 3.53 3.80 3.97 4.07 4.24 4.30 4.22 4.10 3.98 3.87 3.74 3.48 3.18 2.90 2.64 2.37 2.05 1.85 1.62 1.42
0.00 0.00 0.02 0.04 0.07 0.10 0.13 0.23 0.30 0.31 0.30 0.39 0.57 0.66 0.78 0.94 1.07 1.05 1.13 1.35 1.65 1.88 2.05 2.14 2.43 2.75 3.05 3.51 4.07 4.47 4.81 5.06 4.98 4.80 4.66 4.47 4.28 4.08 3.76 3.55 3.47 3.21 2.82 2.54 2.31 2.03 1.83 1.62 1.39
0.01 0.00 0.02 0.03 0.08 0.17 0.18 0.35 0.45 0.42 0.38 0.39 0.47 0.53 0.62 0.62 0.76 0.92 1.01 1.16 1.42 1.66 1.94 2.19 2.52 3.03 3.71 4.38 4.95 5.36 5.53 5.52 5.42 5.16 4.80 4.42 4.12 3.83 3.50 3.20 2.95 2.72 2.43 2.17 1.98 1.80 1.67 1.53 1.38
0.00 0.00 0.01 0.04 0.06 0.14 0.16 0.37 0.57 0.55 0.50 0.50 0.54 0.51 0.49 0.51 0.58 0.73 0.84 1.01 1.24 1.44 1.75 2.12 2.58 3.22 3.84 4.48 5.03 5.44 5.57 5.45 5.20 4.78 4.31 3.81 3.37 3.05 2.78 2.49 2.21 1.99 1.79 1.60 1.41 1.34 1.37 1.35 1.28
0.00 0.00 0.02 0.05 0.08 0.17 0.16 0.30 0.63 0.79 0.74 0.72 0.68 0.65 0.62 0.63 0.67 0.68 0.69 0.81 1.01 1.27 1.60 1.96 2.38 2.92 3.42 3.82 4.31 4.60 4.74 4.67 4.36 3.89 3.33 2.89 2.58 2.31 2.08 1.83 1.62 1.43 1.25 1.11 1.03 1.00 1.02 1.08 1.09
0.00 0.01 0.06 0.11 0.13 0.19 0.17 0.35 0.74 0.99 0.93 0.90 0.86 0.84 0.75 0.73 0.71 0.67 0.67 0.70 0.85 1.10 1.42 1.66 1.93 2.30 2.62 2.98 3.33 3.53 3.53 3.38 3.16 2.87 2.55 2.22 1.90 1.64 1.44 1.26 1.11 0.98 0.88 0.85 0.79 0.78 0.79 0.82 0.84
0.00 0.01 0.07 0.14 0.16 0.23 0.34 0.62 0.89 0.96 0.89 0.84 0.82 0.74 0.71 0.67 0.66 0.72 0.78 0.81 0.90 1.00 1.18 1.37 1.51 1.70 1.84 1.96 2.14 2.18 2.15 2.06 2.02 1.87 1.67 1.44 1.20 0.97 0.84 0.76 0.68 0.64 0.63 0.61 0.58 0.57 0.59 0.60 0.59
0.01 0.02 0.03 0.05 0.09 0.23 0.52 0.87 1.08 1.05 0.95 0.82 0.70 0.57 0.57 0.54 0.52 0.62 0.70 0.81 0.87 0.89 0.89 0.92 0.94 1.01 1.05 1.06 1.15 1.20 1.20 1.17 1.14 1.04 0.93 0.82 0.74 0.65 0.57 0.52 0.48 0.46 0.45 0.43 0.40 0.37 0.34 0.37 0.41
0.02 0.02 0.03 0.06 0.17 0.30 0.51 0.83 1.17 1.37 1.30 1.14 0.89 0.64 0.56 0.53 0.54 0.55 0.58 0.63 0.67 0.66 0.62 0.59 0.63 0.64 0.59 0.56 0.57 0.61 0.65 0.64 0.62 0.59 0.56 0.52 0.49 0.44 0.39 0.33 0.29 0.27 0.27 0.26 0.27 0.27 0.23 0.22 0.25
0.02 0.03 0.04 0.08 0.14 0.30 0.59 0.97 1.13 1.41 1.40 1.20 0.97 0.76 0.67 0.66 0.66 0.65 0.65 0.58 0.57 0.58 0.54 0.50 0.51 0.48 0.45 0.43 0.44 0.41 0.39 0.37 0.35 0.34 0.33 0.30 0.28 0.26 0.25 0.23 0.20 0.18 0.18 0.17 0.19 0.22 0.22 0.21 0.20
0.05 0.05 0.05 0.11 0.12 0.17 0.50 1.14 1.35 1.53 1.50 1.32 1.22 1.11 0.99 0.90 0.85 0.79 0.72 0.60 0.54 0.52 0.49 0.46 0.44 0.41 0.39 0.35 0.32 0.29 0.27 0.25 0.24 0.22 0.21 0.19 0.18 0.18 0.18 0.17 0.17 0.14 0.14 0.15 0.16 0.16 0.16 0.17 0.17

GEFSSGP_prec_meanprecacc_120.txt.gz
Total_Precipitation_Accumulation
0.00 0.00 0.00 0.00 0.00 0.00 0.01 0.03 0.05 0.08 0.14 0.14 0.17 0.20 0.20 0.19 0.36 0.83 0.53 0.23 0.17 0.04 0.02 0.02 0.01 0.02 0.03 0.04 0.06 0.07 0.08 0.08 0.08 0.07 0.06 0.06 0.06 0.07 0.07 0.07 0.07 0.11 0.13 0.12 0.11 0.10 0.10 0.08 0.05
0.00 0.00 0.00 0.00 0.00 0.00 0.01 0.02 0.05 0.07 0.10 0.11 0.14 0.16 0.15 0.18 0.18 0.16 0.15 0.10 0.10 0.03 0.02 0.02 0.02 0.02 0.02 0.03 0.05 0.06 0.07 0.07 0.07 0.06 0.05 0.06 0.06 0.07 0.07 0.08 0.10 0.15 0.17 0.15 0.11 0.08 0.06 0.04 0.04
0.00 0.00 0.00 0.00 0.00 0.00 0.02 0.04 0.06 0.06 0.08 0.11 0.15 0.28 0.32 0.24 0.17 0.12 0.07 0.06 0.07 0.03 0.01 0.01 0.02 0.02 0.02 0.03 0.03 0.05 0.06 0.06 0.06 0.06 0.06 0.06 0.06 0.07 0.08 0.12 0.16 0.17 0.18 0.19 0.16 0.12 0.07 0.04 0.03
0.00 0.00 0.00 0.00 0.00 0.00 0.02 0.05 0.06 0.05 0.05 0.08 0.13 0.33 0.44 0.21 0.15 0.11 0.07 0.06 0.06 0.04 0.01 0.01 0.02 0.03 0.03 0.03 0.03 0.05 0.07 0.06 0.07 0.06 0.07 0.08 0.08 0.08 0.12 0.20 0.25 0.23 0.21 0.24 0.23 0.19 0.12 0.06 0.04
0.00 0.00 0.00 0.00 0.00 0.00 0.01 0.03 0.06 0.04 0.03 0.04 0.08 0.28 0.45 0.26 0.12 0.09 0.08 0.06 0.06 0.05 0.02 0.02 0.04 0.05 0.04 0.03 0.04 0.06 0.07 0.09 0.11 0.12 0.11 0.11 0.10 0.12 0.17 0.25 0.26 0.26 0.25 0.26 0.22 0.16 0.09 0.07 0.07
0.00 0.00 0.00 0.00 0.00 0.01 0.01 0.01 0.04 0.04 0.03 0.05 0.09 0.26 0.51 0.41 0.23 0.15 0.13 0.12 0.08 0.07 0.03 0.03 0.05 0.07 0.06 0.07 0.08 0.10 0.10 0.12 0.14 0.15 0.14 0.11 0.10 0.13 0.19 0.22 0.25 0.26 0.23 0.19 0.15 0.11 0.10 0.10 0.11
0.00 0.00 0.00 0.00 0.00 0.01 0.01 0.02 0.03 0.04 0.06 0.07 0.13 0.29 0.57 0.49 0.31 0.24 0.21 0.19 0.13 0.12 0.12 0.11 0.11 0.09 0.11 0.14 0.17 0.18 0.17 0.16 0.16 0.15 0.13 0.11 0.12 0.15 0.18 0.21 0.26 0.26 0.18 0.14 0.12 0.10 0.08 0.08 0.08
0.00 0.00 0.00 0.00 0.00 0.01 0.02 0.03 0.04 0.06 0.11 0.12 0.14 0.30 0.67 0.70 0.44 0.38 0.34 0.35 0.32 0.28 0.30 0.30 0.24 0.19 0.17 0.19 0.22 0.24 0.24 0.23 0.20 0.16 0.13 0.14 0.17 0.19 0.21 0.18 0.20 0.19 0.14 0.10 0.08 0.06 0.05 0.04 0.03
0.00 0.00 0.00 0.00 0.00 0.01 0.02 0.04 0.05 0.05 0.09 0.16 0.17 0.27 0.57 0.67 0.53 0.43 0.42 0.43 0.52 0.61 0.62 0.56 0.47 0.34 0.31 0.30 0.26 0.28 0.29 0.28 0.24 0.21 0.19 0.22 0.26 0.28 0.30 0.24 0.25 0.18 0.13 0.10 0.08 0.06 0.06 0.04 0.04
0.00 0.00 0.00 0.00 0.00 0.01 0.01 0.02 0.04 0.05 0.07 0.16 0.19 0.25 0.40 0.47 0.49 0.48 0.51 0.52 0.58 0.86 0.82 0.63 0.62 0.58 0.53 0.42 0.40 0.41 0.35 0.31 0.28 0.34 0.30 0.35 0.51 0.59 0.53 0.49 0.36 0.28 0.21 0.16 0.12 0.11 0.09 0.05 0.07
0.00 0.00 0.00 0.00 0.00 0.00 0.00 0.01 0.03 0.07 0.18 0.30 0.29 0.32 0.38 0.45 0.52 0.64 0.70 0.68 0.72 0.76 0.71 0.68 0.74 0.71 0.70 0.71 0.77 0.70 0.65 0.61 0.51 0.59 0.57 0.60 0.64 0.61 0.62 0.59 0.46 0.38 0.34 0.33 0.32 0.21 0.17 0.14 0.15
0.00 0.00 0.00 0.00 0.00 0.00 0.00 0.00 0.02 0.05 0.18 0.34 0.36 0.42 0.51 0.63 0.75 0.85 0.90 0.95 1.07 1.03 0.89 0.77 0.72 0.74 0.82 0.88 0.99 1.03 1.01 0.95 0.85 0.80 0.75 0.82 0.88 0.85 0.74 0.79 0.75 0.71 0.65 0.64 0.59 0.48 0.38 0.32 0.28
0.00 0.00 0.00 0.00 0.00 0.00 0.00 0.01 0.01 0.04 0.17 0.24 0.32 0.37 0.44 0.60 0.83 1.18 1.17 1.28 1.46 1.48 1.29 1.06 1.05 0.95 1.00 1.14 1.19 1.07 1.10 1.13 1.19 1.14 1.03 1.09 1.04 1.04 1.12 1.08 1.13 1.06 1.07 1.00 0.88 0.72 0.65 0.57 0.50
0.00 0.00 0.00 0.00 0.00 0.00 0.00 0.02 0.03 0.06 0.15 0.19 0.23 0.27 0.34 0.46 0.68 1.00 1.27 1.40 1.71 1.76 1.56 1.37 1.27 1.28 1.29 1.43 1.51 1.40 1.30 1.31 1.36 1.41 1.29 1.33 1.33 1.33 1.37 1.40 1.44 1.33 1.28 1.28 1.17 0.97 0.88 0.80 0.70
0.00 0.00 0.00 0.00 0.00 0.00 0.00 0.02 0.04 0.06 0.13 0.20 0.17 0.20 0.32 0.53 0.67 0.97 1.37 1.60 1.95 1.95 1.77 1.74 1.60 1.73 1.77 1.90 1.94 1.96 1.88 1.86 1.77 1.71 1.73 1.67 1.63 1.63 1.58 1.73 1.83 1.68 1.61 1.61 1.46 1.30 1.10 1.06 1.01
0.00 0.00 0.00 0.00 0.00 0.00 0.01 0.08 0.12 0.09 0.11 0.16 0.14 0.19 0.35 0.55 0.75 1.04 1.41 1.57 1.85 1.84 1.85 1.90 1.75 1.81 2.01 2.02 1.97 2.04 2.21 2.23 2.16 2.06 2.09 1.96 1.92 1.97 2.06 2.03 1.98 1.92 1.86 1.83 1.86 1.66 1.43 1.37 1.44
0.00 0.00 0.00 0.00 0.00 0.00 0.01 0.11 0.13 0.09 0.08 0.10 0.15 0.22 0.34 0.49 0.62 0.92 1.38 1.60 1.73 1.76 1.65 1.74 1.95 1.92 2.05 2.09 2.06 2.16 2.40 2.53 2.56 2.52 2.44 2.33 2.32 2.35 2.46 2.56 2.41 2.23 2.11 2.09 1.98 1.91 1.77 1.72 1.69
0.00 0.00 0.00 0.00 0.00 0.00 0.02 0.08 0.15 0.13 0.15 0.16 0.16 0.20 0.32 0.47 0.68 0.94 1.25 1.59 1.67 1.72 1.76 1.77 1.97 1.98 2.14 2.26 2.17 2.25 2.34 2.45 2.60 2.74 2.84 2.98 3.03 3.00 2.95 2.84 2.70 2.52 2.41 2.35 2.24 2.17 2.07 1.89 1.70
0.00 0.00 0.00 0.00 0.01 0.02 0.04 0.09 0.16 0.15 0.16 0.22 0.26 0.34 0.47 0.51 0.67 1.01 1.26 1.63 1.96 1.88 1.92 1.87 1.88 2.10 2.20 2.33 2.45 2.67 2.68 2.68 2.91 3.22 3.39 3.60 3.69 3.52 3.46 3.34 3.15 2.94 2.72 2.57 2.35 2.21 2.11 1.91 1.68
0.00 0.00 0.01 0.02 0.03 0.03 0.06 0.13 0.22 0.23 0.24 0.35 0.46 0.58 0.76 0.87 0.90 1.12 1.43 1.74 1.98 2.00 1.99 2.06 2.19 2.28 2.42 2.76 3.18 3.57 3.85 4.02 4.11 4.28 4.34 4.26 4.13 4.01 3.90 3.79 3.55 3.28 3.03 2.78 2.54 2.26 2.08 1.85 1.64
0.00 0.00 0.02 0.04 0.07 0.10 0.13 0.24 0.31 0.32 0.32 0.41 0.58 0.69 0.81 0.97 1.10 1.08 1.15 1.36 1.66 1.89 2.07 2.15 2.45 2.78 3.08 3.55 4.10 4.49 4.85 5.09 5.02 4.84 4.71 4.49 4.29 4.10 3.78 3.58 3.50 3.27 2.92 2.67 2.46 2.22 2.02 1.80 1.59
0.01 0.00 0.02 0.04 0.08 0.17 0.18 0.36 0.47 0.45 0.41 0.41 0.49 0.55 0.64 0.64 0.79 0.94 1.02 1.16 1.43 1.66 1.94 2.21 2.54 3.05 3.74 4.41 4.98 5.39 5.57 5.57 5.48 5.23 4.86 4.46 4.15 3.84 3.51 3.22 2.97 2.76 2.49 2.26 2.10 1.98 1.86 1.74 1.57
0.01 0.00 0.01 0.04 0.06 0.14 0.17 0.38 0.60 0.59 0.57 0.56 0.57 0.54 0.52 0.54 0.61 0.75 0.85 1.01 1.24 1.44 1.75 2.13 2.60 3.23 3.86 4.51 5.07 5.49 5.62 5.51 5.27 4.85 4.37 3.88 3.42 3.07 2.79 2.51 2.24 2.02 1.84 1.66 1.50 1.46 1.55 1.59 1.53
0.00 0.00 0.02 0.05 0.08 0.19 0.17 0.31 0.67 0.84 0.83 0.83 0.75 0.69 0.65 0.66 0.69 0.69 0.70 0.81 1.01 1.28 1.61 1.97 2.40 2.94 3.44 3.84 4.34 4.64 4.80 4.73 4.42 3.95 3.39 2.95 2.63 2.34 2.11 1.86 1.64 1.46 1.29 1.15 1.09 1.09 1.14 1.24 1.29
0.00 0.01 0.08 0.13 0.16 0.22 0.18 0.36 0.78 1.02 0.99 1.00 0.92 0.88 0.77 0.76 0.73 0.68 0.68 0.71 0.86 1.10 1.44 1.69 1.95 2.32 2.64 3.00 3.36 3.55 3.56 3.41 3.19 2.92 2.60 2.26 1.94 1.67 1.47 1.29 1.14 1.01 0.92 0.89 0.85 0.85 0.90 0.94 0.98
0.01 0.01 0.10 0.20 0.23 0.27 0.36 0.64 0.95 1.02 0.93 0.90 0.85 0.76 0.73 0.68 0.68 0.74 0.79 0.82 0.91 1.01 1.19 1.39 1.53 1.73 1.86 1.98 2.16 2.20 2.17 2.08 2.05 1.90 1.69 1.46 1.22 0.98 0.86 0.78 0.71 0.68 0.67 0.65 0.63 0.63 0.68 0.70 0.70
0.01 0.02 0.04 0.07 0.12 0.27 0.57 0.95 1.17 1.11 0.99 0.84 0.72 0.58 0.58 0.56 0.54 0.63 0.71 0.82 0.88 0.91 0.93 0.95 0.97 1.03 1.06 1.08 1.17 1.22 1.21 1.18 1.15 1.06 0.95 0.85 0.76 0.66 0.58 0.53 0.50 0.48 0.48 0.47 0.44 0.42 0.40 0.45 0.51
0.02 0.02 0.04 0.07 0.20 0.35 0.57 0.93 1.29 1.45 1.34 1.18 0.91 0.66 0.60 0.57 0.55 0.56 0.59 0.64 0.68 0.68 0.66 0.63 0.67 0.67 0.62 0.58 0.58 0.62 0.66 0.65 0.63 0.61 0.58 0.54 0.50 0.45 0.39 0.34 0.30 0.28 0.28 0.28 0.30 0.30 0.28 0.29 0.33
0.03 0.03 0.04 0.08 0.15 0.33 0.66 1.07 1.23 1.48 1.45 1.27 1.02 0.80 0.72 0.70 0.68 0.67 0.67 0.59 0.58 0.59 0.56 0.54 0.55 0.52 0.48 0.45 0.45 0.41 0.40 0.38 0.35 0.35 0.35 0.32 0.29 0.27 0.26 0.23 0.21 0.19 0.19 0.19 0.21 0.24 0.26 0.27 0.26
0.05 0.05 0.05 0.12 0.14 0.19 0.55 1.26 1.44 1.59 1.54 1.35 1.25 1.14 1.03 0.93 0.87 0.80 0.74 0.61 0.55 0.53 0.51 0.49 0.47 0.44 0.42 0.37 0.34 0.31 0.27 0.26 0.25 0.23 0.22 0.20 0.19 0.18 0.18 0.18 0.17 0.15 0.15 0.16 0.17 0.18 0.19 0.21 0.22

GEFSSGP_prec_meanprecacc_126.txt.gz
Total_Precipitation_Accumulation
0.00 0.00 0.00 0.00 0.00 0.00 0.01 0.03 0.05 0.09 0.14 0.15 0.17 0.20 0.20 0.20 0.38 0.91 0.62 0.29 0.20 0.05 0.03 0.02 0.01 0.02 0.03 0.04 0.06 0.07 0.08 0.08 0.08 0.07 0.06 0.06 0.06 0.07 0.07 0.07 0.08 0.11 0.14 0.12 0.11 0.11 0.10 0.08 0.06
0.00 0.00 0.00 0.00 0.00 0.00 0.01 0.02 0.05 0.07 0.10 0.11 0.14 0.16 0.15 0.20 0.24 0.23 0.25 0.19 0.12 0.04 0.02 0.02 0.02 0.02 0.02 0.03 0.05 0.07 0.08 0.07 0.07 0.06 0.05 0.06 0.06 0.07 0.08 0.08 0.10 0.15 0.18 0.16 0.12 0.09 0.07 0.05 0.04
0.00 0.00 0.00 0.00 0.00 0.00 0.02 0.04 0.06 0.06 0.09 0.12 0.16 0.28 0.33 0.29 0.28 0.19 0.15 0.12 0.08 0.04 0.02 0.02 0.02 0.02 0.02 0.03 0.03 0.05 0.07 0.06 0.07 0.06 0.06 0.07 0.07 0.07 0.09 0.13 0.17 0.18 0.19 0.20 0.17 0.12 0.08 0.04 0.03
0.00 0.00 0.00 0.00 0.00 0.00 0.02 0.05 0.06 0.05 0.06 0.09 0.14 0.34 0.47 0.26 0.29 0.21 0.13 0.09 0.07 0.04 0.01 0.01 0.02 0.03 0.03 0.03 0.03 0.06 0.07 0.07 0.07 0.07 0.08 0.08 0.09 0.09 0.13 0.21 0.26 0.24 0.22 0.25 0.24 0.20 0.13 0.06 0.04
0.00 0.00 0.00 0.00 0.00 0.00 0.01 0.03 0.06 0.04 0.04 0.07 0.10 0.31 0.52 0.41 0.30 0.20 0.14 0.10 0.07 0.05 0.02 0.02 0.04 0.05 0.04 0.04 0.05 0.07 0.08 0.10 0.12 0.12 0.12 0.12 0.12 0.13 0.18 0.26 0.27 0.27 0.26 0.26 0.23 0.17 0.10 0.07 0.07
0.00 0.00 0.00 0.00 0.00 0.01 0.01 0.01 0.04 0.04 0.04 0.07 0.10 0.29 0.64 0.65 0.40 0.24 0.20 0.17 0.11 0.08 0.03 0.03 0.05 0.07 0.07 0.07 0.09 0.10 0.11 0.13 0.15 0.15 0.15 0.12 0.12 0.14 0.20 0.24 0.26 0.27 0.24 0.20 0.15 0.12 0.10 0.11 0.12
0.00 0.00 0.00 0.00 0.00 0.01 0.01 0.02 0.03 0.04 0.06 0.08 0.16 0.36 0.67 0.61 0.42 0.35 0.33 0.27 0.18 0.14 0.13 0.11 0.12 0.10 0.11 0.14 0.18 0.19 0.17 0.17 0.17 0.15 0.14 0.12 0.13 0.16 0.19 0.23 0.28 0.28 0.19 0.15 0.13 0.10 0.09 0.08 0.08
0.00 0.00 0.00 0.00 0.00 0.01 0.02 0.03 0.04 0.06 0.12 0.14 0.18 0.37 0.76 0.82 0.59 0.56 0.56 0.50 0.40 0.33 0.32 0.32 0.26 0.20 0.18 0.20 0.23 0.24 0.25 0.24 0.21 0.17 0.13 0.15 0.18 0.20 0.23 0.20 0.22 0.21 0.15 0.12 0.09 0.07 0.06 0.04 0.04
0.00 0.00 0.00 0.00 0.00 0.01 0.02 0.04 0.05 0.06 0.09 0.17 0.23 0.36 0.68 0.83 0.74 0.69 0.69 0.64 0.69 0.71 0.70 0.60 0.50 0.36 0.33 0.32 0.27 0.30 0.30 0.29 0.25 0.22 0.19 0.22 0.26 0.29 0.32 0.26 0.28 0.22 0.17 0.13 0.10 0.08 0.07 0.06 0.04
0.00 0.00 0.00 0.00 0.00 0.01 0.01 0.02 0.04 0.06 0.09 0.23 0.31 0.36 0.53 0.69 0.84 0.89 0.85 0.76 0.85 1.06 0.94 0.71 0.68 0.62 0.57 0.46 0.42 0.44 0.37 0.33 0.30 0.35 0.31 0.36 0.52 0.61 0.57 0.55 0.43 0.36 0.29 0.22 0.17 0.14 0.11 0.07 0.08
0.00 0.00 0.00 0.00 0.00 0.00 0.00 0.01 0.03 0.07 0.22 0.41 0.54 0.59 0.66 0.81 0.99 1.15 1.13 0.99 1.08 1.13 0.94 0.82 0.85 0.82 0.82 0.82 0.85 0.77 0.70 0.65 0.55 0.62 0.60 0.64 0.69 0.67 0.71 0.69 0.58 0.51 0.48 0.43 0.39 0.26 0.20 0.17 0.18
0.00 0.00 0.00 0.00 0.00 0.00 0.00 0.00 0.02 0.07 0.21 0.42 0.57 0.82 0.95 1.09 1.22 1.42 1.48 1.32 1.44 1.42 1.17 0.94 0.88 0.92 1.05 1.09 1.11 1.12 1.10 1.04 0.93 0.88 0.81 0.89 0.96 0.97 0.91 0.98 0.94 0.90 0.85 0.78 0.69 0.56 0.45 0.38 0.37
0.00 0.00 0.00 0.00 0.00 0.00 0.00 0.01 0.02 0.06 0.20 0.31 0.46 0.63 0.75 0.85 1.15 1.64 1.66 1.66 1.83 1.85 1.64 1.33 1.23 1.18 1.17 1.28 1.31 1.14 1.18 1.23 1.30 1.22 1.11 1.18 1.12 1.14 1.27 1.25 1.32 1.25 1.29 1.20 1.04 0.86 0.76 0.66 0.60
0.00 0.00 0.00 0.00 0.00 0.00 0.00 0.03 0.04 0.10 0.21 0.25 0.30 0.42 0.64 0.71 0.94 1.37 1.64 1.79 2.00 2.07 1.95 1.69 1.45 1.44 1.41 1.53 1.60 1.47 1.38 1.39 1.42 1.46 1.36 1.41 1.42 1.43 1.48 1.51 1.56 1.47 1.46 1.48 1.36 1.14 1.01 0.93 0.83
0.00 0.00 0.00 0.00 0.00 0.00 0.00 0.03 0.05 0.08 0.20 0.32 0.31 0.37 0.59 0.85 0.97 1.41 1.77 1.91 2.19 2.18 1.99 1.94 1.75 1.86 1.90 1.99 1.99 2.01 1.94 1.90 1.82 1.76 1.77 1.72 1.70 1.72 1.66 1.80 1.91 1.77 1.70 1.71 1.61 1.51 1.26 1.24 1.22
0.00 0.00 0.00 0.00 0.00 0.00 0.01 0.10 0.14 0.14 0.17 0.28 0.33 0.42 0.64 0.85 1.06 1.38 1.75 1.81 2.01 1.97 1.97 2.03 1.90 1.93 2.09 2.08 2.02 2.08 2.26 2.28 2.20 2.11 2.13 2.00 1.97 2.02 2.12 2.08 2.02 1.97 1.92 1.91 1.95 1.79 1.57 1.51 1.61
0.00 0.00 0.00 0.00 0.00 0.00 0.01 0.12 0.16 0.16 0.21 0.28 0.33 0.42 0.55 0.68 0.91 1.21 1.67 1.87 1.93 1.92 1.77 1.83 2.04 1.99 2.11 2.13 2.10 2.20 2.44 2.57 2.61 2.56 2.46 2.36 2.36 2.38 2.49 2.58 2.44 2.27 2.16 2.15 2.03 1.98 1.86 1.85 1.83
0.00 0.00 0.00 0.00 0.00 0.01 0.02 0.09 0.19 0.19 0.29 0.32 0.38 0.35 0.47 0.64 0.93 1.23 1.65 1.87 1.85 1.88 1.87 1.85 2.04 2.05 2.19 2.31 2.23 2.31 2.39 2.49 2.63 2.76 2.86 2.99 3.05 3.02 2.96 2.86 2.72 2.55 2.44 2.39 2.28 2.22 2.14 2.02 1.86
0.00 0.00 0.00 0.00 0.01 0.02 0.06 0.11 0.20 0.24 0.32 0.41 0.49 0.46 0.57 0.59 0.77 1.17 1.56 1.81 2.07 1.98 2.01 1.93 1.96 2.16 2.25 2.38 2.50 2.73 2.74 2.72 2.96 3.26 3.42 3.62 3.70 3.53 3.46 3.35 3.16 2.96 2.74 2.60 2.40 2.26 2.17 2.01 1.83
0.00 0.00 0.01 0.02 0.04 0.04 0.08 0.17 0.29 0.35 0.35 0.46 0.60 0.65 0.85 0.95 0.96 1.18 1.54 1.83 2.03 2.05 2.03 2.09 2.25 2.34 2.45 2.78 3.22 3.62 3.91 4.07 4.15 4.31 4.37 4.29 4.15 4.03 3.91 3.80 3.56 3.29 3.04 2.80 2.58 2.32 2.15 1.96 1.77
0.00 0.01 0.02 0.04 0.08 0.10 0.15 0.32 0.40 0.39 0.39 0.51 0.68 0.77 0.92 1.06 1.19 1.14 1.20 1.40 1.69 1.91 2.09 2.18 2.47 2.80 3.11 3.58 4.13 4.52 4.89 5.13 5.05 4.86 4.73 4.51 4.31 4.11 3.79 3.58 3.51 3.28 2.93 2.69 2.49 2.26 2.08 1.87 1.69
0.01 0.00 0.02 0.04 0.08 0.18 0.19 0.40 0.53 0.50 0.56 0.60 0.65 0.68 0.76 0.74 0.86 1.01 1.08 1.20 1.46 1.68 1.96 2.22 2.55 3.06 3.76 4.43 5.01 5.42 5.60 5.61 5.52 5.26 4.88 4.48 4.16 3.85 3.51 3.22 2.98 2.77 2.50 2.27 2.11 2.00 1.90 1.80 1.67
0.01 0.00 0.01 0.04 0.06 0.15 0.18 0.40 0.65 0.66 0.67 0.73 0.83 0.76 0.69 0.65 0.67 0.79 0.90 1.05 1.26 1.45 1.76 2.14 2.61 3.24 3.87 4.53 5.09 5.52 5.67 5.59 5.34 4.90 4.40 3.90 3.43 3.08 2.80 2.52 2.24 2.03 1.84 1.67 1.51 1.47 1.59 1.64 1.62
0.00 0.01 0.02 0.06 0.10 0.21 0.19 0.34 0.71 0.90 0.91 0.99 0.97 0.95 0.85 0.76 0.75 0.73 0.74 0.84 1.02 1.28 1.61 1.98 2.40 2.94 3.45 3.86 4.37 4.68 4.85 4.79 4.46 3.99 3.41 2.96 2.64 2.35 2.11 1.87 1.65 1.47 1.29 1.16 1.11 1.11 1.17 1.27 1.34
0.00 0.02 0.08 0.14 0.18 0.23 0.20 0.39 0.85 1.12 1.09 1.14 1.07 1.03 0.94 0.88 0.81 0.73 0.71 0.73 0.86 1.11 1.44 1.69 1.96 2.32 2.65 3.01 3.38 3.58 3.60 3.45 3.22 2.95 2.62 2.28 1.96 1.68 1.48 1.30 1.16 1.02 0.93 0.90 0.86 0.87 0.94 0.98 1.03
0.01 0.01 0.11 0.22 0.25 0.29 0.38 0.70 1.10 1.15 1.04 1.03 1.01 0.92 0.86 0.78 0.74 0.78 0.81 0.83 0.91 1.01 1.19 1.39 1.53 1.73 1.87 2.00 2.18 2.22 2.19 2.10 2.06 1.92 1.71 1.48 1.24 1.00 0.87 0.80 0.73 0.69 0.68 0.66 0.64 0.65 0.70 0.75 0.77
0.01 0.03 0.06 0.09 0.16 0.30 0.62 1.05 1.33 1.24 1.14 1.03 0.92 0.74 0.76 0.70 0.63 0.69 0.74 0.84 0.89 0.91 0.93 0.95 0.97 1.03 1.07 1.09 1.19 1.24 1.23 1.19 1.16 1.08 0.97 0.86 0.77 0.67 0.59 0.54 0.51 0.49 0.49 0.48 0.45 0.43 0.42 0.49 0.56
0.02 0.03 0.05 0.09 0.26 0.41 0.65 1.04 1.43 1.56 1.48 1.40 1.13 0.83 0.80 0.73 0.64 0.60 0.61 0.65 0.69 0.68 0.66 0.64 0.67 0.68 0.63 0.60 0.61 0.64 0.68 0.66 0.63 0.61 0.59 0.55 0.51 0.46 0.40 0.35 0.31 0.29 0.29 0.30 0.32 0.32 0.30 0.31 0.36
0.04 0.04 0.05 0.10 0.18 0.37 0.75 1.20 1.36 1.60 1.61 1.49 1.22 0.97 0.93 0.84 0.75 0.69 0.68 0.60 0.58 0.60 0.57 0.54 0.55 0.52 0.49 0.48 0.48 0.44 0.42 0.39 0.36 0.35 0.35 0.32 0.30 0.28 0.26 0.24 0.21 0.20 0.20 0.21 0.23 0.26 0.27 0.29 0.29
0.06 0.06 0.06 0.14 0.17 0.23 0.63 1.36 1.56 1.71 1.71 1.60 1.55 1.34 1.15 1.00 0.89 0.81 0.74 0.61 0.55 0.53 0.51 0.49 0.48 0.44 0.42 0.38 0.35 0.32 0.29 0.27 0.25 0.24 0.23 0.20 0.20 0.19 0.19 0.19 0.18 0.15 0.15 0.17 0.19 0.20 0.20 0.23 0.24

GEFSSGP_prec_meanprecacc_132.txt.gz
Total_Precipitation_Accumulation
0.00 0.00 0.00 0.00 0.00 0.00 0.01 0.03 0.05 0.09 0.15 0.16 0.19 0.22 0.24 0.24 0.42 0.94 0.65 0.33 0.23 0.06 0.04 0.03 0.02 0.02 0.03 0.04 0.06 0.07 0.08 0.08 0.08 0.07 0.06 0.06 0.06 0.07 0.07 0.07 0.08 0.12 0.14 0.13 0.12 0.11 0.11 0.09 0.07
0.00 0.00 0.00 0.00 0.00 0.00 0.01 0.02 0.06 0.07 0.11 0.12 0.15 0.18 0.18 0.25 0.27 0.25 0.28 0.23 0.16 0.06 0.04 0.03 0.02 0.02 0.02 0.03 0.05 0.07 0.08 0.07 0.07 0.06 0.05 0.06 0.06 0.07 0.08 0.09 0.11 0.15 0.18 0.17 0.13 0.10 0.08 0.06 0.05
0.00 0.00 0.00 0.00 0.00 0.00 0.02 0.04 0.06 0.08 0.11 0.14 0.18 0.30 0.35 0.30 0.29 0.20 0.17 0.14 0.10 0.05 0.03 0.03 0.03 0.03 0.03 0.03 0.03 0.06 0.07 0.06 0.07 0.06 0.06 0.07 0.07 0.07 0.09 0.14 0.17 0.19 0.19 0.20 0.18 0.13 0.09 0.05 0.05
0.00 0.00 0.00 0.00 0.00 0.00 0.02 0.05 0.07 0.07 0.08 0.11 0.16 0.37 0.49 0.28 0.31 0.22 0.15 0.11 0.09 0.06 0.03 0.03 0.03 0.04 0.03 0.03 0.03 0.06 0.07 0.07 0.07 0.07 0.08 0.09 0.09 0.10 0.13 0.21 0.26 0.25 0.22 0.26 0.25 0.20 0.14 0.07 0.06
0.00 0.00 0.00 0.00 0.00 0.00 0.01 0.03 0.06 0.05 0.06 0.08 0.11 0.32 0.54 0.43 0.33 0.23 0.16 0.13 0.10 0.08 0.04 0.04 0.06 0.07 0.05 0.04 0.05 0.07 0.08 0.11 0.13 0.12 0.12 0.12 0.12 0.14 0.19 0.26 0.28 0.27 0.26 0.27 0.24 0.17 0.10 0.08 0.09
0.00 0.00 0.00 0.00 0.00 0.01 0.01 0.02 0.04 0.05 0.05 0.08 0.12 0.30 0.66 0.69 0.44 0.28 0.25 0.24 0.15 0.11 0.06 0.05 0.07 0.09 0.08 0.08 0.09 0.11 0.12 0.13 0.15 0.15 0.15 0.13 0.12 0.15 0.21 0.24 0.27 0.28 0.25 0.20 0.16 0.13 0.11 0.12 0.13
0.00 0.00 0.00 0.00 0.00 0.01 0.01 0.02 0.03 0.05 0.07 0.09 0.18 0.38 0.69 0.66 0.46 0.39 0.38 0.32 0.22 0.17 0.15 0.13 0.13 0.12 0.13 0.17 0.19 0.20 0.18 0.18 0.18 0.16 0.14 0.12 0.13 0.16 0.20 0.24 0.29 0.28 0.20 0.15 0.14 0.12 0.10 0.10 0.10
0.00 0.00 0.00 0.00 0.00 0.01 0.02 0.04 0.04 0.06 0.13 0.15 0.19 0.39 0.80 0.88 0.65 0.63 0.62 0.56 0.45 0.38 0.37 0.35 0.29 0.23 0.21 0.23 0.26 0.27 0.27 0.26 0.22 0.18 0.14 0.15 0.19 0.21 0.24 0.21 0.23 0.22 0.17 0.13 0.11 0.09 0.07 0.06 0.06
0.00 0.00 0.00 0.00 0.00 0.01 0.02 0.04 0.06 0.07 0.11 0.19 0.25 0.39 0.73 0.90 0.82 0.77 0.78 0.73 0.77 0.79 0.77 0.65 0.55 0.41 0.38 0.36 0.31 0.33 0.33 0.32 0.27 0.24 0.21 0.23 0.27 0.30 0.32 0.27 0.30 0.24 0.19 0.15 0.12 0.10 0.09 0.08 0.06
0.00 0.00 0.00 0.00 0.00 0.01 0.01 0.03 0.05 0.07 0.11 0.26 0.35 0.40 0.59 0.76 0.98 1.03 0.98 0.90 0.98 1.17 1.02 0.80 0.76 0.69 0.63 0.50 0.47 0.49 0.42 0.37 0.34 0.39 0.34 0.37 0.54 0.62 0.57 0.56 0.45 0.40 0.33 0.25 0.22 0.20 0.16 0.10 0.09
0.00 0.00 0.00 0.00 0.00 0.00 0.00 0.02 0.03 0.09 0.24 0.46 0.60 0.63 0.75 0.93 1.11 1.26 1.27 1.19 1.28 1.29 1.06 0.93 0.98 0.96 0.95 0.93 0.93 0.82 0.75 0.69 0.58 0.65 0.62 0.65 0.69 0.67 0.72 0.72 0.62 0.57 0.53 0.46 0.44 0.32 0.24 0.19 0.20
0.00 0.00 0.00 0.00 0.00 0.00 0.00 0.01 0.03 0.08 0.23 0.47 0.65 0.88 1.08 1.22 1.31 1.49 1.60 1.55 1.66 1.60 1.30 1.08 1.03 1.10 1.24 1.25 1.21 1.19 1.14 1.08 0.97 0.90 0.83 0.90 0.97 0.98 0.93 1.03 1.00 0.96 0.89 0.81 0.72 0.60 0.48 0.41 0.39
0.00 0.00 0.00 0.00 0.00 0.00 0.00 0.02 0.03 0.07 0.22 0.34 0.50 0.69 0.80 0.93 1.27 1.75 1.77 1.80 1.96 2.01 1.78 1.48 1.38 1.32 1.33 1.44 1.42 1.20 1.22 1.26 1.34 1.25 1.15 1.21 1.14 1.16 1.30 1.30 1.37 1.30 1.33 1.23 1.07 0.89 0.80 0.70 0.62
0.00 0.00 0.00 0.00 0.00 0.00 0.01 0.03 0.05 0.11 0.23 0.27 0.34 0.46 0.69 0.77 1.02 1.44 1.74 1.89 2.08 2.17 2.07 1.83 1.58 1.54 1.50 1.62 1.70 1.55 1.45 1.45 1.48 1.50 1.40 1.44 1.45 1.45 1.50 1.53 1.60 1.50 1.50 1.52 1.39 1.17 1.05 0.96 0.86
0.00 0.00 0.00 0.00 0.00 0.00 0.01 0.03 0.06 0.09 0.22 0.34 0.34 0.40 0.66 0.93 1.06 1.48 1.83 1.98 2.26 2.25 2.09 2.07 1.88 1.96 1.98 2.08 2.06 2.08 2.03 1.99 1.90 1.81 1.82 1.77 1.74 1.76 1.70 1.85 1.94 1.79 1.73 1.74 1.64 1.54 1.30 1.27 1.25
0.00 0.00 0.00 0.00 0.00 0.00 0.01 0.10 0.15 0.14 0.18 0.30 0.36 0.45 0.68 0.90 1.15 1.45 1.80 1.89 2.11 2.06 2.10 2.19 2.03 2.08 2.21 2.18 2.09 2.15 2.34 2.36 2.28 2.19 2.21 2.07 2.04 2.08 2.15 2.11 2.04 1.99 1.95 1.93 1.98 1.82 1.59 1.53 1.63
0.00 0.00 0.00 0.00 0.00 0.01 0.02 0.13 0.17 0.17 0.22 0.30 0.36 0.45 0.59 0.72 0.97 1.27 1.74 1.96 2.02 2.01 1.91 2.02 2.19 2.14 2.26 2.27 2.21 2.30 2.54 2.67 2.70 2.66 2.56 2.43 2.41 2.42 2.52 2.60 2.47 2.28 2.17 2.16 2.05 2.00 1.89 1.87 1.86
0.00 0.00 0.00 0.00 0.01 0.01 0.03 0.10 0.21 0.20 0.30 0.34 0.41 0.38 0.52 0.72 1.00 1.31 1.73 1.96 1.93 1.96 1.96 1.99 2.21 2.19 2.35 2.48 2.37 2.44 2.51 2.60 2.73 2.85 2.94 3.07 3.10 3.05 2.99 2.88 2.74 2.56 2.45 2.40 2.30 2.24 2.17 2.04 1.89
0.00 0.00 0.00 0.00 0.01 0.03 0.07 0.12 0.22 0.27 0.34 0.43 0.51 0.50 0.66 0.74 0.94 1.33 1.69 1.93 2.17 2.06 2.09 2.01 2.06 2.25 2.35 2.49 2.61 2.85 2.86 2.83 3.06 3.33 3.48 3.66 3.74 3.56 3.49 3.37 3.18 2.98 2.77 2.62 2.42 2.28 2.20 2.03 1.84
0.00 0.00 0.01 0.03 0.04 0.05 0.09 0.18 0.31 0.38 0.38 0.48 0.62 0.69 0.95 1.08 1.12 1.31 1.63 1.94 2.14 2.15 2.12 2.16 2.36 2.44 2.55 2.88 3.32 3.72 4.03 4.19 4.25 4.40 4.42 4.33 4.19 4.06 3.93 3.82 3.58 3.32 3.07 2.82 2.60 2.34 2.17 1.98 1.79
0.00 0.01 0.02 0.04 0.08 0.12 0.17 0.34 0.43 0.42 0.42 0.53 0.71 0.81 1.02 1.17 1.30 1.24 1.29 1.48 1.77 2.01 2.19 2.25 2.55 2.88 3.23 3.72 4.26 4.64 4.99 5.21 5.12 4.93 4.78 4.55 4.34 4.13 3.81 3.62 3.55 3.32 2.96 2.71 2.51 2.29 2.10 1.90 1.74
0.01 0.01 0.02 0.04 0.08 0.19 0.21 0.41 0.54 0.52 0.59 0.63 0.69 0.73 0.86 0.85 0.94 1.09 1.13 1.24 1.49 1.74 2.03 2.32 2.61 3.10 3.85 4.56 5.10 5.51 5.69 5.68 5.57 5.32 4.93 4.53 4.19 3.88 3.55 3.27 3.03 2.81 2.53 2.29 2.13 2.03 1.93 1.83 1.71
0.01 0.00 0.01 0.04 0.06 0.16 0.19 0.41 0.66 0.67 0.69 0.77 0.88 0.82 0.77 0.74 0.76 0.86 0.95 1.08 1.29 1.50 1.83 2.21 2.65 3.27 3.91 4.57 5.13 5.56 5.73 5.64 5.39 4.95 4.44 3.94 3.47 3.11 2.83 2.55 2.28 2.06 1.86 1.68 1.52 1.49 1.60 1.66 1.64
0.00 0.01 0.03 0.06 0.10 0.21 0.19 0.34 0.72 0.92 0.94 1.03 1.02 1.05 1.00 0.88 0.84 0.81 0.79 0.89 1.05 1.31 1.64 2.00 2.42 2.97 3.47 3.88 4.39 4.71 4.88 4.83 4.50 4.02 3.44 2.99 2.67 2.38 2.13 1.89 1.67 1.48 1.31 1.17 1.12 1.11 1.18 1.28 1.35
0.00 0.02 0.08 0.14 0.18 0.23 0.20 0.39 0.86 1.13 1.11 1.17 1.11 1.12 1.13 1.01 0.90 0.80 0.76 0.78 0.90 1.13 1.46 1.71 1.97 2.34 2.67 3.03 3.40 3.60 3.62 3.47 3.25 2.97 2.65 2.30 1.98 1.70 1.49 1.31 1.17 1.04 0.94 0.91 0.87 0.88 0.94 0.98 1.03
0.01 0.02 0.11 0.23 0.25 0.29 0.38 0.71 1.11 1.16 1.05 1.05 1.05 0.97 0.94 0.88 0.84 0.86 0.87 0.87 0.96 1.04 1.21 1.40 1.54 1.74 1.88 2.01 2.19 2.23 2.21 2.12 2.09 1.95 1.74 1.51 1.27 1.02 0.89 0.81 0.73 0.70 0.69 0.67 0.65 0.66 0.71 0.75 0.77
0.01 0.03 0.06 0.10 0.16 0.31 0.62 1.05 1.33 1.25 1.16 1.05 0.94 0.78 0.82 0.78 0.71 0.77 0.81 0.89 0.95 0.96 0.96 0.96 0.97 1.04 1.07 1.09 1.19 1.24 1.24 1.21 1.18 1.09 0.98 0.88 0.79 0.70 0.62 0.56 0.53 0.51 0.51 0.50 0.47 0.44 0.43 0.50 0.57
0.02 0.04 0.05 0.10 0.26 0.41 0.66 1.05 1.44 1.57 1.50 1.43 1.16 0.86 0.84 0.78 0.70 0.66 0.65 0.68 0.72 0.71 0.68 0.65 0.67 0.68 0.64 0.60 0.61 0.66 0.70 0.68 0.65 0.63 0.61 0.56 0.52 0.47 0.42 0.36 0.32 0.31 0.31 0.32 0.34 0.34 0.31 0.32 0.36
0.04 0.05 0.06 0.11 0.19 0.37 0.75 1.21 1.37 1.60 1.62 1.50 1.24 1.00 0.97 0.89 0.79 0.73 0.70 0.61 0.59 0.60 0.57 0.54 0.55 0.53 0.49 0.48 0.48 0.45 0.43 0.41 0.38 0.36 0.35 0.32 0.30 0.28 0.26 0.24 0.21 0.20 0.20 0.22 0.26 0.28 0.29 0.30 0.31
0.07 0.07 0.07 0.15 0.18 0.24 0.63 1.36 1.56 1.72 1.72 1.62 1.57 1.38 1.18 1.06 0.94 0.86 0.78 0.63 0.56 0.54 0.52 0.50 0.48 0.44 0.42 0.39 0.36 0.33 0.29 0.28 0.27 0.25 0.24 0.21 0.20 0.19 0.19 0.19 0.18 0.16 0.16 0.19 0.21 0.21 0.22 0.25 0.27

GEFSSGP_prec_meanprecacc_138.txt.gz
Total_Precipitation_Accumulation
0.00 0.00 0.00 0.00 0.00 0.00 0.01 0.03 0.05 0.09 0.15 0.16 0.19 0.23 0.25 0.25 0.45 0.97 0.66 0.34 0.24 0.08 0.06 0.05 0.04 0.03 0.04 0.05 0.07 0.07 0.08 0.09 0.08 0.07 0.06 0.06 0.07 0.07 0.07 0.07 0.08 0.12 0.14 0.13 0.12 0.12 0.11 0.09 0.07
0.00 0.00 0.00 0.00 0.00 0.00 0.01 0.02 0.06 0.08 0.11 0.13 0.16 0.18 0.19 0.26 0.29 0.26 0.29 0.24 0.17 0.08 0.05 0.04 0.04 0.03 0.04 0.04 0.05 0.07 0.08 0.08 0.07 0.06 0.06 0.06 0.06 0.07 0.08 0.09 0.11 0.15 0.18 0.17 0.13 0.10 0.08 0.06 0.05
0.00 0.00 0.00 0.00 0.00 0.00 0.02 0.04 0.06 0.08 0.12 0.15 0.19 0.31 0.35 0.31 0.30 0.21 0.18 0.15 0.11 0.06 0.04 0.05 0.04 0.04 0.04 0.04 0.04 0.06 0.07 0.07 0.07 0.06 0.06 0.07 0.07 0.07 0.10 0.14 0.17 0.19 0.19 0.21 0.18 0.13 0.09 0.06 0.05
0.00 0.00 0.00 0.00 0.00 0.00 0.02 0.05 0.07 0.08 0.09 0.11 0.16 0.37 0.50 0.29 0.32 0.22 0.15 0.12 0.09 0.07 0.04 0.04 0.05 0.05 0.05 0.04 0.05 0.07 0.08 0.08 0.08 0.08 0.09 0.09 0.09 0.10 0.14 0.21 0.27 0.25 0.23 0.26 0.25 0.21 0.14 0.08 0.06
0.00 0.00 0.00 0.00 0.00 0.00 0.01 0.03 0.07 0.05 0.06 0.09 0.12 0.33 0.55 0.45 0.34 0.23 0.17 0.13 0.10 0.09 0.05 0.05 0.08 0.09 0.08 0.06 0.07 0.09 0.10 0.12 0.14 0.14 0.13 0.14 0.14 0.16 0.20 0.28 0.29 0.29 0.28 0.28 0.24 0.18 0.11 0.09 0.10
0.00 0.00 0.00 0.00 0.00 0.01 0.01 0.02 0.04 0.05 0.05 0.09 0.13 0.30 0.68 0.71 0.46 0.29 0.26 0.24 0.16 0.12 0.07 0.07 0.10 0.11 0.11 0.11 0.11 0.13 0.15 0.16 0.17 0.17 0.17 0.14 0.14 0.17 0.23 0.27 0.29 0.29 0.26 0.22 0.17 0.14 0.12 0.12 0.13
0.00 0.00 0.00 0.00 0.00 0.01 0.02 0.03 0.03 0.05 0.07 0.10 0.18 0.39 0.71 0.69 0.49 0.41 0.41 0.34 0.24 0.19 0.18 0.16 0.17 0.15 0.17 0.21 0.23 0.23 0.22 0.22 0.20 0.18 0.16 0.14 0.15 0.18 0.22 0.26 0.31 0.31 0.22 0.17 0.15 0.13 0.12 0.11 0.11
0.00 0.00 0.00 0.00 0.00 0.01 0.02 0.04 0.05 0.07 0.13 0.15 0.20 0.40 0.82 0.92 0.70 0.66 0.65 0.59 0.49 0.43 0.43 0.41 0.35 0.29 0.25 0.26 0.30 0.31 0.32 0.30 0.25 0.20 0.16 0.18 0.21 0.23 0.26 0.24 0.26 0.25 0.20 0.16 0.14 0.12 0.10 0.09 0.08
0.00 0.00 0.00 0.00 0.00 0.01 0.02 0.04 0.06 0.07 0.11 0.20 0.26 0.41 0.75 0.93 0.87 0.84 0.84 0.79 0.85 0.88 0.88 0.76 0.65 0.51 0.47 0.44 0.37 0.41 0.41 0.39 0.33 0.28 0.25 0.27 0.30 0.33 0.36 0.31 0.34 0.28 0.23 0.19 0.17 0.15 0.13 0.12 0.10
0.00 0.00 0.00 0.00 0.00 0.01 0.01 0.03 0.05 0.08 0.12 0.26 0.36 0.43 0.63 0.81 1.07 1.14 1.04 0.98 1.07 1.27 1.13 0.92 0.90 0.83 0.76 0.61 0.56 0.56 0.48 0.44 0.39 0.44 0.39 0.43 0.61 0.68 0.62 0.60 0.49 0.44 0.39 0.32 0.29 0.26 0.20 0.14 0.14
0.00 0.00 0.00 0.00 0.00 0.00 0.00 0.02 0.03 0.09 0.24 0.46 0.61 0.66 0.80 1.00 1.19 1.33 1.31 1.24 1.34 1.35 1.13 1.02 1.10 1.09 1.08 1.04 1.02 0.89 0.81 0.74 0.63 0.69 0.67 0.72 0.75 0.72 0.77 0.78 0.68 0.63 0.59 0.54 0.51 0.38 0.28 0.25 0.26
0.00 0.00 0.00 0.00 0.00 0.00 0.00 0.01 0.03 0.08 0.23 0.48 0.67 0.91 1.13 1.31 1.36 1.51 1.62 1.58 1.70 1.64 1.34 1.12 1.09 1.17 1.32 1.33 1.31 1.29 1.24 1.16 1.04 0.94 0.88 0.96 1.03 1.04 0.99 1.10 1.08 1.06 0.98 0.90 0.80 0.66 0.54 0.46 0.45
0.00 0.00 0.00 0.00 0.00 0.00 0.01 0.02 0.03 0.08 0.23 0.35 0.52 0.70 0.83 0.98 1.33 1.79 1.81 1.84 2.00 2.05 1.82 1.52 1.44 1.40 1.41 1.53 1.52 1.30 1.33 1.35 1.41 1.32 1.20 1.26 1.22 1.25 1.38 1.38 1.48 1.40 1.43 1.33 1.17 0.97 0.88 0.77 0.68
0.00 0.00 0.00 0.00 0.00 0.01 0.01 0.03 0.05 0.12 0.24 0.29 0.35 0.47 0.72 0.80 1.05 1.47 1.77 1.93 2.12 2.21 2.11 1.87 1.65 1.62 1.58 1.72 1.80 1.62 1.54 1.56 1.56 1.57 1.45 1.50 1.50 1.53 1.59 1.63 1.69 1.59 1.59 1.62 1.48 1.26 1.13 1.04 0.93
0.00 0.00 0.00 0.00 0.00 0.01 0.01 0.04 0.07 0.10 0.22 0.35 0.35 0.42 0.69 0.96 1.09 1.52 1.86 2.00 2.29 2.28 2.13 2.13 1.98 2.05 2.06 2.15 2.12 2.13 2.09 2.09 2.00 1.87 1.86 1.80 1.79 1.82 1.77 1.92 2.01 1.86 1.80 1.81 1.70 1.60 1.36 1.32 1.30
0.00 0.00 0.00 0.00 0.01 0.00 0.01 0.10 0.15 0.15 0.19 0.30 0.37 0.47 0.70 0.93 1.17 1.48 1.83 1.93 2.16 2.12 2.17 2.27 2.15 2.19 2.31 2.26 2.15 2.20 2.41 2.42 2.33 2.23 2.25 2.12 2.10 2.14 2.21 2.16 2.11 2.05 2.01 2.00 2.04 1.87 1.64 1.59 1.68
0.00 0.00 0.00 0.00 0.01 0.01 0.02 0.13 0.17 0.18 0.23 0.31 0.37 0.46 0.60 0.75 1.00 1.31 1.79 2.03 2.11 2.11 2.01 2.11 2.27 2.23 2.35 2.35 2.27 2.35 2.60 2.72 2.75 2.72 2.63 2.51 2.50 2.50 2.58 2.67 2.52 2.33 2.21 2.20 2.08 2.04 1.93 1.92 1.92
0.00 0.00 0.00 0.00 0.01 0.02 0.04 0.11 0.22 0.22 0.32 0.35 0.42 0.40 0.54 0.74 1.05 1.36 1.78 2.03 2.02 2.07 2.07 2.07 2.28 2.26 2.42 2.55 2.43 2.49 2.56 2.66 2.79 2.93 3.03 3.16 3.18 3.14 3.08 2.96 2.79 2.61 2.49 2.44 2.34 2.28 2.21 2.08 1.93
0.00 0.00 0.00 0.01 0.01 0.03 0.08 0.13 0.23 0.28 0.35 0.44 0.53 0.52 0.68 0.77 0.99 1.38 1.74 1.99 2.24 2.16 2.19 2.10 2.13 2.31 2.40 2.55 2.67 2.89 2.91 2.89 3.12 3.40 3.55 3.74 3.81 3.63 3.55 3.42 3.22 3.02 2.81 2.65 2.46 2.32 2.23 2.07 1.88
0.00 0.00 0.01 0.03 0.05 0.06 0.10 0.21 0.33 0.40 0.39 0.50 0.64 0.70 0.97 1.13 1.19 1.36 1.68 2.00 2.20 2.22 2.19 2.22 2.41 2.48 2.60 2.93 3.36 3.77 4.09 4.25 4.32 4.48 4.50 4.41 4.26 4.12 3.98 3.85 3.61 3.35 3.10 2.85 2.63 2.37 2.21 2.02 1.83
0.00 0.01 0.02 0.05 0.10 0.13 0.19 0.40 0.47 0.44 0.43 0.54 0.72 0.83 1.04 1.22 1.37 1.30 1.35 1.53 1.81 2.05 2.22 2.30 2.60 2.94 3.28 3.75 4.30 4.71 5.05 5.27 5.19 5.00 4.85 4.62 4.40 4.19 3.86 3.65 3.58 3.35 3.00 2.75 2.55 2.32 2.13 1.94 1.77
0.01 0.01 0.02 0.04 0.09 0.20 0.23 0.46 0.57 0.53 0.59 0.64 0.70 0.75 0.88 0.91 1.01 1.15 1.19 1.29 1.54 1.78 2.07 2.37 2.66 3.18 3.92 4.60 5.15 5.61 5.80 5.77 5.63 5.37 4.99 4.58 4.25 3.93 3.60 3.31 3.06 2.84 2.56 2.32 2.17 2.06 1.96 1.87 1.74
0.01 0.00 0.01 0.04 0.07 0.16 0.20 0.43 0.67 0.68 0.70 0.77 0.88 0.83 0.80 0.79 0.80 0.91 1.01 1.13 1.33 1.54 1.86 2.25 2.70 3.31 3.94 4.60 5.17 5.62 5.81 5.71 5.44 5.00 4.49 3.98 3.51 3.15 2.88 2.59 2.32 2.09 1.90 1.72 1.56 1.52 1.63 1.70 1.69
0.00 0.01 0.03 0.06 0.10 0.22 0.19 0.35 0.73 0.92 0.94 1.03 1.03 1.06 1.02 0.91 0.88 0.87 0.88 0.94 1.08 1.34 1.66 2.05 2.47 2.99 3.50 3.92 4.44 4.75 4.92 4.86 4.52 4.04 3.46 3.02 2.69 2.40 2.16 1.92 1.71 1.53 1.36 1.23 1.17 1.15 1.21 1.31 1.38
0.00 0.02 0.09 0.14 0.18 0.23 0.20 0.39 0.86 1.13 1.11 1.17 1.12 1.15 1.16 1.04 0.94 0.87 0.85 0.83 0.93 1.16 1.49 1.73 1.99 2.37 2.69 3.05 3.44 3.64 3.65 3.49 3.26 2.99 2.66 2.31 1.99 1.71 1.51 1.33 1.18 1.06 0.97 0.93 0.89 0.90 0.97 1.00 1.05
0.01 0.02 0.11 0.23 0.26 0.30 0.39 0.71 1.11 1.16 1.05 1.05 1.06 1.01 0.97 0.90 0.87 0.90 0.93 0.93 1.01 1.07 1.24 1.43 1.57 1.75 1.89 2.02 2.21 2.25 2.22 2.13 2.09 1.96 1.75 1.52 1.28 1.03 0.89 0.81 0.74 0.70 0.69 0.67 0.65 0.67 0.72 0.77 0.78
0.01 0.03 0.06 0.10 0.16 0.31 0.63 1.05 1.34 1.25 1.17 1.07 0.96 0.80 0.84 0.80 0.73 0.80 0.85 0.94 1.00 1.01 1.01 1.03 1.03 1.06 1.08 1.10 1.20 1.25 1.25 1.22 1.19 1.10 0.99 0.89 0.80 0.70 0.62 0.57 0.54 0.51 0.52 0.51 0.48 0.45 0.45 0.51 0.58
0.02 0.04 0.05 0.10 0.27 0.42 0.67 1.06 1.45 1.59 1.53 1.45 1.18 0.88 0.86 0.80 0.72 0.69 0.68 0.72 0.77 0.78 0.76 0.70 0.71 0.71 0.65 0.62 0.63 0.67 0.71 0.69 0.66 0.64 0.61 0.57 0.53 0.48 0.43 0.37 0.33 0.31 0.31 0.33 0.35 0.35 0.32 0.33 0.37
0.04 0.05 0.06 0.11 0.19 0.38 0.76 1.23 1.38 1.62 1.63 1.50 1.24 1.01 0.99 0.90 0.81 0.76 0.74 0.66 0.63 0.64 0.65 0.60 0.58 0.55 0.52 0.50 0.50 0.46 0.44 0.42 0.38 0.37 0.36 0.33 0.31 0.28 0.27 0.24 0.22 0.20 0.21 0.23 0.26 0.29 0.30 0.31 0.31
0.07 0.07 0.07 0.17 0.19 0.25 0.65 1.38 1.57 1.72 1.72 1.62 1.57 1.38 1.19 1.07 0.97 0.89 0.84 0.71 0.63 0.58 0.58 0.56 0.51 0.46 0.44 0.41 0.38 0.34 0.30 0.29 0.27 0.26 0.24 0.21 0.20 0.19 0.19 0.20 0.19 0.16 0.17 0.20 0.23 0.24 0.24 0.27 0.29

GEFSSGP_prec_meanprecacc_144.txt.gz
Total_Precipitation_Accumulation
0.00 0.00 0.00 0.00 0.00 0.00 0.01 0.03 0.05 0.09 0.15 0.16 0.19 0.23 0.25 0.28 0.50 1.06 0.69 0.34 0.24 0.08 0.06 0.05 0.04 0.04 0.05 0.06 0.08 0.09 0.10 0.09 0.09 0.07 0.07 0.07 0.07 0.08 0.08 0.08 0.08 0.12 0.14 0.13 0.13 0.12 0.11 0.09 0.07
0.00 0.00 0.00 0.00 0.00 0.00 0.01 0.02 0.06 0.08 0.11 0.13 0.16 0.18 0.19 0.27 0.31 0.30 0.30 0.25 0.18 0.08 0.06 0.04 0.04 0.04 0.04 0.05 0.07 0.09 0.09 0.09 0.08 0.07 0.06 0.07 0.07 0.07 0.08 0.09 0.11 0.16 0.19 0.17 0.13 0.10 0.08 0.06 0.06
0.00 0.00 0.00 0.00 0.00 0.00 0.02 0.04 0.07 0.08 0.12 0.15 0.19 0.31 0.36 0.33 0.33 0.23 0.19 0.15 0.11 0.06 0.05 0.05 0.04 0.05 0.04 0.05 0.05 0.08 0.09 0.08 0.08 0.07 0.07 0.07 0.07 0.08 0.10 0.14 0.18 0.19 0.20 0.21 0.18 0.13 0.09 0.06 0.05
0.00 0.00 0.00 0.00 0.00 0.00 0.02 0.05 0.07 0.08 0.09 0.12 0.17 0.38 0.50 0.30 0.33 0.23 0.16 0.12 0.09 0.08 0.05 0.05 0.05 0.06 0.05 0.06 0.06 0.08 0.09 0.09 0.10 0.09 0.10 0.10 0.10 0.11 0.14 0.22 0.27 0.26 0.23 0.27 0.26 0.21 0.15 0.08 0.07
0.00 0.00 0.00 0.00 0.00 0.00 0.01 0.03 0.07 0.06 0.07 0.10 0.13 0.35 0.56 0.46 0.35 0.23 0.17 0.13 0.10 0.10 0.07 0.07 0.09 0.10 0.08 0.07 0.08 0.10 0.12 0.14 0.16 0.16 0.15 0.15 0.15 0.16 0.21 0.29 0.30 0.29 0.29 0.29 0.25 0.18 0.12 0.09 0.10
0.00 0.00 0.00 0.00 0.00 0.01 0.01 0.02 0.04 0.06 0.06 0.10 0.14 0.32 0.69 0.73 0.47 0.29 0.26 0.25 0.17 0.13 0.09 0.08 0.11 0.13 0.13 0.13 0.14 0.16 0.18 0.19 0.20 0.20 0.19 0.16 0.16 0.18 0.24 0.28 0.30 0.31 0.28 0.23 0.18 0.14 0.12 0.13 0.14
0.00 0.00 0.00 0.00 0.00 0.01 0.02 0.03 0.04 0.05 0.09 0.15 0.24 0.43 0.73 0.72 0.52 0.43 0.42 0.35 0.26 0.21 0.20 0.19 0.20 0.18 0.20 0.25 0.27 0.27 0.26 0.26 0.24 0.21 0.19 0.16 0.18 0.20 0.24 0.29 0.33 0.33 0.23 0.18 0.16 0.14 0.12 0.11 0.11
0.00 0.00 0.00 0.00 0.00 0.01 0.02 0.04 0.05 0.08 0.17 0.23 0.25 0.44 0.84 0.94 0.72 0.69 0.68 0.61 0.52 0.47 0.47 0.46 0.41 0.35 0.31 0.31 0.34 0.36 0.36 0.33 0.29 0.24 0.20 0.21 0.24 0.26 0.29 0.27 0.29 0.28 0.23 0.18 0.16 0.13 0.11 0.10 0.09
0.00 0.00 0.00 0.00 0.00 0.01 0.02 0.04 0.06 0.08 0.13 0.23 0.30 0.43 0.75 0.93 0.88 0.87 0.89 0.83 0.90 0.92 0.94 0.82 0.72 0.60 0.60 0.55 0.43 0.46 0.46 0.44 0.38 0.34 0.29 0.31 0.38 0.43 0.47 0.39 0.40 0.32 0.26 0.22 0.21 0.18 0.16 0.13 0.11
0.00 0.00 0.00 0.00 0.00 0.01 0.01 0.03 0.05 0.09 0.13 0.28 0.38 0.46 0.64 0.82 1.09 1.16 1.07 1.01 1.12 1.31 1.19 0.99 0.98 0.94 0.88 0.75 0.67 0.67 0.58 0.54 0.49 0.57 0.47 0.53 0.76 0.85 0.77 0.72 0.57 0.52 0.44 0.37 0.34 0.31 0.25 0.18 0.18
0.00 0.00 0.00 0.00 0.00 0.00 0.01 0.02 0.04 0.09 0.27 0.50 0.64 0.70 0.81 1.02 1.20 1.35 1.32 1.26 1.37 1.39 1.19 1.08 1.17 1.18 1.19 1.15 1.15 1.05 0.99 0.91 0.80 0.87 0.82 0.88 0.90 0.87 0.91 0.94 0.80 0.73 0.69 0.67 0.65 0.50 0.39 0.37 0.38
0.00 0.00 0.00 0.00 0.01 0.01 0.01 0.01 0.03 0.09 0.28 0.53 0.72 0.96 1.15 1.32 1.38 1.53 1.65 1.62 1.77 1.71 1.46 1.27 1.15 1.25 1.44 1.45 1.43 1.43 1.41 1.37 1.29 1.20 1.07 1.16 1.22 1.22 1.14 1.25 1.24 1.25 1.19 1.09 1.00 0.87 0.73 0.64 0.62
0.00 0.00 0.00 0.00 0.01 0.01 0.01 0.02 0.03 0.08 0.24 0.36 0.54 0.75 0.85 1.00 1.36 1.82 1.85 1.90 2.08 2.14 1.94 1.67 1.60 1.54 1.52 1.68 1.68 1.44 1.50 1.56 1.69 1.60 1.40 1.42 1.40 1.41 1.53 1.52 1.61 1.56 1.63 1.52 1.34 1.13 1.04 0.92 0.78
0.00 0.00 0.00 0.00 0.01 0.01 0.01 0.03 0.05 0.12 0.24 0.29 0.36 0.49 0.73 0.82 1.07 1.50 1.82 2.00 2.19 2.29 2.20 2.00 1.83 1.76 1.69 1.85 1.96 1.78 1.67 1.72 1.74 1.76 1.60 1.61 1.64 1.68 1.72 1.75 1.80 1.70 1.70 1.74 1.60 1.38 1.27 1.19 1.05
0.00 0.00 0.00 0.00 0.00 0.01 0.01 0.05 0.07 0.10 0.22 0.35 0.36 0.44 0.71 0.98 1.12 1.55 1.90 2.06 2.35 2.35 2.21 2.21 2.07 2.16 2.19 2.31 2.31 2.31 2.24 2.22 2.15 2.06 2.04 1.93 1.90 1.94 1.88 2.03 2.11 1.95 1.88 1.89 1.79 1.70 1.49 1.44 1.41
0.00 0.00 0.00 0.00 0.01 0.01 0.01 0.13 0.17 0.15 0.19 0.31 0.38 0.49 0.72 0.94 1.20 1.51 1.86 1.97 2.21 2.17 2.23 2.34 2.24 2.30 2.44 2.38 2.27 2.34 2.54 2.53 2.43 2.34 2.38 2.22 2.21 2.25 2.32 2.28 2.19 2.12 2.08 2.08 2.14 1.98 1.78 1.72 1.81
0.00 0.00 0.00 0.00 0.01 0.01 0.02 0.15 0.18 0.19 0.24 0.32 0.40 0.49 0.61 0.76 1.02 1.33 1.81 2.07 2.16 2.17 2.07 2.16 2.33 2.29 2.42 2.44 2.37 2.45 2.71 2.84 2.85 2.81 2.72 2.60 2.57 2.59 2.68 2.76 2.60 2.39 2.28 2.27 2.16 2.15 2.06 2.06 2.06
0.00 0.00 0.00 0.00 0.01 0.02 0.04 0.13 0.23 0.23 0.34 0.38 0.47 0.44 0.56 0.75 1.06 1.38 1.81 2.06 2.06 2.11 2.11 2.13 2.35 2.32 2.48 2.62 2.53 2.60 2.66 2.75 2.86 2.99 3.09 3.23 3.26 3.21 3.18 3.06 2.87 2.68 2.56 2.53 2.43 2.37 2.32 2.19 2.03
0.00 0.00 0.00 0.01 0.02 0.04 0.09 0.15 0.25 0.30 0.37 0.47 0.56 0.55 0.71 0.79 1.01 1.40 1.76 2.01 2.28 2.20 2.22 2.14 2.17 2.35 2.45 2.61 2.75 2.99 3.00 2.96 3.18 3.45 3.60 3.80 3.87 3.69 3.63 3.52 3.30 3.10 2.88 2.73 2.55 2.41 2.33 2.16 1.98
0.00 0.00 0.01 0.03 0.05 0.06 0.12 0.24 0.36 0.43 0.41 0.53 0.66 0.72 1.01 1.17 1.21 1.38 1.70 2.02 2.23 2.25 2.22 2.27 2.44 2.52 2.66 3.00 3.43 3.85 4.16 4.30 4.36 4.52 4.55 4.46 4.32 4.18 4.04 3.91 3.66 3.40 3.16 2.92 2.70 2.45 2.29 2.11 1.93
0.00 0.01 0.02 0.05 0.10 0.14 0.20 0.44 0.53 0.50 0.48 0.61 0.76 0.84 1.06 1.26 1.40 1.32 1.37 1.55 1.84 2.08 2.26 2.33 2.63 2.97 3.34 3.82 4.38 4.78 5.12 5.33 5.23 5.05 4.91 4.68 4.45 4.25 3.94 3.71 3.62 3.39 3.05 2.80 2.60 2.37 2.19 2.01 1.85
0.01 0.01 0.02 0.04 0.09 0.21 0.24 0.49 0.62 0.59 0.65 0.70 0.75 0.77 0.91 0.93 1.04 1.18 1.23 1.33 1.58 1.81 2.10 2.40 2.69 3.24 3.99 4.66 5.23 5.70 5.88 5.84 5.69 5.43 5.06 4.66 4.31 3.98 3.66 3.36 3.10 2.87 2.60 2.36 2.21 2.10 2.01 1.93 1.81
0.01 0.00 0.01 0.04 0.07 0.16 0.21 0.44 0.70 0.75 0.78 0.83 0.91 0.86 0.82 0.81 0.82 0.94 1.05 1.18 1.38 1.58 1.90 2.29 2.74 3.38 4.06 4.69 5.27 5.71 5.90 5.79 5.50 5.05 4.55 4.04 3.56 3.19 2.91 2.63 2.36 2.13 1.93 1.75 1.60 1.56 1.68 1.76 1.75
0.00 0.01 0.03 0.06 0.11 0.22 0.20 0.36 0.76 0.99 1.03 1.11 1.06 1.09 1.04 0.94 0.91 0.91 0.92 0.98 1.13 1.38 1.70 2.09 2.52 3.04 3.55 3.98 4.52 4.84 5.00 4.92 4.58 4.09 3.51 3.06 2.73 2.44 2.19 1.95 1.74 1.56 1.40 1.28 1.22 1.21 1.28 1.38 1.45
0.00 0.02 0.10 0.16 0.19 0.25 0.21 0.41 0.91 1.19 1.18 1.25 1.20 1.21 1.22 1.07 0.96 0.91 0.89 0.88 0.98 1.20 1.52 1.77 2.04 2.45 2.74 3.09 3.47 3.68 3.69 3.54 3.31 3.03 2.71 2.35 2.02 1.73 1.52 1.35 1.21 1.08 0.99 0.97 0.94 0.95 1.02 1.05 1.09
0.01 0.02 0.13 0.28 0.29 0.33 0.42 0.76 1.18 1.20 1.08 1.10 1.12 1.09 1.06 0.93 0.89 0.94 0.97 0.96 1.05 1.11 1.28 1.47 1.60 1.79 1.92 2.06 2.25 2.28 2.24 2.16 2.13 1.99 1.77 1.53 1.29 1.03 0.90 0.82 0.75 0.71 0.71 0.69 0.68 0.70 0.76 0.81 0.81
0.01 0.03 0.07 0.12 0.18 0.35 0.68 1.14 1.42 1.30 1.20 1.09 0.98 0.84 0.90 0.83 0.76 0.83 0.88 0.97 1.03 1.04 1.05 1.06 1.06 1.09 1.11 1.13 1.23 1.28 1.27 1.25 1.21 1.11 1.01 0.90 0.81 0.71 0.63 0.58 0.55 0.53 0.54 0.53 0.50 0.47 0.47 0.54 0.62
0.02 0.04 0.06 0.11 0.30 0.46 0.73 1.16 1.57 1.66 1.57 1.47 1.20 0.92 0.90 0.82 0.74 0.71 0.69 0.74 0.80 0.81 0.79 0.75 0.75 0.74 0.69 0.64 0.65 0.70 0.74 0.72 0.68 0.65 0.63 0.58 0.54 0.49 0.44 0.39 0.35 0.32 0.33 0.36 0.38 0.37 0.34 0.35 0.40
0.04 0.05 0.07 0.12 0.21 0.42 0.85 1.37 1.50 1.72 1.69 1.54 1.28 1.06 1.01 0.92 0.83 0.77 0.76 0.68 0.66 0.68 0.69 0.65 0.63 0.59 0.55 0.53 0.53 0.49 0.46 0.45 0.41 0.39 0.39 0.35 0.32 0.29 0.28 0.26 0.23 0.22 0.22 0.24 0.28 0.31 0.31 0.33 0.33
0.07 0.07 0.08 0.19 0.21 0.27 0.72 1.49 1.65 1.80 1.77 1.65 1.61 1.42 1.22 1.08 0.98 0.90 0.85 0.73 0.66 0.63 0.64 0.65 0.58 0.51 0.47 0.44 0.40 0.37 0.34 0.32 0.30 0.28 0.27 0.23 0.22 0.20 0.20 0.20 0.20 0.17 0.18 0.21 0.24 0.25 0.25 0.29 0.31

GEFSSGP_prec_meanprecacc_150.txt.gz
Total_Precipitation_Accumulation
0.00 0.00 0.00 0.00 0.00 0.00 0.01 0.03 0.05 0.09 0.16 0.17 0.20 0.25 0.27 0.29 0.52 1.11 0.72 0.36 0.25 0.09 0.06 0.05 0.04 0.04 0.05 0.06 0.09 0.10 0.10 0.10 0.09 0.08 0.07 0.07 0.07 0.08 0.08 0.08 0.09 0.12 0.15 0.14 0.13 0.12 0.12 0.09 0.08
0.00 0.00 0.00 0.00 0.00 0.00 0.01 0.03 0.06 0.08 0.12 0.13 0.17 0.20 0.20 0.28 0.32 0.33 0.33 0.26 0.19 0.08 0.06 0.05 0.04 0.04 0.04 0.05 0.07 0.10 0.10 0.09 0.08 0.08 0.07 0.07 0.07 0.08 0.09 0.10 0.12 0.16 0.19 0.17 0.13 0.10 0.08 0.06 0.06
0.00 0.00 0.00 0.00 0.00 0.00 0.03 0.05 0.08 0.09 0.13 0.15 0.20 0.32 0.39 0.36 0.35 0.26 0.20 0.16 0.11 0.06 0.05 0.05 0.05 0.05 0.04 0.05 0.06 0.08 0.09 0.08 0.08 0.08 0.07 0.08 0.08 0.08 0.10 0.15 0.18 0.20 0.20 0.21 0.18 0.13 0.09 0.06 0.05
0.00 0.00 0.00 0.00 0.00 0.00 0.02 0.06 0.08 0.09 0.11 0.14 0.17 0.39 0.52 0.34 0.36 0.25 0.17 0.12 0.10 0.08 0.05 0.05 0.05 0.06 0.06 0.06 0.07 0.09 0.10 0.10 0.10 0.10 0.10 0.10 0.10 0.11 0.14 0.22 0.28 0.26 0.24 0.27 0.26 0.21 0.15 0.08 0.07
0.00 0.00 0.00 0.00 0.00 0.01 0.01 0.03 0.07 0.06 0.09 0.12 0.14 0.38 0.63 0.52 0.41 0.26 0.18 0.14 0.11 0.10 0.08 0.07 0.09 0.10 0.09 0.08 0.09 0.11 0.13 0.15 0.17 0.16 0.16 0.15 0.15 0.17 0.22 0.29 0.31 0.30 0.29 0.29 0.25 0.18 0.12 0.09 0.10
0.00 0.00 0.00 0.00 0.00 0.01 0.01 0.02 0.05 0.07 0.10 0.18 0.22 0.44 0.82 0.80 0.51 0.31 0.28 0.25 0.17 0.14 0.10 0.09 0.12 0.13 0.13 0.13 0.14 0.17 0.19 0.20 0.21 0.20 0.20 0.18 0.17 0.19 0.25 0.29 0.31 0.31 0.28 0.23 0.18 0.15 0.13 0.13 0.14
0.00 0.00 0.00 0.00 0.00 0.02 0.03 0.03 0.04 0.07 0.13 0.22 0.34 0.61 0.86 0.78 0.57 0.45 0.44 0.36 0.26 0.22 0.21 0.19 0.20 0.19 0.21 0.25 0.28 0.28 0.28 0.27 0.25 0.23 0.20 0.18 0.19 0.22 0.25 0.30 0.35 0.33 0.24 0.19 0.17 0.15 0.13 0.12 0.12
0.00 0.00 0.00 0.00 0.00 0.02 0.04 0.04 0.05 0.09 0.26 0.33 0.34 0.57 0.94 1.01 0.77 0.72 0.71 0.63 0.53 0.49 0.49 0.46 0.41 0.35 0.31 0.32 0.35 0.37 0.37 0.35 0.31 0.25 0.21 0.23 0.26 0.28 0.32 0.30 0.31 0.30 0.24 0.20 0.17 0.15 0.12 0.11 0.10
0.00 0.00 0.00 0.00 0.01 0.02 0.04 0.05 0.07 0.09 0.19 0.42 0.41 0.49 0.81 1.00 0.94 0.93 0.95 0.86 0.92 0.94 0.96 0.85 0.73 0.60 0.61 0.56 0.45 0.48 0.48 0.46 0.40 0.35 0.30 0.33 0.41 0.46 0.50 0.43 0.44 0.35 0.29 0.25 0.23 0.19 0.17 0.15 0.13
0.00 0.00 0.00 0.00 0.00 0.02 0.03 0.04 0.06 0.11 0.18 0.41 0.47 0.51 0.69 0.88 1.15 1.24 1.14 1.06 1.17 1.35 1.23 1.04 1.03 0.98 0.92 0.80 0.70 0.70 0.61 0.58 0.52 0.58 0.50 0.56 0.80 0.92 0.82 0.78 0.63 0.56 0.48 0.40 0.37 0.34 0.27 0.20 0.21
0.00 0.00 0.00 0.01 0.01 0.01 0.02 0.04 0.05 0.11 0.33 0.57 0.68 0.74 0.85 1.06 1.25 1.41 1.38 1.31 1.42 1.44 1.25 1.22 1.32 1.27 1.30 1.26 1.20 1.08 1.01 0.94 0.82 0.91 0.87 0.93 0.95 0.93 0.97 1.01 0.86 0.78 0.73 0.70 0.69 0.53 0.41 0.41 0.46
0.00 0.00 0.00 0.02 0.03 0.04 0.03 0.04 0.07 0.12 0.33 0.60 0.74 0.98 1.17 1.35 1.41 1.57 1.71 1.68 1.83 1.77 1.54 1.44 1.33 1.40 1.57 1.55 1.50 1.48 1.45 1.42 1.34 1.30 1.15 1.23 1.30 1.31 1.25 1.36 1.33 1.32 1.24 1.14 1.03 0.90 0.76 0.70 0.72
0.00 0.00 0.00 0.02 0.04 0.04 0.03 0.06 0.07 0.11 0.28 0.40 0.56 0.78 0.87 1.03 1.39 1.88 1.94 2.05 2.21 2.20 2.02 1.77 1.70 1.66 1.68 1.76 1.77 1.53 1.56 1.63 1.76 1.72 1.51 1.52 1.49 1.52 1.66 1.70 1.75 1.65 1.73 1.64 1.43 1.20 1.11 1.02 0.88
0.00 0.00 0.01 0.01 0.03 0.04 0.06 0.08 0.08 0.15 0.29 0.34 0.39 0.53 0.78 0.85 1.11 1.56 1.95 2.17 2.27 2.35 2.27 2.09 1.93 1.87 1.77 1.93 2.06 1.91 1.76 1.80 1.83 1.88 1.74 1.72 1.73 1.79 1.87 1.91 1.96 1.83 1.81 1.85 1.71 1.45 1.34 1.26 1.13
0.00 0.01 0.01 0.02 0.02 0.03 0.05 0.10 0.11 0.13 0.26 0.40 0.40 0.48 0.78 1.06 1.19 1.63 2.02 2.23 2.46 2.41 2.26 2.28 2.14 2.23 2.28 2.42 2.44 2.43 2.34 2.30 2.24 2.15 2.16 2.08 2.03 2.05 2.01 2.17 2.25 2.12 2.05 2.01 1.88 1.77 1.56 1.51 1.47
0.00 0.02 0.02 0.02 0.02 0.01 0.02 0.17 0.23 0.20 0.26 0.37 0.44 0.56 0.81 1.07 1.30 1.59 1.93 2.04 2.31 2.25 2.29 2.41 2.32 2.39 2.54 2.49 2.37 2.42 2.62 2.61 2.52 2.44 2.47 2.35 2.33 2.38 2.46 2.41 2.32 2.24 2.21 2.20 2.23 2.06 1.85 1.78 1.86
0.00 0.01 0.01 0.01 0.01 0.01 0.03 0.19 0.23 0.24 0.33 0.42 0.47 0.56 0.67 0.81 1.06 1.37 1.85 2.10 2.19 2.21 2.11 2.21 2.39 2.35 2.49 2.50 2.44 2.50 2.76 2.90 2.93 2.90 2.81 2.69 2.66 2.70 2.85 2.89 2.70 2.48 2.38 2.38 2.25 2.23 2.13 2.12 2.11
0.00 0.00 0.00 0.01 0.01 0.02 0.05 0.16 0.29 0.30 0.40 0.48 0.55 0.51 0.62 0.80 1.10 1.42 1.84 2.09 2.09 2.14 2.14 2.16 2.39 2.36 2.52 2.65 2.57 2.62 2.69 2.80 2.92 3.05 3.15 3.29 3.31 3.27 3.27 3.15 2.95 2.79 2.67 2.62 2.52 2.45 2.38 2.23 2.08
0.00 0.00 0.00 0.01 0.02 0.05 0.10 0.17 0.30 0.38 0.45 0.56 0.64 0.61 0.79 0.85 1.05 1.43 1.79 2.04 2.31 2.22 2.24 2.16 2.20 2.37 2.46 2.63 2.78 3.01 3.02 3.01 3.27 3.54 3.68 3.88 3.93 3.74 3.68 3.57 3.37 3.17 2.96 2.81 2.62 2.48 2.38 2.20 2.02
0.00 0.01 0.01 0.04 0.06 0.08 0.14 0.27 0.39 0.45 0.47 0.62 0.76 0.79 1.07 1.22 1.25 1.41 1.73 2.04 2.27 2.29 2.25 2.29 2.47 2.54 2.67 3.01 3.47 3.87 4.18 4.33 4.43 4.65 4.66 4.54 4.38 4.24 4.10 3.96 3.73 3.46 3.21 2.97 2.76 2.51 2.33 2.14 1.97
0.01 0.01 0.03 0.06 0.11 0.15 0.22 0.49 0.56 0.53 0.53 0.69 0.88 0.94 1.11 1.30 1.44 1.34 1.39 1.57 1.87 2.12 2.28 2.34 2.64 3.00 3.35 3.84 4.39 4.81 5.16 5.37 5.27 5.10 4.97 4.73 4.49 4.29 3.98 3.74 3.66 3.44 3.09 2.85 2.67 2.45 2.26 2.04 1.88
0.01 0.01 0.02 0.04 0.10 0.22 0.25 0.52 0.65 0.63 0.71 0.80 0.88 0.88 0.98 1.01 1.12 1.22 1.26 1.36 1.63 1.85 2.12 2.42 2.72 3.27 4.01 4.68 5.24 5.71 5.91 5.88 5.73 5.47 5.09 4.69 4.35 4.01 3.69 3.40 3.13 2.90 2.64 2.41 2.26 2.15 2.07 1.97 1.85
0.01 0.00 0.01 0.04 0.07 0.17 0.22 0.46 0.73 0.79 0.85 0.93 1.02 0.96 0.94 0.98 0.96 1.01 1.10 1.23 1.48 1.67 1.95 2.32 2.77 3.42 4.09 4.71 5.29 5.74 5.93 5.83 5.55 5.10 4.58 4.07 3.59 3.22 2.93 2.67 2.39 2.15 1.97 1.82 1.66 1.61 1.72 1.79 1.78
0.00 0.01 0.03 0.06 0.11 0.23 0.20 0.37 0.79 1.04 1.12 1.25 1.20 1.22 1.24 1.12 1.06 1.03 1.00 1.04 1.19 1.44 1.75 2.12 2.55 3.07 3.57 4.00 4.55 4.88 5.05 4.98 4.64 4.15 3.55 3.09 2.76 2.47 2.24 2.01 1.78 1.58 1.43 1.33 1.26 1.24 1.30 1.40 1.47
0.00 0.02 0.10 0.17 0.20 0.25 0.21 0.42 0.94 1.24 1.27 1.36 1.30 1.36 1.39 1.22 1.10 1.04 0.99 0.95 1.03 1.25 1.56 1.80 2.06 2.47 2.75 3.10 3.49 3.71 3.72 3.57 3.35 3.10 2.80 2.41 2.06 1.77 1.56 1.38 1.23 1.09 1.02 0.99 0.95 0.97 1.04 1.08 1.11
0.01 0.02 0.14 0.30 0.30 0.34 0.44 0.79 1.24 1.27 1.16 1.19 1.22 1.21 1.17 1.03 0.97 1.02 1.05 1.03 1.11 1.16 1.31 1.49 1.61 1.80 1.93 2.07 2.26 2.29 2.26 2.18 2.15 2.02 1.82 1.58 1.31 1.05 0.91 0.83 0.75 0.72 0.71 0.70 0.69 0.71 0.77 0.82 0.84
0.01 0.03 0.08 0.13 0.20 0.37 0.72 1.20 1.52 1.40 1.30 1.20 1.08 0.92 0.97 0.92 0.86 0.90 0.93 1.01 1.08 1.08 1.07 1.08 1.08 1.11 1.12 1.14 1.24 1.29 1.29 1.27 1.23 1.14 1.03 0.92 0.82 0.72 0.63 0.58 0.55 0.53 0.54 0.54 0.51 0.49 0.49 0.55 0.63
0.03 0.05 0.07 0.13 0.34 0.52 0.79 1.22 1.67 1.78 1.73 1.64 1.34 1.03 1.00 0.96 0.89 0.81 0.75 0.79 0.85 0.84 0.81 0.77 0.77 0.76 0.70 0.66 0.67 0.72 0.76 0.74 0.70 0.67 0.63 0.58 0.54 0.49 0.44 0.39 0.35 0.33 0.33 0.36 0.39 0.39 0.36 0.38 0.42
0.05 0.06 0.08 0.15 0.25 0.49 0.93 1.44 1.58 1.85 1.87 1.72 1.42 1.16 1.12 1.05 0.97 0.91 0.87 0.77 0.72 0.72 0.72 0.68 0.66 0.62 0.59 0.56 0.55 0.51 0.49 0.47 0.42 0.40 0.39 0.36 0.32 0.30 0.28 0.26 0.23 0.22 0.22 0.25 0.29 0.32 0.33 0.35 0.35
0.08 0.08 0.10 0.22 0.24 0.32 0.77 1.54 1.69 1.88 1.90 1.76 1.71 1.51 1.30 1.17 1.06 0.97 0.92 0.79 0.71 0.67 0.67 0.67 0.59 0.53 0.51 0.46 0.42 0.39 0.35 0.33 0.31 0.29 0.27 0.24 0.22 0.20 0.20 0.20 0.20 0.18 0.18 0.22 0.25 0.25 0.26 0.30 0.33

GEFSSGP_prec_meanprecacc_156.txt.gz
Total_Precipitation_Accumulation
0.00 0.00 0.00 0.00 0.00 0.00 0.01 0.03 0.06 0.12 0.19 0.21 0.22 0.26 0.29 0.30 0.54 1.12 0.73 0.37 0.26 0.10 0.07 0.06 0.05 0.04 0.06 0.06 0.09 0.10 0.10 0.10 0.09 0.08 0.07 0.07 0.08 0.08 0.08 0.08 0.09 0.13 0.15 0.14 0.13 0.13 0.12 0.10 0.08
0.00 0.00 0.00 0.00 0.00 0.00 0.01 0.03 0.07 0.10 0.14 0.14 0.18 0.21 0.22 0.30 0.33 0.34 0.35 0.28 0.21 0.10 0.08 0.06 0.05 0.04 0.05 0.06 0.07 0.10 0.10 0.09 0.08 0.08 0.07 0.07 0.07 0.08 0.09 0.10 0.12 0.17 0.19 0.18 0.14 0.11 0.08 0.07 0.06
0.00 0.00 0.00 0.00 0.00 0.00 0.03 0.07 0.10 0.12 0.17 0.18 0.22 0.33 0.40 0.38 0.37 0.28 0.25 0.20 0.15 0.09 0.08 0.07 0.06 0.05 0.05 0.05 0.06 0.08 0.09 0.08 0.08 0.08 0.08 0.08 0.08 0.08 0.11 0.15 0.19 0.20 0.20 0.22 0.19 0.14 0.09 0.07 0.06
0.00 0.00 0.00 0.00 0.00 0.00 0.03 0.08 0.12 0.13 0.15 0.16 0.20 0.42 0.54 0.35 0.40 0.31 0.25 0.18 0.13 0.10 0.07 0.06 0.06 0.06 0.06 0.06 0.07 0.09 0.10 0.10 0.10 0.10 0.10 0.10 0.11 0.11 0.14 0.22 0.28 0.27 0.24 0.27 0.26 0.21 0.15 0.09 0.08
0.00 0.00 0.00 0.00 0.00 0.01 0.01 0.05 0.11 0.10 0.13 0.15 0.15 0.40 0.64 0.55 0.46 0.38 0.28 0.17 0.12 0.11 0.09 0.08 0.10 0.11 0.10 0.09 0.10 0.12 0.13 0.15 0.17 0.17 0.16 0.16 0.16 0.17 0.22 0.29 0.31 0.30 0.29 0.29 0.26 0.19 0.12 0.10 0.11
0.00 0.00 0.00 0.00 0.00 0.01 0.03 0.04 0.08 0.11 0.13 0.20 0.24 0.45 0.84 0.82 0.53 0.34 0.30 0.26 0.18 0.15 0.11 0.09 0.13 0.15 0.14 0.14 0.15 0.17 0.19 0.20 0.21 0.21 0.20 0.18 0.17 0.20 0.25 0.29 0.32 0.32 0.28 0.24 0.19 0.15 0.13 0.13 0.14
0.00 0.00 0.00 0.00 0.00 0.03 0.05 0.06 0.08 0.10 0.16 0.23 0.35 0.61 0.89 0.81 0.59 0.46 0.44 0.37 0.27 0.23 0.21 0.20 0.21 0.20 0.22 0.27 0.29 0.29 0.28 0.27 0.26 0.23 0.21 0.18 0.19 0.22 0.26 0.31 0.36 0.34 0.25 0.20 0.18 0.16 0.14 0.13 0.13
0.00 0.00 0.00 0.00 0.01 0.03 0.07 0.08 0.09 0.12 0.28 0.34 0.35 0.57 0.95 1.03 0.78 0.73 0.72 0.64 0.54 0.49 0.50 0.47 0.42 0.36 0.32 0.32 0.36 0.38 0.38 0.36 0.31 0.26 0.22 0.23 0.26 0.29 0.33 0.31 0.33 0.31 0.26 0.22 0.19 0.17 0.14 0.13 0.12
0.00 0.00 0.00 0.00 0.01 0.03 0.06 0.08 0.10 0.12 0.20 0.43 0.41 0.49 0.82 1.01 0.95 0.95 0.97 0.88 0.93 0.95 0.97 0.86 0.74 0.61 0.62 0.57 0.46 0.49 0.49 0.47 0.40 0.35 0.31 0.34 0.41 0.48 0.52 0.44 0.47 0.39 0.32 0.29 0.27 0.23 0.20 0.17 0.15
0.00 0.00 0.00 0.00 0.01 0.03 0.05 0.08 0.10 0.13 0.20 0.42 0.48 0.52 0.70 0.89 1.18 1.26 1.16 1.08 1.18 1.36 1.24 1.05 1.04 0.99 0.93 0.81 0.71 0.70 0.61 0.58 0.53 0.59 0.50 0.56 0.81 0.93 0.83 0.80 0.66 0.60 0.53 0.45 0.42 0.38 0.31 0.23 0.23
0.00 0.00 0.00 0.01 0.01 0.02 0.04 0.06 0.08 0.14 0.34 0.59 0.69 0.75 0.86 1.08 1.28 1.42 1.40 1.33 1.44 1.46 1.26 1.24 1.34 1.29 1.31 1.27 1.21 1.10 1.03 0.95 0.84 0.92 0.89 0.94 0.96 0.94 1.00 1.03 0.89 0.81 0.76 0.73 0.72 0.56 0.45 0.44 0.49
0.00 0.00 0.01 0.02 0.04 0.05 0.04 0.05 0.08 0.14 0.35 0.62 0.76 0.99 1.19 1.37 1.44 1.61 1.75 1.71 1.86 1.80 1.56 1.45 1.34 1.41 1.59 1.57 1.52 1.50 1.47 1.43 1.35 1.31 1.16 1.24 1.30 1.33 1.29 1.39 1.36 1.35 1.27 1.18 1.08 0.94 0.81 0.75 0.76
0.00 0.00 0.01 0.04 0.06 0.06 0.04 0.07 0.08 0.13 0.30 0.43 0.59 0.81 0.91 1.06 1.43 1.92 1.98 2.07 2.23 2.23 2.04 1.79 1.71 1.68 1.69 1.77 1.78 1.54 1.58 1.65 1.77 1.72 1.52 1.53 1.50 1.54 1.70 1.73 1.79 1.70 1.77 1.68 1.49 1.26 1.17 1.08 0.93
0.00 0.01 0.02 0.03 0.06 0.08 0.10 0.12 0.12 0.19 0.33 0.39 0.44 0.59 0.84 0.90 1.16 1.62 2.00 2.22 2.32 2.39 2.29 2.11 1.94 1.89 1.79 1.95 2.09 1.95 1.80 1.83 1.85 1.91 1.78 1.77 1.78 1.84 1.91 1.96 2.02 1.88 1.85 1.88 1.76 1.51 1.39 1.33 1.20
0.01 0.02 0.03 0.04 0.05 0.07 0.08 0.15 0.17 0.18 0.30 0.45 0.46 0.54 0.84 1.13 1.29 1.72 2.10 2.31 2.55 2.49 2.30 2.31 2.17 2.27 2.33 2.47 2.49 2.49 2.40 2.37 2.30 2.22 2.22 2.15 2.11 2.13 2.08 2.25 2.32 2.17 2.10 2.07 1.96 1.85 1.64 1.59 1.54
0.01 0.02 0.03 0.04 0.04 0.03 0.05 0.20 0.26 0.25 0.30 0.42 0.51 0.62 0.87 1.15 1.38 1.67 2.00 2.11 2.38 2.37 2.40 2.47 2.38 2.45 2.61 2.56 2.44 2.48 2.69 2.69 2.62 2.54 2.56 2.43 2.41 2.46 2.54 2.49 2.38 2.30 2.27 2.27 2.31 2.16 1.95 1.87 1.94
0.01 0.02 0.02 0.03 0.03 0.04 0.05 0.20 0.25 0.27 0.37 0.47 0.54 0.63 0.73 0.87 1.13 1.45 1.91 2.15 2.25 2.27 2.20 2.32 2.47 2.40 2.55 2.58 2.53 2.59 2.83 2.96 2.99 2.97 2.87 2.76 2.73 2.76 2.90 2.95 2.75 2.53 2.45 2.45 2.35 2.34 2.24 2.23 2.19
0.01 0.01 0.01 0.01 0.03 0.03 0.06 0.17 0.31 0.33 0.45 0.51 0.60 0.57 0.68 0.85 1.16 1.48 1.90 2.15 2.15 2.20 2.20 2.24 2.49 2.45 2.60 2.73 2.63 2.70 2.74 2.83 2.96 3.09 3.18 3.32 3.36 3.34 3.33 3.20 3.00 2.83 2.72 2.68 2.59 2.53 2.50 2.35 2.18
0.00 0.01 0.01 0.01 0.03 0.06 0.12 0.19 0.32 0.41 0.50 0.59 0.68 0.66 0.85 0.91 1.11 1.51 1.88 2.12 2.39 2.30 2.31 2.23 2.27 2.43 2.51 2.66 2.80 3.04 3.04 3.02 3.29 3.55 3.70 3.91 3.98 3.81 3.75 3.63 3.42 3.23 3.02 2.86 2.69 2.55 2.46 2.28 2.10
0.00 0.01 0.02 0.05 0.07 0.09 0.17 0.31 0.45 0.52 0.53 0.66 0.80 0.83 1.12 1.27 1.30 1.46 1.80 2.14 2.36 2.36 2.33 2.39 2.57 2.61 2.71 3.04 3.49 3.89 4.19 4.35 4.44 4.65 4.68 4.59 4.44 4.30 4.17 4.03 3.79 3.52 3.29 3.05 2.82 2.56 2.38 2.20 2.03
0.01 0.01 0.03 0.06 0.12 0.17 0.25 0.53 0.62 0.59 0.60 0.75 0.92 0.98 1.16 1.35 1.49 1.38 1.45 1.65 1.96 2.19 2.36 2.43 2.74 3.08 3.42 3.89 4.42 4.83 5.18 5.38 5.28 5.11 4.99 4.78 4.56 4.36 4.04 3.81 3.72 3.49 3.14 2.91 2.72 2.51 2.31 2.10 1.95
0.01 0.01 0.03 0.05 0.10 0.24 0.27 0.55 0.69 0.67 0.76 0.85 0.92 0.92 1.03 1.06 1.17 1.28 1.32 1.43 1.70 1.93 2.20 2.50 2.81 3.36 4.10 4.74 5.28 5.74 5.93 5.90 5.76 5.49 5.11 4.72 4.40 4.07 3.76 3.48 3.19 2.94 2.68 2.45 2.30 2.18 2.10 2.01 1.90
0.01 0.01 0.02 0.06 0.07 0.18 0.23 0.48 0.76 0.82 0.87 0.95 1.05 1.00 0.99 1.04 1.03 1.08 1.17 1.32 1.57 1.78 2.06 2.44 2.88 3.52 4.17 4.78 5.34 5.77 5.95 5.85 5.57 5.13 4.62 4.13 3.66 3.28 2.99 2.73 2.45 2.20 2.00 1.84 1.68 1.63 1.74 1.81 1.81
0.00 0.02 0.04 0.07 0.11 0.23 0.21 0.38 0.82 1.06 1.13 1.27 1.23 1.29 1.31 1.18 1.11 1.09 1.09 1.15 1.29 1.55 1.86 2.23 2.66 3.19 3.67 4.07 4.59 4.91 5.07 5.00 4.67 4.18 3.59 3.15 2.83 2.52 2.26 2.03 1.83 1.63 1.47 1.36 1.28 1.26 1.32 1.41 1.49
0.00 0.03 0.11 0.18 0.21 0.26 0.22 0.44 0.95 1.25 1.27 1.37 1.33 1.40 1.43 1.26 1.17 1.10 1.06 1.05 1.14 1.36 1.68 1.90 2.14 2.53 2.81 3.15 3.53 3.73 3.75 3.60 3.37 3.12 2.84 2.46 2.09 1.79 1.59 1.41 1.26 1.13 1.05 1.02 0.97 0.98 1.05 1.09 1.13
0.01 0.02 0.15 0.31 0.31 0.35 0.44 0.80 1.24 1.28 1.17 1.20 1.25 1.24 1.21 1.07 1.03 1.08 1.11 1.11 1.17 1.22 1.36 1.54 1.65 1.83 1.96 2.10 2.28 2.32 2.29 2.22 2.18 2.04 1.84 1.59 1.33 1.07 0.94 0.86 0.78 0.75 0.73 0.72 0.70 0.73 0.78 0.83 0.85
0.01 0.03 0.08 0.14 0.20 0.37 0.73 1.21 1.53 1.41 1.31 1.21 1.10 0.95 1.01 0.97 0.94 0.98 0.99 1.06 1.11 1.11 1.10 1.11 1.11 1.14 1.16 1.18 1.29 1.34 1.32 1.30 1.25 1.15 1.04 0.92 0.83 0.73 0.65 0.60 0.57 0.55 0.56 0.55 0.52 0.51 0.50 0.56 0.64
0.03 0.05 0.07 0.13 0.34 0.52 0.79 1.23 1.68 1.78 1.74 1.66 1.38 1.08 1.04 1.01 0.97 0.88 0.80 0.83 0.89 0.87 0.84 0.80 0.80 0.79 0.73 0.69 0.71 0.75 0.78 0.76 0.72 0.67 0.64 0.59 0.55 0.51 0.46 0.40 0.36 0.33 0.34 0.37 0.40 0.40 0.37 0.39 0.43
0.05 0.06 0.08 0.15 0.25 0.49 0.93 1.44 1.58 1.85 1.87 1.73 1.45 1.20 1.17 1.11 1.03 0.96 0.92 0.80 0.76 0.76 0.75 0.71 0.69 0.65 0.61 0.59 0.58 0.54 0.51 0.48 0.43 0.41 0.40 0.36 0.34 0.31 0.29 0.27 0.24 0.23 0.23 0.25 0.30 0.32 0.33 0.35 0.37
0.08 0.08 0.10 0.22 0.24 0.32 0.77 1.54 1.69 1.88 1.90 1.77 1.72 1.52 1.33 1.22 1.10 1.01 0.96 0.82 0.73 0.69 0.70 0.70 0.63 0.56 0.52 0.48 0.44 0.41 0.37 0.35 0.33 0.31 0.29 0.25 0.23 0.22 0.22 0.22 0.21 0.19 0.19 0.23 0.26 0.26 0.27 0.31 0.35

GEFSSGP_prec_meanprecacc_162.txt.gz
Total_Precipitation_Accumulation
0.00 0.00 0.00 0.00 0.00 0.00 0.01 0.03 0.06 0.12 0.20 0.22 0.23 0.27 0.31 0.32 0.56 1.15 0.76 0.39 0.28 0.13 0.09 0.07 0.06 0.06 0.06 0.07 0.09 0.10 0.10 0.10 0.09 0.08 0.07 0.07 0.08 0.08 0.08 0.08 0.09 0.13 0.15 0.14 0.13 0.13 0.12 0.10 0.09
0.00 0.00 0.00 0.00 0.00 0.00 0.01 0.04 0.08 0.12 0.15 0.15 0.19 0.22 0.23 0.31 0.36 0.37 0.37 0.30 0.23 0.14 0.11 0.08 0.07 0.06 0.06 0.06 0.08 0.10 0.10 0.09 0.09 0.08 0.07 0.07 0.08 0.08 0.09 0.10 0.12 0.17 0.20 0.18 0.14 0.11 0.08 0.07 0.07
0.00 0.00 0.00 0.00 0.00 0.00 0.03 0.08 0.11 0.14 0.18 0.20 0.25 0.35 0.41 0.39 0.39 0.30 0.26 0.21 0.17 0.12 0.11 0.10 0.09 0.07 0.07 0.06 0.06 0.09 0.10 0.09 0.09 0.08 0.08 0.09 0.09 0.09 0.11 0.16 0.19 0.20 0.21 0.22 0.19 0.14 0.10 0.07 0.07
0.00 0.00 0.00 0.00 0.00 0.00 0.03 0.09 0.14 0.16 0.18 0.18 0.22 0.44 0.56 0.36 0.41 0.32 0.26 0.20 0.14 0.11 0.09 0.09 0.10 0.09 0.09 0.09 0.09 0.10 0.12 0.11 0.12 0.11 0.12 0.12 0.12 0.12 0.16 0.24 0.29 0.28 0.25 0.27 0.26 0.21 0.15 0.09 0.08
0.00 0.00 0.00 0.00 0.00 0.01 0.01 0.06 0.13 0.15 0.18 0.17 0.17 0.41 0.67 0.57 0.47 0.39 0.28 0.17 0.13 0.13 0.13 0.11 0.13 0.14 0.13 0.14 0.13 0.15 0.15 0.17 0.19 0.18 0.17 0.17 0.17 0.18 0.24 0.31 0.33 0.32 0.30 0.30 0.26 0.19 0.13 0.10 0.11
0.00 0.00 0.00 0.00 0.00 0.01 0.03 0.05 0.08 0.13 0.16 0.23 0.26 0.47 0.87 0.86 0.55 0.35 0.31 0.27 0.19 0.17 0.13 0.13 0.16 0.18 0.18 0.19 0.18 0.19 0.21 0.22 0.22 0.22 0.22 0.20 0.19 0.22 0.27 0.32 0.34 0.34 0.30 0.25 0.20 0.17 0.15 0.15 0.15
0.00 0.00 0.00 0.00 0.01 0.03 0.05 0.07 0.09 0.12 0.17 0.25 0.36 0.62 0.90 0.84 0.61 0.47 0.45 0.38 0.28 0.25 0.24 0.23 0.25 0.24 0.25 0.30 0.31 0.30 0.30 0.29 0.26 0.24 0.22 0.20 0.22 0.25 0.29 0.34 0.39 0.37 0.28 0.23 0.20 0.18 0.16 0.15 0.15
0.00 0.00 0.00 0.00 0.01 0.03 0.07 0.08 0.10 0.14 0.29 0.35 0.36 0.59 0.96 1.05 0.80 0.75 0.73 0.65 0.56 0.52 0.53 0.51 0.48 0.42 0.38 0.36 0.38 0.40 0.39 0.37 0.33 0.27 0.23 0.24 0.28 0.31 0.36 0.34 0.37 0.35 0.30 0.25 0.23 0.19 0.16 0.15 0.15
0.00 0.00 0.00 0.00 0.02 0.04 0.07 0.09 0.11 0.12 0.21 0.44 0.42 0.51 0.84 1.02 0.98 0.98 0.98 0.90 0.96 0.97 0.99 0.88 0.77 0.65 0.67 0.61 0.48 0.50 0.50 0.48 0.42 0.36 0.32 0.35 0.43 0.50 0.55 0.47 0.50 0.44 0.38 0.34 0.33 0.27 0.24 0.22 0.20
0.00 0.00 0.00 0.00 0.01 0.03 0.05 0.08 0.10 0.14 0.20 0.44 0.50 0.55 0.74 0.93 1.22 1.30 1.18 1.09 1.19 1.37 1.25 1.07 1.07 1.02 0.96 0.83 0.74 0.74 0.64 0.60 0.55 0.61 0.52 0.59 0.85 0.96 0.86 0.83 0.69 0.65 0.58 0.51 0.49 0.45 0.36 0.30 0.30
0.00 0.00 0.00 0.01 0.02 0.03 0.04 0.07 0.09 0.15 0.36 0.61 0.72 0.78 0.89 1.14 1.33 1.47 1.43 1.35 1.46 1.47 1.28 1.26 1.37 1.31 1.34 1.30 1.24 1.13 1.05 0.99 0.88 0.96 0.92 0.98 0.99 0.97 1.03 1.06 0.93 0.85 0.81 0.82 0.81 0.63 0.53 0.53 0.57
0.00 0.00 0.01 0.03 0.05 0.06 0.05 0.06 0.09 0.15 0.37 0.65 0.79 1.02 1.24 1.46 1.53 1.66 1.78 1.73 1.88 1.82 1.58 1.47 1.35 1.43 1.61 1.58 1.53 1.52 1.49 1.46 1.38 1.34 1.19 1.27 1.34 1.37 1.33 1.41 1.39 1.39 1.32 1.26 1.17 1.04 0.92 0.86 0.87
0.00 0.01 0.02 0.04 0.08 0.07 0.06 0.08 0.09 0.14 0.32 0.47 0.67 0.89 0.98 1.14 1.51 2.00 2.05 2.14 2.29 2.27 2.07 1.80 1.73 1.69 1.72 1.80 1.80 1.56 1.60 1.67 1.79 1.75 1.54 1.56 1.55 1.60 1.75 1.78 1.84 1.75 1.84 1.76 1.58 1.36 1.26 1.18 1.04
0.00 0.01 0.02 0.05 0.07 0.10 0.12 0.14 0.14 0.21 0.35 0.43 0.51 0.67 0.91 0.97 1.24 1.74 2.13 2.32 2.40 2.44 2.34 2.13 1.97 1.92 1.82 1.98 2.13 1.98 1.83 1.86 1.87 1.94 1.82 1.81 1.83 1.89 1.98 2.03 2.08 1.94 1.93 1.97 1.87 1.61 1.48 1.42 1.29
0.01 0.02 0.04 0.06 0.07 0.09 0.10 0.18 0.21 0.22 0.34 0.48 0.50 0.58 0.88 1.18 1.35 1.81 2.17 2.37 2.61 2.56 2.34 2.34 2.20 2.30 2.36 2.51 2.52 2.52 2.44 2.41 2.34 2.26 2.27 2.20 2.17 2.19 2.15 2.33 2.40 2.23 2.16 2.14 2.07 1.96 1.74 1.67 1.61
0.01 0.03 0.05 0.06 0.06 0.05 0.06 0.23 0.29 0.28 0.35 0.46 0.54 0.64 0.90 1.16 1.41 1.73 2.06 2.15 2.43 2.42 2.44 2.51 2.41 2.48 2.64 2.59 2.47 2.51 2.72 2.72 2.65 2.58 2.61 2.49 2.47 2.52 2.60 2.55 2.45 2.37 2.33 2.34 2.41 2.26 2.04 1.94 2.02
0.01 0.02 0.03 0.04 0.05 0.06 0.06 0.22 0.28 0.30 0.42 0.51 0.57 0.64 0.73 0.88 1.15 1.50 1.96 2.19 2.29 2.32 2.24 2.36 2.51 2.44 2.59 2.62 2.58 2.62 2.86 3.00 3.02 3.00 2.90 2.80 2.78 2.81 2.95 2.99 2.81 2.60 2.52 2.53 2.41 2.41 2.31 2.29 2.26
0.01 0.01 0.01 0.02 0.04 0.05 0.08 0.19 0.33 0.36 0.48 0.55 0.63 0.58 0.69 0.86 1.18 1.51 1.93 2.19 2.20 2.26 2.26 2.30 2.55 2.51 2.67 2.78 2.66 2.73 2.76 2.86 2.98 3.12 3.21 3.34 3.38 3.36 3.35 3.24 3.06 2.90 2.78 2.75 2.66 2.62 2.59 2.43 2.27
0.00 0.01 0.01 0.02 0.03 0.07 0.13 0.21 0.35 0.44 0.53 0.61 0.70 0.68 0.87 0.93 1.14 1.54 1.91 2.17 2.45 2.39 2.41 2.33 2.36 2.53 2.60 2.73 2.86 3.10 3.08 3.06 3.32 3.58 3.72 3.92 3.99 3.82 3.77 3.66 3.48 3.29 3.08 2.93 2.78 2.66 2.56 2.37 2.18
0.00 0.01 0.02 0.05 0.08 0.11 0.19 0.34 0.48 0.56 0.56 0.69 0.84 0.86 1.15 1.29 1.33 1.49 1.83 2.18 2.42 2.46 2.45 2.50 2.66 2.69 2.78 3.11 3.57 3.97 4.26 4.40 4.49 4.69 4.70 4.60 4.45 4.32 4.19 4.07 3.85 3.59 3.36 3.12 2.91 2.68 2.48 2.29 2.12
0.01 0.01 0.03 0.06 0.13 0.19 0.28 0.56 0.65 0.62 0.64 0.79 0.96 1.02 1.19 1.37 1.51 1.41 1.47 1.68 2.02 2.26 2.43 2.52 2.80 3.14 3.48 3.95 4.48 4.88 5.23 5.43 5.31 5.13 5.01 4.79 4.58 4.38 4.07 3.84 3.76 3.54 3.20 2.97 2.79 2.59 2.40 2.19 2.03
0.01 0.01 0.03 0.05 0.11 0.26 0.30 0.58 0.71 0.69 0.78 0.87 0.94 0.95 1.06 1.09 1.20 1.31 1.35 1.46 1.74 1.98 2.24 2.57 2.87 3.42 4.16 4.81 5.35 5.80 5.98 5.95 5.79 5.52 5.14 4.74 4.41 4.08 3.78 3.51 3.24 3.00 2.73 2.50 2.34 2.24 2.18 2.08 1.95
0.01 0.01 0.02 0.06 0.08 0.19 0.25 0.50 0.78 0.83 0.88 0.96 1.06 1.02 1.03 1.08 1.09 1.14 1.22 1.35 1.60 1.81 2.10 2.48 2.92 3.58 4.22 4.84 5.40 5.82 6.00 5.88 5.60 5.14 4.64 4.15 3.69 3.32 3.03 2.77 2.49 2.25 2.06 1.90 1.73 1.68 1.80 1.88 1.87
0.00 0.02 0.04 0.08 0.12 0.24 0.21 0.39 0.83 1.06 1.14 1.27 1.24 1.30 1.33 1.20 1.15 1.14 1.13 1.18 1.32 1.58 1.89 2.26 2.69 3.22 3.72 4.11 4.63 4.95 5.10 5.02 4.69 4.19 3.60 3.16 2.85 2.56 2.30 2.06 1.86 1.67 1.51 1.40 1.33 1.31 1.36 1.47 1.54
0.00 0.03 0.11 0.19 0.22 0.26 0.22 0.44 0.96 1.25 1.28 1.37 1.33 1.41 1.44 1.28 1.19 1.13 1.10 1.08 1.17 1.39 1.71 1.94 2.16 2.56 2.84 3.18 3.57 3.78 3.78 3.62 3.40 3.15 2.86 2.47 2.11 1.82 1.61 1.43 1.29 1.16 1.09 1.05 1.01 1.03 1.09 1.13 1.17
0.01 0.02 0.15 0.32 0.31 0.35 0.45 0.80 1.24 1.28 1.17 1.20 1.25 1.24 1.21 1.08 1.05 1.11 1.15 1.14 1.21 1.25 1.40 1.56 1.67 1.85 1.98 2.12 2.31 2.34 2.31 2.24 2.21 2.06 1.86 1.61 1.34 1.08 0.96 0.88 0.82 0.79 0.78 0.75 0.73 0.77 0.83 0.88 0.89
0.01 0.04 0.08 0.14 0.20 0.37 0.73 1.21 1.53 1.41 1.31 1.21 1.10 0.95 1.01 0.98 0.96 1.01 1.04 1.10 1.15 1.15 1.13 1.14 1.13 1.16 1.17 1.19 1.30 1.36 1.34 1.32 1.27 1.17 1.05 0.94 0.84 0.74 0.66 0.61 0.60 0.57 0.58 0.57 0.55 0.54 0.55 0.62 0.69
0.03 0.05 0.07 0.13 0.34 0.52 0.79 1.23 1.68 1.79 1.74 1.66 1.38 1.08 1.05 1.02 0.99 0.90 0.83 0.88 0.94 0.91 0.86 0.81 0.81 0.81 0.75 0.70 0.72 0.76 0.80 0.77 0.73 0.69 0.65 0.60 0.56 0.51 0.46 0.41 0.37 0.35 0.35 0.38 0.42 0.43 0.40 0.42 0.46
0.05 0.06 0.08 0.15 0.25 0.50 0.93 1.44 1.58 1.85 1.87 1.73 1.45 1.21 1.17 1.12 1.04 0.98 0.96 0.86 0.82 0.81 0.78 0.73 0.70 0.66 0.63 0.60 0.60 0.55 0.52 0.49 0.44 0.42 0.40 0.37 0.35 0.33 0.31 0.28 0.25 0.24 0.24 0.26 0.31 0.34 0.35 0.37 0.38
0.08 0.08 0.10 0.22 0.25 0.33 0.78 1.55 1.69 1.88 1.91 1.77 1.72 1.53 1.33 1.23 1.12 1.05 1.01 0.88 0.79 0.74 0.73 0.72 0.65 0.57 0.54 0.50 0.46 0.42 0.39 0.36 0.34 0.32 0.30 0.26 0.25 0.24 0.23 0.23 0.22 0.19 0.20 0.24 0.28 0.28 0.29 0.33 0.36

GEFSSGP_prec_meanprecacc_168.txt.gz
Total_Precipitation_Accumulation
0.00 0.00 0.00 0.00 0.00 0.00 0.01 0.05 0.07 0.13 0.20 0.22 0.23 0.27 0.31 0.33 0.59 1.23 0.78 0.40 0.28 0.14 0.09 0.07 0.06 0.06 0.07 0.07 0.09 0.11 0.11 0.10 0.10 0.09 0.08 0.08 0.08 0.08 0.08 0.08 0.09 0.13 0.15 0.15 0.14 0.13 0.12 0.10 0.09
0.00 0.00 0.00 0.00 0.00 0.01 0.02 0.04 0.09 0.13 0.15 0.16 0.20 0.22 0.23 0.32 0.36 0.38 0.39 0.31 0.24 0.15 0.12 0.09 0.07 0.07 0.06 0.06 0.08 0.11 0.11 0.10 0.10 0.09 0.08 0.08 0.08 0.08 0.09 0.10 0.12 0.17 0.20 0.18 0.14 0.11 0.08 0.07 0.07
0.00 0.00 0.00 0.00 0.00 0.01 0.05 0.09 0.13 0.14 0.18 0.20 0.25 0.36 0.42 0.40 0.40 0.31 0.28 0.22 0.17 0.13 0.12 0.12 0.10 0.08 0.07 0.07 0.08 0.11 0.11 0.10 0.10 0.10 0.10 0.10 0.10 0.10 0.12 0.16 0.19 0.21 0.21 0.22 0.19 0.14 0.10 0.07 0.07
0.00 0.00 0.00 0.00 0.00 0.01 0.04 0.12 0.15 0.16 0.19 0.19 0.22 0.45 0.56 0.38 0.42 0.33 0.28 0.20 0.14 0.12 0.11 0.10 0.11 0.11 0.10 0.10 0.10 0.12 0.13 0.12 0.13 0.12 0.13 0.13 0.13 0.13 0.17 0.25 0.30 0.28 0.26 0.28 0.26 0.22 0.15 0.09 0.08
0.00 0.00 0.00 0.00 0.00 0.01 0.02 0.08 0.16 0.15 0.18 0.18 0.18 0.43 0.69 0.59 0.48 0.41 0.30 0.18 0.14 0.15 0.16 0.12 0.14 0.15 0.15 0.15 0.14 0.17 0.17 0.18 0.20 0.19 0.18 0.18 0.17 0.19 0.24 0.32 0.34 0.33 0.31 0.31 0.27 0.20 0.13 0.11 0.12
0.00 0.00 0.00 0.00 0.00 0.01 0.03 0.05 0.10 0.14 0.20 0.27 0.28 0.50 0.90 0.89 0.56 0.36 0.32 0.28 0.20 0.19 0.16 0.14 0.16 0.19 0.20 0.21 0.22 0.22 0.23 0.23 0.24 0.23 0.23 0.20 0.20 0.23 0.28 0.33 0.35 0.35 0.31 0.26 0.21 0.18 0.15 0.16 0.17
0.00 0.00 0.00 0.00 0.01 0.03 0.06 0.07 0.10 0.13 0.21 0.30 0.38 0.64 0.93 0.89 0.64 0.49 0.47 0.40 0.30 0.27 0.27 0.26 0.27 0.26 0.27 0.31 0.33 0.32 0.31 0.30 0.28 0.25 0.23 0.21 0.23 0.26 0.30 0.36 0.40 0.38 0.29 0.24 0.21 0.19 0.17 0.16 0.16
0.00 0.00 0.00 0.00 0.01 0.04 0.08 0.09 0.11 0.15 0.32 0.37 0.38 0.62 0.99 1.09 0.85 0.78 0.76 0.68 0.60 0.55 0.57 0.56 0.55 0.49 0.43 0.39 0.40 0.41 0.41 0.38 0.34 0.28 0.24 0.25 0.30 0.34 0.39 0.36 0.39 0.36 0.31 0.26 0.24 0.20 0.17 0.17 0.17
0.00 0.00 0.00 0.01 0.02 0.04 0.09 0.11 0.12 0.14 0.23 0.47 0.47 0.56 0.89 1.06 1.01 1.03 1.04 0.96 1.04 1.04 1.03 0.94 0.85 0.74 0.76 0.70 0.52 0.54 0.52 0.50 0.43 0.39 0.34 0.38 0.47 0.59 0.64 0.53 0.54 0.47 0.40 0.36 0.34 0.30 0.26 0.24 0.23
0.00 0.00 0.00 0.00 0.01 0.04 0.08 0.10 0.10 0.15 0.23 0.53 0.60 0.63 0.82 0.98 1.27 1.37 1.26 1.18 1.28 1.45 1.31 1.13 1.15 1.12 1.05 0.91 0.83 0.82 0.71 0.68 0.61 0.70 0.60 0.67 0.95 1.06 0.95 0.91 0.74 0.67 0.60 0.53 0.52 0.48 0.40 0.34 0.37
0.00 0.00 0.00 0.01 0.02 0.04 0.07 0.10 0.11 0.17 0.40 0.69 0.81 0.83 0.96 1.20 1.39 1.54 1.52 1.47 1.56 1.54 1.32 1.30 1.42 1.37 1.40 1.38 1.32 1.20 1.14 1.08 0.97 1.06 1.03 1.09 1.10 1.07 1.11 1.16 1.02 0.93 0.87 0.89 0.91 0.71 0.60 0.63 0.67
0.00 0.00 0.01 0.03 0.05 0.08 0.11 0.13 0.15 0.20 0.44 0.75 0.88 1.11 1.30 1.50 1.57 1.71 1.83 1.79 1.95 1.88 1.63 1.51 1.39 1.48 1.66 1.63 1.60 1.59 1.56 1.54 1.45 1.42 1.27 1.37 1.44 1.47 1.44 1.51 1.49 1.51 1.45 1.39 1.31 1.15 1.01 0.95 0.96
0.00 0.01 0.02 0.05 0.08 0.08 0.09 0.13 0.16 0.20 0.39 0.58 0.77 1.01 1.08 1.20 1.55 2.05 2.12 2.20 2.36 2.33 2.12 1.85 1.77 1.74 1.77 1.85 1.87 1.63 1.69 1.74 1.87 1.84 1.63 1.65 1.64 1.68 1.85 1.88 1.96 1.87 1.97 1.89 1.72 1.46 1.34 1.26 1.10
0.01 0.01 0.02 0.05 0.08 0.11 0.15 0.18 0.19 0.25 0.41 0.51 0.61 0.76 1.02 1.03 1.26 1.76 2.16 2.36 2.43 2.49 2.38 2.18 2.00 1.95 1.86 2.04 2.20 2.06 1.90 1.92 1.94 2.01 1.89 1.87 1.90 1.97 2.07 2.13 2.18 2.05 2.05 2.08 1.98 1.71 1.58 1.51 1.38
0.01 0.03 0.05 0.07 0.07 0.10 0.14 0.23 0.24 0.24 0.37 0.55 0.59 0.67 0.98 1.24 1.39 1.83 2.19 2.40 2.64 2.59 2.38 2.37 2.23 2.33 2.40 2.55 2.56 2.57 2.48 2.44 2.39 2.32 2.33 2.27 2.25 2.31 2.29 2.46 2.50 2.33 2.26 2.24 2.16 2.04 1.83 1.76 1.71
0.01 0.05 0.08 0.07 0.06 0.05 0.10 0.28 0.34 0.31 0.38 0.52 0.65 0.75 0.97 1.23 1.45 1.76 2.08 2.18 2.45 2.45 2.48 2.54 2.44 2.51 2.67 2.63 2.51 2.55 2.76 2.76 2.70 2.63 2.68 2.60 2.62 2.69 2.79 2.72 2.58 2.48 2.42 2.42 2.49 2.34 2.11 2.04 2.11
0.01 0.05 0.07 0.07 0.06 0.07 0.08 0.26 0.33 0.34 0.46 0.58 0.64 0.73 0.82 0.93 1.18 1.54 2.00 2.22 2.32 2.35 2.28 2.40 2.56 2.49 2.64 2.67 2.63 2.67 2.90 3.04 3.07 3.05 2.98 2.94 2.99 3.01 3.10 3.11 2.92 2.71 2.61 2.62 2.47 2.48 2.39 2.38 2.35
0.02 0.03 0.03 0.03 0.05 0.05 0.10 0.26 0.40 0.42 0.54 0.61 0.70 0.65 0.76 0.92 1.22 1.54 1.96 2.21 2.22 2.29 2.30 2.34 2.60 2.56 2.72 2.83 2.71 2.77 2.80 2.90 3.02 3.17 3.26 3.40 3.46 3.45 3.46 3.35 3.17 3.01 2.88 2.82 2.73 2.69 2.68 2.52 2.36
0.02 0.02 0.03 0.04 0.05 0.08 0.17 0.32 0.45 0.51 0.58 0.66 0.75 0.75 0.94 0.99 1.19 1.57 1.93 2.20 2.48 2.43 2.45 2.37 2.40 2.58 2.65 2.79 2.91 3.15 3.13 3.11 3.37 3.64 3.77 3.95 4.02 3.85 3.81 3.71 3.55 3.37 3.15 2.99 2.85 2.73 2.63 2.44 2.27
0.02 0.02 0.05 0.08 0.09 0.14 0.25 0.40 0.55 0.62 0.62 0.75 0.90 0.94 1.24 1.35 1.38 1.53 1.86 2.20 2.45 2.51 2.51 2.55 2.70 2.74 2.83 3.18 3.63 4.03 4.33 4.46 4.53 4.73 4.74 4.62 4.46 4.33 4.20 4.10 3.89 3.65 3.42 3.18 2.97 2.75 2.54 2.35 2.19
0.03 0.03 0.05 0.09 0.14 0.21 0.32 0.60 0.70 0.67 0.69 0.86 1.05 1.11 1.30 1.47 1.58 1.46 1.51 1.71 2.05 2.31 2.49 2.56 2.84 3.19 3.54 4.01 4.54 4.96 5.31 5.48 5.35 5.17 5.04 4.81 4.59 4.40 4.08 3.86 3.79 3.58 3.25 3.03 2.87 2.67 2.48 2.26 2.10
0.03 0.03 0.04 0.07 0.14 0.28 0.32 0.63 0.78 0.76 0.86 0.96 1.04 1.04 1.19 1.24 1.33 1.40 1.41 1.51 1.77 2.02 2.30 2.62 2.91 3.47 4.21 4.86 5.41 5.87 6.04 6.00 5.83 5.55 5.16 4.76 4.42 4.10 3.80 3.53 3.26 3.03 2.77 2.55 2.40 2.31 2.25 2.16 2.01
0.01 0.02 0.03 0.07 0.10 0.21 0.26 0.52 0.82 0.88 0.94 1.02 1.15 1.09 1.09 1.15 1.14 1.19 1.26 1.39 1.63 1.85 2.15 2.55 2.96 3.62 4.27 4.89 5.45 5.87 6.04 5.92 5.63 5.17 4.68 4.19 3.72 3.35 3.06 2.79 2.52 2.29 2.11 1.95 1.78 1.73 1.85 1.94 1.93
0.00 0.02 0.04 0.09 0.13 0.26 0.23 0.42 0.89 1.11 1.18 1.32 1.31 1.37 1.40 1.25 1.17 1.16 1.15 1.21 1.35 1.61 1.93 2.33 2.76 3.26 3.76 4.15 4.67 4.99 5.15 5.08 4.76 4.27 3.67 3.20 2.88 2.60 2.34 2.09 1.89 1.70 1.54 1.44 1.37 1.36 1.41 1.53 1.61
0.00 0.03 0.13 0.22 0.25 0.30 0.24 0.46 0.99 1.27 1.29 1.38 1.37 1.47 1.52 1.36 1.24 1.15 1.11 1.10 1.20 1.42 1.74 1.99 2.21 2.60 2.87 3.21 3.60 3.82 3.83 3.68 3.47 3.21 2.92 2.50 2.14 1.84 1.64 1.46 1.33 1.18 1.11 1.08 1.05 1.07 1.15 1.19 1.24
0.01 0.03 0.18 0.37 0.34 0.36 0.45 0.81 1.25 1.28 1.17 1.20 1.26 1.26 1.25 1.11 1.09 1.14 1.17 1.15 1.23 1.27 1.43 1.60 1.71 1.89 2.01 2.14 2.34 2.37 2.33 2.26 2.24 2.09 1.87 1.63 1.36 1.10 0.98 0.90 0.84 0.80 0.80 0.77 0.77 0.81 0.88 0.93 0.96
0.01 0.04 0.09 0.16 0.22 0.40 0.76 1.23 1.54 1.41 1.32 1.22 1.11 0.96 1.03 1.00 0.98 1.04 1.08 1.13 1.18 1.18 1.17 1.16 1.16 1.20 1.20 1.22 1.34 1.39 1.38 1.35 1.31 1.20 1.07 0.96 0.87 0.76 0.68 0.63 0.62 0.59 0.60 0.60 0.59 0.58 0.59 0.66 0.76
0.03 0.05 0.07 0.14 0.38 0.56 0.84 1.27 1.72 1.80 1.75 1.67 1.39 1.09 1.07 1.06 1.03 0.93 0.86 0.91 0.98 0.95 0.90 0.85 0.85 0.85 0.79 0.73 0.75 0.79 0.83 0.80 0.76 0.72 0.67 0.63 0.59 0.54 0.49 0.43 0.40 0.37 0.37 0.41 0.46 0.47 0.44 0.47 0.52
0.05 0.06 0.08 0.16 0.28 0.55 1.00 1.53 1.64 1.87 1.89 1.75 1.48 1.22 1.19 1.14 1.06 0.99 0.98 0.90 0.87 0.86 0.84 0.80 0.78 0.75 0.69 0.64 0.63 0.59 0.55 0.52 0.47 0.44 0.43 0.40 0.37 0.35 0.33 0.30 0.28 0.27 0.27 0.30 0.35 0.38 0.38 0.41 0.42
0.08 0.08 0.10 0.23 0.28 0.39 0.86 1.63 1.74 1.91 1.93 1.80 1.75 1.54 1.35 1.26 1.14 1.07 1.04 0.91 0.82 0.78 0.79 0.79 0.72 0.65 0.60 0.55 0.51 0.46 0.41 0.38 0.36 0.34 0.31 0.28 0.27 0.26 0.25 0.24 0.24 0.22 0.23 0.28 0.32 0.32 0.32 0.37 0.40